<?xml version="1.0" encoding="UTF-8"?>
<gpx version="1.1" creator="https://www.youtrack.es" xsi:schemaLocation="http://www.topografix.com/GPX/1/1 http://www.topografix.com/GPX/1/1/gpx.xsd http://www.garmin.com/xmlschemas/GpxExtensions/v3 http://www.garmin.com/xmlschemas/GpxExtensionsv3.xsd http://www.garmin.com/xmlschemas/TrackPointExtension/v1 http://www.garmin.com/xmlschemas/TrackPointExtensionv1.xsd" xmlns:gpxtpx="http://www.garmin.com/xmlschemas/TrackPointExtension/v1" xmlns:gpxx="http://www.garmin.com/xmlschemas/GpxExtensions/v3" xmlns:xsi="http://www.w3.org/2001/XMLSchema-instance">
  <metadata>
    <link href="https://www.youtrack.es">
      <text>YouTrack.es</text>
    </link>
    <time>2026-05-09T02:41:45Z</time>
  </metadata>
  <trk>
    <src>https://www.youtrack.es</src>
    <link href="https://www.youtrack.es/ruta/9420-02porrera-botarell">
      <text>YouTrack.es</text>
    </link>
    <trkseg>
      <trkpt lat="41.18528700" lon="0.853011000">
        <ele>297.00000</ele>
        <time>2010-01-01T00:00:00Z</time>
      </trkpt>
      <trkpt lat="41.18538800" lon="0.853106000">
        <ele>297.00000</ele>
        <time>2010-01-01T00:00:04Z</time>
      </trkpt>
      <trkpt lat="41.18554100" lon="0.853350000">
        <ele>297.00000</ele>
        <time>2010-01-01T00:00:14Z</time>
      </trkpt>
      <trkpt lat="41.18571700" lon="0.853431000">
        <ele>297.00000</ele>
        <time>2010-01-01T00:00:21Z</time>
      </trkpt>
      <trkpt lat="41.18599400" lon="0.853570000">
        <ele>296.00000</ele>
        <time>2010-01-01T00:00:33Z</time>
      </trkpt>
      <trkpt lat="41.18608300" lon="0.853769000">
        <ele>297.00000</ele>
        <time>2010-01-01T00:00:40Z</time>
      </trkpt>
      <trkpt lat="41.18634300" lon="0.854163000">
        <ele>296.00000</ele>
        <time>2010-01-01T00:00:56Z</time>
      </trkpt>
      <trkpt lat="41.18663800" lon="0.854501000">
        <ele>299.00000</ele>
        <time>2010-01-01T00:01:12Z</time>
      </trkpt>
      <trkpt lat="41.18700800" lon="0.854776000">
        <ele>299.00000</ele>
        <time>2010-01-01T00:01:29Z</time>
      </trkpt>
      <trkpt lat="41.18703500" lon="0.854804000">
        <ele>299.00000</ele>
        <time>2010-01-01T00:01:30Z</time>
      </trkpt>
      <trkpt lat="41.18716200" lon="0.854918000">
        <ele>299.00000</ele>
        <time>2010-01-01T00:01:36Z</time>
      </trkpt>
      <trkpt lat="41.18755500" lon="0.855430000">
        <ele>299.00000</ele>
        <time>2010-01-01T00:01:58Z</time>
      </trkpt>
      <trkpt lat="41.18785400" lon="0.855987000">
        <ele>301.00000</ele>
        <time>2010-01-01T00:02:19Z</time>
      </trkpt>
      <trkpt lat="41.18793500" lon="0.856069000">
        <ele>303.00000</ele>
        <time>2010-01-01T00:02:23Z</time>
      </trkpt>
      <trkpt lat="41.18796300" lon="0.856176000">
        <ele>304.00000</ele>
        <time>2010-01-01T00:02:26Z</time>
      </trkpt>
      <trkpt lat="41.18795500" lon="0.856214000">
        <ele>304.00000</ele>
        <time>2010-01-01T00:02:27Z</time>
      </trkpt>
      <trkpt lat="41.18793700" lon="0.856290000">
        <ele>305.00000</ele>
        <time>2010-01-01T00:02:30Z</time>
      </trkpt>
      <trkpt lat="41.18795700" lon="0.856307000">
        <ele>305.00000</ele>
        <time>2010-01-01T00:02:31Z</time>
      </trkpt>
      <trkpt lat="41.18796500" lon="0.856303000">
        <ele>305.00000</ele>
        <time>2010-01-01T00:02:31Z</time>
      </trkpt>
      <trkpt lat="41.18803200" lon="0.856446000">
        <ele>306.00000</ele>
        <time>2010-01-01T00:02:36Z</time>
      </trkpt>
      <trkpt lat="41.18806200" lon="0.856636000">
        <ele>307.00000</ele>
        <time>2010-01-01T00:02:42Z</time>
      </trkpt>
      <trkpt lat="41.18806100" lon="0.856649000">
        <ele>307.00000</ele>
        <time>2010-01-01T00:02:42Z</time>
      </trkpt>
      <trkpt lat="41.18805600" lon="0.856730000">
        <ele>308.00000</ele>
        <time>2010-01-01T00:02:45Z</time>
      </trkpt>
      <trkpt lat="41.18807700" lon="0.856798000">
        <ele>308.00000</ele>
        <time>2010-01-01T00:02:47Z</time>
      </trkpt>
      <trkpt lat="41.18809200" lon="0.856940000">
        <ele>308.00000</ele>
        <time>2010-01-01T00:02:51Z</time>
      </trkpt>
      <trkpt lat="41.18811000" lon="0.856840000">
        <ele>308.00000</ele>
        <time>2010-01-01T00:02:55Z</time>
      </trkpt>
      <trkpt lat="41.18814200" lon="0.856806000">
        <ele>308.00000</ele>
        <time>2010-01-01T00:02:56Z</time>
      </trkpt>
      <trkpt lat="41.18815600" lon="0.856811000">
        <ele>308.00000</ele>
        <time>2010-01-01T00:02:57Z</time>
      </trkpt>
      <trkpt lat="41.18823000" lon="0.856889000">
        <ele>308.00000</ele>
        <time>2010-01-01T00:03:01Z</time>
      </trkpt>
      <trkpt lat="41.18827700" lon="0.857041000">
        <ele>308.00000</ele>
        <time>2010-01-01T00:03:06Z</time>
      </trkpt>
      <trkpt lat="41.18833200" lon="0.857505000">
        <ele>305.00000</ele>
        <time>2010-01-01T00:03:20Z</time>
      </trkpt>
      <trkpt lat="41.18836300" lon="0.858043000">
        <ele>303.00000</ele>
        <time>2010-01-01T00:03:36Z</time>
      </trkpt>
      <trkpt lat="41.18852100" lon="0.858600000">
        <ele>303.00000</ele>
        <time>2010-01-01T00:03:54Z</time>
      </trkpt>
      <trkpt lat="41.18859200" lon="0.858824000">
        <ele>302.00000</ele>
        <time>2010-01-01T00:04:01Z</time>
      </trkpt>
      <trkpt lat="41.18879800" lon="0.859216000">
        <ele>302.00000</ele>
        <time>2010-01-01T00:04:16Z</time>
      </trkpt>
      <trkpt lat="41.18897900" lon="0.859570000">
        <ele>303.00000</ele>
        <time>2010-01-01T00:04:28Z</time>
      </trkpt>
      <trkpt lat="41.18930500" lon="0.860207000">
        <ele>306.00000</ele>
        <time>2010-01-01T00:04:52Z</time>
      </trkpt>
      <trkpt lat="41.18970400" lon="0.861046000">
        <ele>305.00000</ele>
        <time>2010-01-01T00:05:22Z</time>
      </trkpt>
      <trkpt lat="41.19004600" lon="0.861575000">
        <ele>309.00000</ele>
        <time>2010-01-01T00:05:43Z</time>
      </trkpt>
      <trkpt lat="41.19015500" lon="0.861924000">
        <ele>309.00000</ele>
        <time>2010-01-01T00:05:54Z</time>
      </trkpt>
      <trkpt lat="41.19017200" lon="0.862033000">
        <ele>309.00000</ele>
        <time>2010-01-01T00:05:57Z</time>
      </trkpt>
      <trkpt lat="41.19017100" lon="0.862274000">
        <ele>308.00000</ele>
        <time>2010-01-01T00:06:05Z</time>
      </trkpt>
      <trkpt lat="41.19036800" lon="0.863229000">
        <ele>311.00000</ele>
        <time>2010-01-01T00:06:34Z</time>
      </trkpt>
      <trkpt lat="41.19054700" lon="0.863927000">
        <ele>311.00000</ele>
        <time>2010-01-01T00:06:57Z</time>
      </trkpt>
      <trkpt lat="41.19059500" lon="0.864235000">
        <ele>312.00000</ele>
        <time>2010-01-01T00:07:06Z</time>
      </trkpt>
      <trkpt lat="41.19077300" lon="0.864530000">
        <ele>314.00000</ele>
        <time>2010-01-01T00:07:17Z</time>
      </trkpt>
      <trkpt lat="41.19098200" lon="0.864807000">
        <ele>315.00000</ele>
        <time>2010-01-01T00:07:29Z</time>
      </trkpt>
      <trkpt lat="41.19101100" lon="0.865110000">
        <ele>315.00000</ele>
        <time>2010-01-01T00:07:39Z</time>
      </trkpt>
      <trkpt lat="41.19111100" lon="0.865651000">
        <ele>318.00000</ele>
        <time>2010-01-01T00:07:55Z</time>
      </trkpt>
      <trkpt lat="41.19124000" lon="0.866214000">
        <ele>322.00000</ele>
        <time>2010-01-01T00:08:13Z</time>
      </trkpt>
      <trkpt lat="41.19134200" lon="0.866774000">
        <ele>322.00000</ele>
        <time>2010-01-01T00:08:30Z</time>
      </trkpt>
      <trkpt lat="41.19134200" lon="0.866884000">
        <ele>322.00000</ele>
        <time>2010-01-01T00:08:34Z</time>
      </trkpt>
      <trkpt lat="41.19134100" lon="0.867198000">
        <ele>319.00000</ele>
        <time>2010-01-01T00:08:43Z</time>
      </trkpt>
      <trkpt lat="41.19133600" lon="0.867313000">
        <ele>318.00000</ele>
        <time>2010-01-01T00:08:47Z</time>
      </trkpt>
      <trkpt lat="41.19147200" lon="0.867635000">
        <ele>318.00000</ele>
        <time>2010-01-01T00:08:58Z</time>
      </trkpt>
      <trkpt lat="41.19176400" lon="0.867890000">
        <ele>321.00000</ele>
        <time>2010-01-01T00:09:12Z</time>
      </trkpt>
      <trkpt lat="41.19205700" lon="0.868162000">
        <ele>324.00000</ele>
        <time>2010-01-01T00:09:26Z</time>
      </trkpt>
      <trkpt lat="41.19230900" lon="0.868773000">
        <ele>326.00000</ele>
        <time>2010-01-01T00:09:47Z</time>
      </trkpt>
      <trkpt lat="41.19223100" lon="0.869431000">
        <ele>321.00000</ele>
        <time>2010-01-01T00:10:07Z</time>
      </trkpt>
      <trkpt lat="41.19219800" lon="0.869532000">
        <ele>321.00000</ele>
        <time>2010-01-01T00:10:10Z</time>
      </trkpt>
      <trkpt lat="41.19182600" lon="0.870281000">
        <ele>321.00000</ele>
        <time>2010-01-01T00:10:37Z</time>
      </trkpt>
      <trkpt lat="41.19149000" lon="0.871007000">
        <ele>323.00000</ele>
        <time>2010-01-01T00:11:03Z</time>
      </trkpt>
      <trkpt lat="41.19122400" lon="0.871731000">
        <ele>327.00000</ele>
        <time>2010-01-01T00:11:27Z</time>
      </trkpt>
      <trkpt lat="41.19126400" lon="0.872275000">
        <ele>326.00000</ele>
        <time>2010-01-01T00:11:44Z</time>
      </trkpt>
      <trkpt lat="41.19150600" lon="0.872456000">
        <ele>327.00000</ele>
        <time>2010-01-01T00:11:55Z</time>
      </trkpt>
      <trkpt lat="41.19178200" lon="0.872558000">
        <ele>329.00000</ele>
        <time>2010-01-01T00:12:06Z</time>
      </trkpt>
      <trkpt lat="41.19224200" lon="0.872705000">
        <ele>331.00000</ele>
        <time>2010-01-01T00:12:25Z</time>
      </trkpt>
      <trkpt lat="41.19248900" lon="0.872792000">
        <ele>331.00000</ele>
        <time>2010-01-01T00:12:36Z</time>
      </trkpt>
      <trkpt lat="41.19257600" lon="0.872821000">
        <ele>332.00000</ele>
        <time>2010-01-01T00:12:39Z</time>
      </trkpt>
      <trkpt lat="41.19271000" lon="0.872831000">
        <ele>334.00000</ele>
        <time>2010-01-01T00:12:45Z</time>
      </trkpt>
      <trkpt lat="41.19279700" lon="0.872844000">
        <ele>335.00000</ele>
        <time>2010-01-01T00:12:48Z</time>
      </trkpt>
      <trkpt lat="41.19316600" lon="0.873061000">
        <ele>338.00000</ele>
        <time>2010-01-01T00:13:04Z</time>
      </trkpt>
      <trkpt lat="41.19353600" lon="0.873543000">
        <ele>335.00000</ele>
        <time>2010-01-01T00:13:25Z</time>
      </trkpt>
      <trkpt lat="41.19393500" lon="0.874316000">
        <ele>333.00000</ele>
        <time>2010-01-01T00:13:53Z</time>
      </trkpt>
      <trkpt lat="41.19401400" lon="0.874495000">
        <ele>332.00000</ele>
        <time>2010-01-01T00:13:59Z</time>
      </trkpt>
      <trkpt lat="41.19455900" lon="0.875089000">
        <ele>335.00000</ele>
        <time>2010-01-01T00:14:28Z</time>
      </trkpt>
      <trkpt lat="41.19470900" lon="0.875215000">
        <ele>335.00000</ele>
        <time>2010-01-01T00:14:35Z</time>
      </trkpt>
      <trkpt lat="41.19492000" lon="0.875525000">
        <ele>336.00000</ele>
        <time>2010-01-01T00:14:47Z</time>
      </trkpt>
      <trkpt lat="41.19505000" lon="0.876166000">
        <ele>339.00000</ele>
        <time>2010-01-01T00:15:07Z</time>
      </trkpt>
      <trkpt lat="41.19501300" lon="0.876506000">
        <ele>339.00000</ele>
        <time>2010-01-01T00:15:18Z</time>
      </trkpt>
      <trkpt lat="41.19488600" lon="0.876974000">
        <ele>339.00000</ele>
        <time>2010-01-01T00:15:33Z</time>
      </trkpt>
      <trkpt lat="41.19476200" lon="0.877185000">
        <ele>339.00000</ele>
        <time>2010-01-01T00:15:41Z</time>
      </trkpt>
      <trkpt lat="41.19478200" lon="0.877591000">
        <ele>338.00000</ele>
        <time>2010-01-01T00:15:53Z</time>
      </trkpt>
      <trkpt lat="41.19477800" lon="0.877742000">
        <ele>337.00000</ele>
        <time>2010-01-01T00:15:58Z</time>
      </trkpt>
      <trkpt lat="41.19471700" lon="0.877996000">
        <ele>337.00000</ele>
        <time>2010-01-01T00:16:06Z</time>
      </trkpt>
      <trkpt lat="41.19460600" lon="0.878326000">
        <ele>339.00000</ele>
        <time>2010-01-01T00:16:16Z</time>
      </trkpt>
      <trkpt lat="41.19463200" lon="0.878608000">
        <ele>341.00000</ele>
        <time>2010-01-01T00:16:25Z</time>
      </trkpt>
      <trkpt lat="41.19469700" lon="0.879270000">
        <ele>344.00000</ele>
        <time>2010-01-01T00:16:45Z</time>
      </trkpt>
      <trkpt lat="41.19465900" lon="0.879865000">
        <ele>348.00000</ele>
        <time>2010-01-01T00:17:03Z</time>
      </trkpt>
      <trkpt lat="41.19464400" lon="0.879908000">
        <ele>349.00000</ele>
        <time>2010-01-01T00:17:05Z</time>
      </trkpt>
      <trkpt lat="41.19457600" lon="0.880277000">
        <ele>348.00000</ele>
        <time>2010-01-01T00:17:16Z</time>
      </trkpt>
      <trkpt lat="41.19450500" lon="0.880457000">
        <ele>347.00000</ele>
        <time>2010-01-01T00:17:22Z</time>
      </trkpt>
      <trkpt lat="41.19422700" lon="0.880560000">
        <ele>347.00000</ele>
        <time>2010-01-01T00:17:34Z</time>
      </trkpt>
      <trkpt lat="41.19411000" lon="0.880537000">
        <ele>348.00000</ele>
        <time>2010-01-01T00:17:38Z</time>
      </trkpt>
      <trkpt lat="41.19356900" lon="0.880340000">
        <ele>349.00000</ele>
        <time>2010-01-01T00:18:01Z</time>
      </trkpt>
      <trkpt lat="41.19350800" lon="0.880308000">
        <ele>349.00000</ele>
        <time>2010-01-01T00:18:03Z</time>
      </trkpt>
      <trkpt lat="41.19309800" lon="0.880317000">
        <ele>353.00000</ele>
        <time>2010-01-01T00:18:20Z</time>
      </trkpt>
      <trkpt lat="41.19290600" lon="0.880501000">
        <ele>354.00000</ele>
        <time>2010-01-01T00:18:29Z</time>
      </trkpt>
      <trkpt lat="41.19260400" lon="0.881136000">
        <ele>355.00000</ele>
        <time>2010-01-01T00:18:52Z</time>
      </trkpt>
      <trkpt lat="41.19242400" lon="0.881481000">
        <ele>356.00000</ele>
        <time>2010-01-01T00:19:05Z</time>
      </trkpt>
      <trkpt lat="41.19233000" lon="0.881656000">
        <ele>356.00000</ele>
        <time>2010-01-01T00:19:11Z</time>
      </trkpt>
      <trkpt lat="41.19225400" lon="0.881897000">
        <ele>357.00000</ele>
        <time>2010-01-01T00:19:19Z</time>
      </trkpt>
      <trkpt lat="41.19220600" lon="0.882572000">
        <ele>360.00000</ele>
        <time>2010-01-01T00:19:39Z</time>
      </trkpt>
      <trkpt lat="41.19200800" lon="0.882961000">
        <ele>365.00000</ele>
        <time>2010-01-01T00:19:54Z</time>
      </trkpt>
      <trkpt lat="41.19161800" lon="0.883125000">
        <ele>365.00000</ele>
        <time>2010-01-01T00:20:10Z</time>
      </trkpt>
      <trkpt lat="41.19124900" lon="0.883112000">
        <ele>364.00000</ele>
        <time>2010-01-01T00:20:25Z</time>
      </trkpt>
      <trkpt lat="41.19096200" lon="0.883191000">
        <ele>364.00000</ele>
        <time>2010-01-01T00:20:36Z</time>
      </trkpt>
      <trkpt lat="41.19062900" lon="0.883526000">
        <ele>367.00000</ele>
        <time>2010-01-01T00:20:53Z</time>
      </trkpt>
      <trkpt lat="41.19060300" lon="0.884213000">
        <ele>369.00000</ele>
        <time>2010-01-01T00:21:14Z</time>
      </trkpt>
      <trkpt lat="41.19041000" lon="0.884897000">
        <ele>369.00000</ele>
        <time>2010-01-01T00:21:36Z</time>
      </trkpt>
      <trkpt lat="41.19035800" lon="0.885353000">
        <ele>373.00000</ele>
        <time>2010-01-01T00:21:50Z</time>
      </trkpt>
      <trkpt lat="41.19032500" lon="0.885580000">
        <ele>374.00000</ele>
        <time>2010-01-01T00:21:57Z</time>
      </trkpt>
      <trkpt lat="41.19032200" lon="0.885650000">
        <ele>374.00000</ele>
        <time>2010-01-01T00:21:59Z</time>
      </trkpt>
      <trkpt lat="41.19021600" lon="0.886016000">
        <ele>376.00000</ele>
        <time>2010-01-01T00:22:11Z</time>
      </trkpt>
      <trkpt lat="41.19017000" lon="0.886267000">
        <ele>378.00000</ele>
        <time>2010-01-01T00:22:18Z</time>
      </trkpt>
      <trkpt lat="41.19012000" lon="0.886668000">
        <ele>381.00000</ele>
        <time>2010-01-01T00:22:31Z</time>
      </trkpt>
      <trkpt lat="41.19018400" lon="0.887006000">
        <ele>384.00000</ele>
        <time>2010-01-01T00:22:41Z</time>
      </trkpt>
      <trkpt lat="41.19021600" lon="0.887056000">
        <ele>385.00000</ele>
        <time>2010-01-01T00:22:43Z</time>
      </trkpt>
      <trkpt lat="41.19008900" lon="0.887441000">
        <ele>387.00000</ele>
        <time>2010-01-01T00:22:56Z</time>
      </trkpt>
      <trkpt lat="41.18968600" lon="0.887483000">
        <ele>382.00000</ele>
        <time>2010-01-01T00:23:12Z</time>
      </trkpt>
      <trkpt lat="41.18954200" lon="0.887552000">
        <ele>380.00000</ele>
        <time>2010-01-01T00:23:18Z</time>
      </trkpt>
      <trkpt lat="41.18919800" lon="0.887911000">
        <ele>380.00000</ele>
        <time>2010-01-01T00:23:36Z</time>
      </trkpt>
      <trkpt lat="41.18918500" lon="0.888191000">
        <ele>382.00000</ele>
        <time>2010-01-01T00:23:44Z</time>
      </trkpt>
      <trkpt lat="41.18924900" lon="0.888395000">
        <ele>385.00000</ele>
        <time>2010-01-01T00:23:51Z</time>
      </trkpt>
      <trkpt lat="41.18921300" lon="0.888519000">
        <ele>384.00000</ele>
        <time>2010-01-01T00:23:55Z</time>
      </trkpt>
      <trkpt lat="41.18925300" lon="0.888949000">
        <ele>384.00000</ele>
        <time>2010-01-01T00:24:08Z</time>
      </trkpt>
      <trkpt lat="41.18926700" lon="0.889052000">
        <ele>384.00000</ele>
        <time>2010-01-01T00:24:11Z</time>
      </trkpt>
      <trkpt lat="41.18934600" lon="0.889275000">
        <ele>386.00000</ele>
        <time>2010-01-01T00:24:18Z</time>
      </trkpt>
      <trkpt lat="41.18956100" lon="0.889805000">
        <ele>389.00000</ele>
        <time>2010-01-01T00:24:37Z</time>
      </trkpt>
      <trkpt lat="41.18968700" lon="0.890403000">
        <ele>390.00000</ele>
        <time>2010-01-01T00:24:55Z</time>
      </trkpt>
      <trkpt lat="41.18982800" lon="0.890803000">
        <ele>392.00000</ele>
        <time>2010-01-01T00:25:09Z</time>
      </trkpt>
      <trkpt lat="41.18981500" lon="0.890895000">
        <ele>391.00000</ele>
        <time>2010-01-01T00:25:11Z</time>
      </trkpt>
      <trkpt lat="41.18982800" lon="0.891024000">
        <ele>392.00000</ele>
        <time>2010-01-01T00:25:15Z</time>
      </trkpt>
      <trkpt lat="41.18988700" lon="0.891459000">
        <ele>396.00000</ele>
        <time>2010-01-01T00:25:29Z</time>
      </trkpt>
      <trkpt lat="41.18985300" lon="0.891769000">
        <ele>398.00000</ele>
        <time>2010-01-01T00:25:38Z</time>
      </trkpt>
      <trkpt lat="41.18960100" lon="0.891980000">
        <ele>393.00000</ele>
        <time>2010-01-01T00:25:50Z</time>
      </trkpt>
      <trkpt lat="41.18945600" lon="0.892080000">
        <ele>392.00000</ele>
        <time>2010-01-01T00:25:57Z</time>
      </trkpt>
      <trkpt lat="41.18928000" lon="0.892146000">
        <ele>393.00000</ele>
        <time>2010-01-01T00:26:04Z</time>
      </trkpt>
      <trkpt lat="41.18883200" lon="0.892092000">
        <ele>396.00000</ele>
        <time>2010-01-01T00:26:22Z</time>
      </trkpt>
      <trkpt lat="41.18822400" lon="0.892093000">
        <ele>401.00000</ele>
        <time>2010-01-01T00:26:46Z</time>
      </trkpt>
      <trkpt lat="41.18819600" lon="0.892111000">
        <ele>402.00000</ele>
        <time>2010-01-01T00:26:47Z</time>
      </trkpt>
      <trkpt lat="41.18811600" lon="0.892294000">
        <ele>401.00000</ele>
        <time>2010-01-01T00:26:54Z</time>
      </trkpt>
      <trkpt lat="41.18808300" lon="0.893024000">
        <ele>405.00000</ele>
        <time>2010-01-01T00:27:16Z</time>
      </trkpt>
      <trkpt lat="41.18803500" lon="0.893670000">
        <ele>409.00000</ele>
        <time>2010-01-01T00:27:35Z</time>
      </trkpt>
      <trkpt lat="41.18782500" lon="0.894219000">
        <ele>403.00000</ele>
        <time>2010-01-01T00:27:54Z</time>
      </trkpt>
      <trkpt lat="41.18760200" lon="0.894518000">
        <ele>404.00000</ele>
        <time>2010-01-01T00:28:07Z</time>
      </trkpt>
      <trkpt lat="41.18747700" lon="0.894725000">
        <ele>404.00000</ele>
        <time>2010-01-01T00:28:15Z</time>
      </trkpt>
      <trkpt lat="41.18734600" lon="0.894972000">
        <ele>407.00000</ele>
        <time>2010-01-01T00:28:24Z</time>
      </trkpt>
      <trkpt lat="41.18733700" lon="0.895274000">
        <ele>410.00000</ele>
        <time>2010-01-01T00:28:33Z</time>
      </trkpt>
      <trkpt lat="41.18749800" lon="0.895541000">
        <ele>413.00000</ele>
        <time>2010-01-01T00:28:43Z</time>
      </trkpt>
      <trkpt lat="41.18765200" lon="0.895817000">
        <ele>418.00000</ele>
        <time>2010-01-01T00:28:53Z</time>
      </trkpt>
      <trkpt lat="41.18758600" lon="0.896169000">
        <ele>418.00000</ele>
        <time>2010-01-01T00:29:04Z</time>
      </trkpt>
      <trkpt lat="41.18739700" lon="0.896451000">
        <ele>416.00000</ele>
        <time>2010-01-01T00:29:16Z</time>
      </trkpt>
      <trkpt lat="41.18724800" lon="0.896831000">
        <ele>416.00000</ele>
        <time>2010-01-01T00:29:29Z</time>
      </trkpt>
      <trkpt lat="41.18713800" lon="0.896857000">
        <ele>415.00000</ele>
        <time>2010-01-01T00:29:33Z</time>
      </trkpt>
      <trkpt lat="41.18673700" lon="0.897140000">
        <ele>413.00000</ele>
        <time>2010-01-01T00:29:51Z</time>
      </trkpt>
      <trkpt lat="41.18668700" lon="0.897222000">
        <ele>413.00000</ele>
        <time>2010-01-01T00:29:55Z</time>
      </trkpt>
      <trkpt lat="41.18654400" lon="0.897571000">
        <ele>419.00000</ele>
        <time>2010-01-01T00:30:06Z</time>
      </trkpt>
      <trkpt lat="41.18645800" lon="0.897902000">
        <ele>422.00000</ele>
        <time>2010-01-01T00:30:17Z</time>
      </trkpt>
      <trkpt lat="41.18635100" lon="0.898434000">
        <ele>424.00000</ele>
        <time>2010-01-01T00:30:34Z</time>
      </trkpt>
      <trkpt lat="41.18630600" lon="0.898913000">
        <ele>428.00000</ele>
        <time>2010-01-01T00:30:48Z</time>
      </trkpt>
      <trkpt lat="41.18616200" lon="0.899368000">
        <ele>428.00000</ele>
        <time>2010-01-01T00:31:03Z</time>
      </trkpt>
      <trkpt lat="41.18619000" lon="0.899827000">
        <ele>431.00000</ele>
        <time>2010-01-01T00:31:17Z</time>
      </trkpt>
      <trkpt lat="41.18605200" lon="0.900004000">
        <ele>429.00000</ele>
        <time>2010-01-01T00:31:25Z</time>
      </trkpt>
      <trkpt lat="41.18587200" lon="0.900211000">
        <ele>429.00000</ele>
        <time>2010-01-01T00:31:34Z</time>
      </trkpt>
      <trkpt lat="41.18579800" lon="0.900498000">
        <ele>433.00000</ele>
        <time>2010-01-01T00:31:43Z</time>
      </trkpt>
      <trkpt lat="41.18573200" lon="0.900791000">
        <ele>437.00000</ele>
        <time>2010-01-01T00:31:52Z</time>
      </trkpt>
      <trkpt lat="41.18567200" lon="0.900923000">
        <ele>438.00000</ele>
        <time>2010-01-01T00:31:57Z</time>
      </trkpt>
      <trkpt lat="41.18552500" lon="0.901159000">
        <ele>437.00000</ele>
        <time>2010-01-01T00:32:06Z</time>
      </trkpt>
      <trkpt lat="41.18535300" lon="0.901738000">
        <ele>439.00000</ele>
        <time>2010-01-01T00:32:25Z</time>
      </trkpt>
      <trkpt lat="41.18534900" lon="0.902090000">
        <ele>442.00000</ele>
        <time>2010-01-01T00:32:36Z</time>
      </trkpt>
      <trkpt lat="41.18534700" lon="0.902447000">
        <ele>444.00000</ele>
        <time>2010-01-01T00:32:46Z</time>
      </trkpt>
      <trkpt lat="41.18534500" lon="0.902473000">
        <ele>444.00000</ele>
        <time>2010-01-01T00:32:47Z</time>
      </trkpt>
      <trkpt lat="41.18529900" lon="0.902908000">
        <ele>447.00000</ele>
        <time>2010-01-01T00:33:00Z</time>
      </trkpt>
      <trkpt lat="41.18518600" lon="0.903435000">
        <ele>445.00000</ele>
        <time>2010-01-01T00:33:17Z</time>
      </trkpt>
      <trkpt lat="41.18530900" lon="0.903844000">
        <ele>444.00000</ele>
        <time>2010-01-01T00:33:30Z</time>
      </trkpt>
      <trkpt lat="41.18555300" lon="0.904372000">
        <ele>446.00000</ele>
        <time>2010-01-01T00:33:49Z</time>
      </trkpt>
      <trkpt lat="41.18573900" lon="0.904478000">
        <ele>450.00000</ele>
        <time>2010-01-01T00:33:57Z</time>
      </trkpt>
      <trkpt lat="41.18588800" lon="0.904616000">
        <ele>451.00000</ele>
        <time>2010-01-01T00:34:04Z</time>
      </trkpt>
      <trkpt lat="41.18610900" lon="0.904701000">
        <ele>455.00000</ele>
        <time>2010-01-01T00:34:14Z</time>
      </trkpt>
      <trkpt lat="41.18621100" lon="0.904761000">
        <ele>455.00000</ele>
        <time>2010-01-01T00:34:18Z</time>
      </trkpt>
      <trkpt lat="41.18638500" lon="0.904773000">
        <ele>456.00000</ele>
        <time>2010-01-01T00:34:25Z</time>
      </trkpt>
      <trkpt lat="41.18661700" lon="0.904797000">
        <ele>459.00000</ele>
        <time>2010-01-01T00:34:34Z</time>
      </trkpt>
      <trkpt lat="41.18679500" lon="0.904789000">
        <ele>462.00000</ele>
        <time>2010-01-01T00:34:41Z</time>
      </trkpt>
      <trkpt lat="41.18712000" lon="0.904742000">
        <ele>466.00000</ele>
        <time>2010-01-01T00:34:54Z</time>
      </trkpt>
      <trkpt lat="41.18737000" lon="0.904644000">
        <ele>470.00000</ele>
        <time>2010-01-01T00:35:05Z</time>
      </trkpt>
      <trkpt lat="41.18743400" lon="0.904755000">
        <ele>469.00000</ele>
        <time>2010-01-01T00:35:09Z</time>
      </trkpt>
      <trkpt lat="41.18748500" lon="0.905003000">
        <ele>470.00000</ele>
        <time>2010-01-01T00:35:17Z</time>
      </trkpt>
      <trkpt lat="41.18752200" lon="0.905131000">
        <ele>470.00000</ele>
        <time>2010-01-01T00:35:21Z</time>
      </trkpt>
      <trkpt lat="41.18753100" lon="0.905166000">
        <ele>470.00000</ele>
        <time>2010-01-01T00:35:22Z</time>
      </trkpt>
      <trkpt lat="41.18757100" lon="0.905282000">
        <ele>469.00000</ele>
        <time>2010-01-01T00:35:26Z</time>
      </trkpt>
      <trkpt lat="41.18774700" lon="0.905397000">
        <ele>471.00000</ele>
        <time>2010-01-01T00:35:34Z</time>
      </trkpt>
      <trkpt lat="41.18802300" lon="0.905553000">
        <ele>476.00000</ele>
        <time>2010-01-01T00:35:46Z</time>
      </trkpt>
      <trkpt lat="41.18834800" lon="0.905808000">
        <ele>477.00000</ele>
        <time>2010-01-01T00:36:01Z</time>
      </trkpt>
      <trkpt lat="41.18843600" lon="0.905853000">
        <ele>477.00000</ele>
        <time>2010-01-01T00:36:05Z</time>
      </trkpt>
      <trkpt lat="41.18843600" lon="0.906056000">
        <ele>474.00000</ele>
        <time>2010-01-01T00:36:11Z</time>
      </trkpt>
      <trkpt lat="41.18845200" lon="0.906416000">
        <ele>474.00000</ele>
        <time>2010-01-01T00:36:22Z</time>
      </trkpt>
      <trkpt lat="41.18854300" lon="0.906815000">
        <ele>478.00000</ele>
        <time>2010-01-01T00:36:34Z</time>
      </trkpt>
      <trkpt lat="41.18861900" lon="0.907136000">
        <ele>477.00000</ele>
        <time>2010-01-01T00:36:44Z</time>
      </trkpt>
      <trkpt lat="41.18867000" lon="0.907536000">
        <ele>475.00000</ele>
        <time>2010-01-01T00:36:57Z</time>
      </trkpt>
      <trkpt lat="41.18853000" lon="0.907620000">
        <ele>472.00000</ele>
        <time>2010-01-01T00:37:03Z</time>
      </trkpt>
      <trkpt lat="41.18842400" lon="0.907778000">
        <ele>471.00000</ele>
        <time>2010-01-01T00:37:09Z</time>
      </trkpt>
      <trkpt lat="41.18840600" lon="0.908104000">
        <ele>472.00000</ele>
        <time>2010-01-01T00:37:19Z</time>
      </trkpt>
      <trkpt lat="41.18849300" lon="0.908183000">
        <ele>473.00000</ele>
        <time>2010-01-01T00:37:23Z</time>
      </trkpt>
      <trkpt lat="41.18863500" lon="0.908129000">
        <ele>476.00000</ele>
        <time>2010-01-01T00:37:29Z</time>
      </trkpt>
      <trkpt lat="41.18879600" lon="0.908102000">
        <ele>479.00000</ele>
        <time>2010-01-01T00:37:36Z</time>
      </trkpt>
      <trkpt lat="41.18906300" lon="0.907976000">
        <ele>482.00000</ele>
        <time>2010-01-01T00:37:47Z</time>
      </trkpt>
      <trkpt lat="41.18915400" lon="0.907800000">
        <ele>483.00000</ele>
        <time>2010-01-01T00:37:53Z</time>
      </trkpt>
      <trkpt lat="41.18922100" lon="0.907799000">
        <ele>484.00000</ele>
        <time>2010-01-01T00:37:56Z</time>
      </trkpt>
      <trkpt lat="41.18937400" lon="0.907934000">
        <ele>487.00000</ele>
        <time>2010-01-01T00:38:03Z</time>
      </trkpt>
      <trkpt lat="41.18935300" lon="0.908133000">
        <ele>488.00000</ele>
        <time>2010-01-01T00:38:09Z</time>
      </trkpt>
      <trkpt lat="41.18920200" lon="0.908419000">
        <ele>487.00000</ele>
        <time>2010-01-01T00:38:20Z</time>
      </trkpt>
      <trkpt lat="41.18909700" lon="0.908726000">
        <ele>484.00000</ele>
        <time>2010-01-01T00:38:30Z</time>
      </trkpt>
      <trkpt lat="41.18937100" lon="0.909135000">
        <ele>487.00000</ele>
        <time>2010-01-01T00:38:47Z</time>
      </trkpt>
      <trkpt lat="41.18942500" lon="0.909208000">
        <ele>487.00000</ele>
        <time>2010-01-01T00:38:50Z</time>
      </trkpt>
      <trkpt lat="41.18980000" lon="0.909568000">
        <ele>489.00000</ele>
        <time>2010-01-01T00:39:08Z</time>
      </trkpt>
      <trkpt lat="41.18988800" lon="0.909667000">
        <ele>490.00000</ele>
        <time>2010-01-01T00:39:13Z</time>
      </trkpt>
      <trkpt lat="41.18998200" lon="0.909890000">
        <ele>491.00000</ele>
        <time>2010-01-01T00:39:21Z</time>
      </trkpt>
      <trkpt lat="41.19004800" lon="0.910274000">
        <ele>490.00000</ele>
        <time>2010-01-01T00:39:32Z</time>
      </trkpt>
      <trkpt lat="41.19001300" lon="0.910868000">
        <ele>489.00000</ele>
        <time>2010-01-01T00:39:50Z</time>
      </trkpt>
      <trkpt lat="41.18999900" lon="0.911525000">
        <ele>489.00000</ele>
        <time>2010-01-01T00:40:10Z</time>
      </trkpt>
      <trkpt lat="41.18994500" lon="0.911841000">
        <ele>488.00000</ele>
        <time>2010-01-01T00:40:20Z</time>
      </trkpt>
      <trkpt lat="41.19002800" lon="0.912240000">
        <ele>489.00000</ele>
        <time>2010-01-01T00:40:32Z</time>
      </trkpt>
      <trkpt lat="41.19016900" lon="0.912444000">
        <ele>490.00000</ele>
        <time>2010-01-01T00:40:41Z</time>
      </trkpt>
      <trkpt lat="41.19026100" lon="0.912523000">
        <ele>490.00000</ele>
        <time>2010-01-01T00:40:45Z</time>
      </trkpt>
      <trkpt lat="41.19052500" lon="0.912555000">
        <ele>492.00000</ele>
        <time>2010-01-01T00:40:56Z</time>
      </trkpt>
      <trkpt lat="41.19063900" lon="0.912721000">
        <ele>491.00000</ele>
        <time>2010-01-01T00:41:03Z</time>
      </trkpt>
      <trkpt lat="41.19069400" lon="0.912824000">
        <ele>491.00000</ele>
        <time>2010-01-01T00:41:06Z</time>
      </trkpt>
      <trkpt lat="41.19071700" lon="0.912925000">
        <ele>491.00000</ele>
        <time>2010-01-01T00:41:09Z</time>
      </trkpt>
      <trkpt lat="41.19067500" lon="0.912975000">
        <ele>490.00000</ele>
        <time>2010-01-01T00:41:12Z</time>
      </trkpt>
      <trkpt lat="41.19036100" lon="0.913037000">
        <ele>489.00000</ele>
        <time>2010-01-01T00:41:24Z</time>
      </trkpt>
      <trkpt lat="41.19023000" lon="0.913132000">
        <ele>492.00000</ele>
        <time>2010-01-01T00:41:30Z</time>
      </trkpt>
      <trkpt lat="41.19000900" lon="0.913179000">
        <ele>495.00000</ele>
        <time>2010-01-01T00:41:39Z</time>
      </trkpt>
      <trkpt lat="41.18977200" lon="0.913077000">
        <ele>499.00000</ele>
        <time>2010-01-01T00:41:49Z</time>
      </trkpt>
      <trkpt lat="41.18959100" lon="0.912922000">
        <ele>500.00000</ele>
        <time>2010-01-01T00:41:58Z</time>
      </trkpt>
      <trkpt lat="41.18953800" lon="0.912867000">
        <ele>500.00000</ele>
        <time>2010-01-01T00:42:01Z</time>
      </trkpt>
      <trkpt lat="41.18937400" lon="0.912649000">
        <ele>497.00000</ele>
        <time>2010-01-01T00:42:10Z</time>
      </trkpt>
      <trkpt lat="41.18930425" lon="0.912616252">
        <ele>498.00000</ele>
        <time>2010-01-01T00:42:13Z</time>
      </trkpt>
      <trkpt lat="41.18934462" lon="0.912852287">
        <ele>503.00000</ele>
        <time>2010-01-01T00:42:20Z</time>
      </trkpt>
      <trkpt lat="41.18937288" lon="0.912868380">
        <ele>503.00000</ele>
        <time>2010-01-01T00:42:21Z</time>
      </trkpt>
      <trkpt lat="41.18942939" lon="0.912959575">
        <ele>506.00000</ele>
        <time>2010-01-01T00:42:25Z</time>
      </trkpt>
      <trkpt lat="41.18950206" lon="0.913045406">
        <ele>507.00000</ele>
        <time>2010-01-01T00:42:29Z</time>
      </trkpt>
      <trkpt lat="41.18956665" lon="0.913152694">
        <ele>509.00000</ele>
        <time>2010-01-01T00:42:33Z</time>
      </trkpt>
      <trkpt lat="41.18963528" lon="0.913265347">
        <ele>510.00000</ele>
        <time>2010-01-01T00:42:37Z</time>
      </trkpt>
      <trkpt lat="41.18973216" lon="0.913410186">
        <ele>513.00000</ele>
        <time>2010-01-01T00:42:43Z</time>
      </trkpt>
      <trkpt lat="41.18978868" lon="0.913501381">
        <ele>514.00000</ele>
        <time>2010-01-01T00:42:47Z</time>
      </trkpt>
      <trkpt lat="41.18984923" lon="0.913587212">
        <ele>515.00000</ele>
        <time>2010-01-01T00:42:50Z</time>
      </trkpt>
      <trkpt lat="41.18991786" lon="0.913689136">
        <ele>516.00000</ele>
        <time>2010-01-01T00:42:54Z</time>
      </trkpt>
      <trkpt lat="41.18998245" lon="0.913785696">
        <ele>517.00000</ele>
        <time>2010-01-01T00:42:58Z</time>
      </trkpt>
      <trkpt lat="41.19004704" lon="0.913828611">
        <ele>517.00000</ele>
        <time>2010-01-01T00:43:01Z</time>
      </trkpt>
      <trkpt lat="41.19019237" lon="0.913823246">
        <ele>514.00000</ele>
        <time>2010-01-01T00:43:07Z</time>
      </trkpt>
      <trkpt lat="41.19028521" lon="0.913833975">
        <ele>513.00000</ele>
        <time>2010-01-01T00:43:11Z</time>
      </trkpt>
      <trkpt lat="41.19037806" lon="0.913855433">
        <ele>511.00000</ele>
        <time>2010-01-01T00:43:15Z</time>
      </trkpt>
      <trkpt lat="41.19046284" lon="0.913892984">
        <ele>511.00000</ele>
        <time>2010-01-01T00:43:18Z</time>
      </trkpt>
      <trkpt lat="41.19055165" lon="0.913919806">
        <ele>509.00000</ele>
        <time>2010-01-01T00:43:22Z</time>
      </trkpt>
      <trkpt lat="41.19063238" lon="0.913968086">
        <ele>509.00000</ele>
        <time>2010-01-01T00:43:25Z</time>
      </trkpt>
      <trkpt lat="41.19069294" lon="0.914037823">
        <ele>509.00000</ele>
        <time>2010-01-01T00:43:29Z</time>
      </trkpt>
      <trkpt lat="41.19073331" lon="0.914129018">
        <ele>510.00000</ele>
        <time>2010-01-01T00:43:32Z</time>
      </trkpt>
      <trkpt lat="41.19073734" lon="0.914230942">
        <ele>512.00000</ele>
        <time>2010-01-01T00:43:35Z</time>
      </trkpt>
      <trkpt lat="41.19072927" lon="0.914332866">
        <ele>513.00000</ele>
        <time>2010-01-01T00:43:38Z</time>
      </trkpt>
      <trkpt lat="41.19071716" lon="0.914456248">
        <ele>515.00000</ele>
        <time>2010-01-01T00:43:42Z</time>
      </trkpt>
      <trkpt lat="41.19069294" lon="0.914595723">
        <ele>517.00000</ele>
        <time>2010-01-01T00:43:46Z</time>
      </trkpt>
      <trkpt lat="41.19067679" lon="0.914745926">
        <ele>518.00000</ele>
        <time>2010-01-01T00:43:51Z</time>
      </trkpt>
      <trkpt lat="41.19066872" lon="0.914847850">
        <ele>518.00000</ele>
        <time>2010-01-01T00:43:54Z</time>
      </trkpt>
      <trkpt lat="41.19069697" lon="0.914939045">
        <ele>518.00000</ele>
        <time>2010-01-01T00:43:57Z</time>
      </trkpt>
      <trkpt lat="41.19075753" lon="0.914976596">
        <ele>517.00000</ele>
        <time>2010-01-01T00:43:59Z</time>
      </trkpt>
      <trkpt lat="41.19083826" lon="0.914949774">
        <ele>516.00000</ele>
        <time>2010-01-01T00:44:03Z</time>
      </trkpt>
      <trkpt lat="41.19092707" lon="0.914906859">
        <ele>515.00000</ele>
        <time>2010-01-01T00:44:06Z</time>
      </trkpt>
      <trkpt lat="41.19100781" lon="0.914869308">
        <ele>514.00000</ele>
        <time>2010-01-01T00:44:10Z</time>
      </trkpt>
      <trkpt lat="41.19115314" lon="0.914869308">
        <ele>513.00000</ele>
        <time>2010-01-01T00:44:16Z</time>
      </trkpt>
      <trkpt lat="41.19125809" lon="0.914976596">
        <ele>514.00000</ele>
        <time>2010-01-01T00:44:21Z</time>
      </trkpt>
      <trkpt lat="41.19133883" lon="0.915158987">
        <ele>517.00000</ele>
        <time>2010-01-01T00:44:27Z</time>
      </trkpt>
      <trkpt lat="41.19144379" lon="0.915287733">
        <ele>519.00000</ele>
        <time>2010-01-01T00:44:33Z</time>
      </trkpt>
      <trkpt lat="41.19157296" lon="0.915395021">
        <ele>519.00000</ele>
        <time>2010-01-01T00:44:39Z</time>
      </trkpt>
      <trkpt lat="41.19167792" lon="0.915534496">
        <ele>521.00000</ele>
        <time>2010-01-01T00:44:45Z</time>
      </trkpt>
      <trkpt lat="41.19175865" lon="0.915652513">
        <ele>523.00000</ele>
        <time>2010-01-01T00:44:50Z</time>
      </trkpt>
      <trkpt lat="41.19196857" lon="0.915673971">
        <ele>519.00000</ele>
        <time>2010-01-01T00:44:58Z</time>
      </trkpt>
      <trkpt lat="41.19210582" lon="0.915716886">
        <ele>518.00000</ele>
        <time>2010-01-01T00:45:04Z</time>
      </trkpt>
      <trkpt lat="41.19223499" lon="0.915749073">
        <ele>517.00000</ele>
        <time>2010-01-01T00:45:09Z</time>
      </trkpt>
      <trkpt lat="41.19233591" lon="0.915765166">
        <ele>515.00000</ele>
        <time>2010-01-01T00:45:13Z</time>
      </trkpt>
      <trkpt lat="41.19243683" lon="0.915791988">
        <ele>515.00000</ele>
        <time>2010-01-01T00:45:17Z</time>
      </trkpt>
      <trkpt lat="41.19253775" lon="0.915829539">
        <ele>514.00000</ele>
        <time>2010-01-01T00:45:22Z</time>
      </trkpt>
      <trkpt lat="41.19262656" lon="0.915877819">
        <ele>513.00000</ele>
        <time>2010-01-01T00:45:25Z</time>
      </trkpt>
      <trkpt lat="41.19268307" lon="0.915947556">
        <ele>513.00000</ele>
        <time>2010-01-01T00:45:28Z</time>
      </trkpt>
      <trkpt lat="41.19267903" lon="0.916028022">
        <ele>514.00000</ele>
        <time>2010-01-01T00:45:31Z</time>
      </trkpt>
      <trkpt lat="41.19264270" lon="0.916129946">
        <ele>515.00000</ele>
        <time>2010-01-01T00:45:34Z</time>
      </trkpt>
      <trkpt lat="41.19259830" lon="0.916242599">
        <ele>516.00000</ele>
        <time>2010-01-01T00:45:38Z</time>
      </trkpt>
      <trkpt lat="41.19255389" lon="0.916323065">
        <ele>517.00000</ele>
        <time>2010-01-01T00:45:41Z</time>
      </trkpt>
      <trkpt lat="41.19252160" lon="0.916398167">
        <ele>518.00000</ele>
        <time>2010-01-01T00:45:44Z</time>
      </trkpt>
      <trkpt lat="41.19250545" lon="0.916500091">
        <ele>519.00000</ele>
        <time>2010-01-01T00:45:47Z</time>
      </trkpt>
      <trkpt lat="41.19251756" lon="0.916585922">
        <ele>519.00000</ele>
        <time>2010-01-01T00:45:50Z</time>
      </trkpt>
      <trkpt lat="41.19254986" lon="0.916671752">
        <ele>518.00000</ele>
        <time>2010-01-01T00:45:52Z</time>
      </trkpt>
      <trkpt lat="41.19261041" lon="0.916714668">
        <ele>518.00000</ele>
        <time>2010-01-01T00:45:55Z</time>
      </trkpt>
      <trkpt lat="41.19267096" lon="0.916730761">
        <ele>517.00000</ele>
        <time>2010-01-01T00:45:58Z</time>
      </trkpt>
      <trkpt lat="41.19273151" lon="0.916779041">
        <ele>516.00000</ele>
        <time>2010-01-01T00:46:00Z</time>
      </trkpt>
      <trkpt lat="41.19278399" lon="0.916864871">
        <ele>517.00000</ele>
        <time>2010-01-01T00:46:04Z</time>
      </trkpt>
      <trkpt lat="41.19285261" lon="0.916966795">
        <ele>518.00000</ele>
        <time>2010-01-01T00:46:08Z</time>
      </trkpt>
      <trkpt lat="41.19289702" lon="0.917063355">
        <ele>519.00000</ele>
        <time>2010-01-01T00:46:11Z</time>
      </trkpt>
      <trkpt lat="41.19296564" lon="0.917154550">
        <ele>520.00000</ele>
        <time>2010-01-01T00:46:15Z</time>
      </trkpt>
      <trkpt lat="41.19303023" lon="0.917256474">
        <ele>522.00000</ele>
        <time>2010-01-01T00:46:19Z</time>
      </trkpt>
      <trkpt lat="41.19309885" lon="0.917358398">
        <ele>523.00000</ele>
        <time>2010-01-01T00:46:23Z</time>
      </trkpt>
      <trkpt lat="41.19314729" lon="0.917433500">
        <ele>523.00000</ele>
        <time>2010-01-01T00:46:26Z</time>
      </trkpt>
      <trkpt lat="41.19319977" lon="0.917519330">
        <ele>524.00000</ele>
        <time>2010-01-01T00:46:30Z</time>
      </trkpt>
      <trkpt lat="41.19324417" lon="0.917594432">
        <ele>525.00000</ele>
        <time>2010-01-01T00:46:33Z</time>
      </trkpt>
      <trkpt lat="41.19330472" lon="0.917690992">
        <ele>526.00000</ele>
        <time>2010-01-01T00:46:36Z</time>
      </trkpt>
      <trkpt lat="41.19337738" lon="0.917776823">
        <ele>527.00000</ele>
        <time>2010-01-01T00:46:40Z</time>
      </trkpt>
      <trkpt lat="41.19345812" lon="0.917857289">
        <ele>528.00000</ele>
        <time>2010-01-01T00:46:44Z</time>
      </trkpt>
      <trkpt lat="41.19353885" lon="0.917921662">
        <ele>529.00000</ele>
        <time>2010-01-01T00:46:48Z</time>
      </trkpt>
      <trkpt lat="41.19361555" lon="0.918007493">
        <ele>530.00000</ele>
        <time>2010-01-01T00:46:52Z</time>
      </trkpt>
      <trkpt lat="41.19368821" lon="0.918077230">
        <ele>531.00000</ele>
        <time>2010-01-01T00:46:56Z</time>
      </trkpt>
      <trkpt lat="41.19374876" lon="0.918136239">
        <ele>532.00000</ele>
        <time>2010-01-01T00:46:59Z</time>
      </trkpt>
      <trkpt lat="41.19385774" lon="0.918211340">
        <ele>532.00000</ele>
        <time>2010-01-01T00:47:04Z</time>
      </trkpt>
      <trkpt lat="41.19394655" lon="0.918286442">
        <ele>533.00000</ele>
        <time>2010-01-01T00:47:08Z</time>
      </trkpt>
      <trkpt lat="41.19401921" lon="0.918334722">
        <ele>532.00000</ele>
        <time>2010-01-01T00:47:11Z</time>
      </trkpt>
      <trkpt lat="41.19408783" lon="0.918383002">
        <ele>532.00000</ele>
        <time>2010-01-01T00:47:14Z</time>
      </trkpt>
      <trkpt lat="41.19416453" lon="0.918431282">
        <ele>531.00000</ele>
        <time>2010-01-01T00:47:18Z</time>
      </trkpt>
      <trkpt lat="41.19422508" lon="0.918484926">
        <ele>532.00000</ele>
        <time>2010-01-01T00:47:20Z</time>
      </trkpt>
      <trkpt lat="41.19428159" lon="0.918522477">
        <ele>532.00000</ele>
        <time>2010-01-01T00:47:23Z</time>
      </trkpt>
      <trkpt lat="41.19434618" lon="0.918581485">
        <ele>531.00000</ele>
        <time>2010-01-01T00:47:26Z</time>
      </trkpt>
      <trkpt lat="41.19441076" lon="0.918645858">
        <ele>531.00000</ele>
        <time>2010-01-01T00:47:29Z</time>
      </trkpt>
      <trkpt lat="41.19448342" lon="0.918704867">
        <ele>532.00000</ele>
        <time>2010-01-01T00:47:33Z</time>
      </trkpt>
      <trkpt lat="41.19458434" lon="0.918806791">
        <ele>534.00000</ele>
        <time>2010-01-01T00:47:38Z</time>
      </trkpt>
      <trkpt lat="41.19465700" lon="0.918892621">
        <ele>535.00000</ele>
        <time>2010-01-01T00:47:42Z</time>
      </trkpt>
      <trkpt lat="41.19471754" lon="0.918967723">
        <ele>535.00000</ele>
        <time>2010-01-01T00:47:45Z</time>
      </trkpt>
      <trkpt lat="41.19477809" lon="0.919053554">
        <ele>536.00000</ele>
        <time>2010-01-01T00:47:49Z</time>
      </trkpt>
      <trkpt lat="41.19481442" lon="0.919123291">
        <ele>536.00000</ele>
        <time>2010-01-01T00:47:51Z</time>
      </trkpt>
      <trkpt lat="41.19482653" lon="0.919187664">
        <ele>536.00000</ele>
        <time>2010-01-01T00:47:53Z</time>
      </trkpt>
      <trkpt lat="41.19484268" lon="0.919262766">
        <ele>537.00000</ele>
        <time>2010-01-01T00:47:55Z</time>
      </trkpt>
      <trkpt lat="41.19485479" lon="0.919321775">
        <ele>537.00000</ele>
        <time>2010-01-01T00:47:57Z</time>
      </trkpt>
      <trkpt lat="41.19481846" lon="0.919423699">
        <ele>538.00000</ele>
        <time>2010-01-01T00:48:01Z</time>
      </trkpt>
      <trkpt lat="41.19479828" lon="0.919541716">
        <ele>538.00000</ele>
        <time>2010-01-01T00:48:04Z</time>
      </trkpt>
      <trkpt lat="41.19479424" lon="0.919643640">
        <ele>539.00000</ele>
        <time>2010-01-01T00:48:07Z</time>
      </trkpt>
      <trkpt lat="41.19479424" lon="0.919740200">
        <ele>539.00000</ele>
        <time>2010-01-01T00:48:10Z</time>
      </trkpt>
      <trkpt lat="41.19479020" lon="0.919847488">
        <ele>540.00000</ele>
        <time>2010-01-01T00:48:14Z</time>
      </trkpt>
      <trkpt lat="41.19478213" lon="0.919965505">
        <ele>541.00000</ele>
        <time>2010-01-01T00:48:17Z</time>
      </trkpt>
      <trkpt lat="41.19478213" lon="0.920131802">
        <ele>542.00000</ele>
        <time>2010-01-01T00:48:22Z</time>
      </trkpt>
      <trkpt lat="41.19477406" lon="0.920292735">
        <ele>543.00000</ele>
        <time>2010-01-01T00:48:27Z</time>
      </trkpt>
      <trkpt lat="41.19477809" lon="0.920416116">
        <ele>545.00000</ele>
        <time>2010-01-01T00:48:31Z</time>
      </trkpt>
      <trkpt lat="41.19478213" lon="0.920539498">
        <ele>546.00000</ele>
        <time>2010-01-01T00:48:34Z</time>
      </trkpt>
      <trkpt lat="41.19477002" lon="0.920646786">
        <ele>548.00000</ele>
        <time>2010-01-01T00:48:38Z</time>
      </trkpt>
      <trkpt lat="41.19474580" lon="0.920732617">
        <ele>550.00000</ele>
        <time>2010-01-01T00:48:40Z</time>
      </trkpt>
      <trkpt lat="41.19471754" lon="0.920802354">
        <ele>552.00000</ele>
        <time>2010-01-01T00:48:43Z</time>
      </trkpt>
      <trkpt lat="41.19471754" lon="0.920866727">
        <ele>553.00000</ele>
        <time>2010-01-01T00:48:45Z</time>
      </trkpt>
      <trkpt lat="41.19472965" lon="0.920968651">
        <ele>553.00000</ele>
        <time>2010-01-01T00:48:48Z</time>
      </trkpt>
      <trkpt lat="41.19472965" lon="0.921043753">
        <ele>554.00000</ele>
        <time>2010-01-01T00:48:50Z</time>
      </trkpt>
      <trkpt lat="41.19472965" lon="0.921134948">
        <ele>554.00000</ele>
        <time>2010-01-01T00:48:53Z</time>
      </trkpt>
      <trkpt lat="41.19471754" lon="0.921247601">
        <ele>555.00000</ele>
        <time>2010-01-01T00:48:56Z</time>
      </trkpt>
      <trkpt lat="41.19470140" lon="0.921328067">
        <ele>556.00000</ele>
        <time>2010-01-01T00:48:59Z</time>
      </trkpt>
      <trkpt lat="41.19467314" lon="0.921408534">
        <ele>558.00000</ele>
        <time>2010-01-01T00:49:02Z</time>
      </trkpt>
      <trkpt lat="41.19463681" lon="0.921494364">
        <ele>560.00000</ele>
        <time>2010-01-01T00:49:04Z</time>
      </trkpt>
      <trkpt lat="41.19458030" lon="0.921574831">
        <ele>563.00000</ele>
        <time>2010-01-01T00:49:08Z</time>
      </trkpt>
      <trkpt lat="41.19453186" lon="0.921639204">
        <ele>565.00000</ele>
        <time>2010-01-01T00:49:11Z</time>
      </trkpt>
      <trkpt lat="41.19448342" lon="0.921692848">
        <ele>567.00000</ele>
        <time>2010-01-01T00:49:13Z</time>
      </trkpt>
      <trkpt lat="41.19443095" lon="0.921751856">
        <ele>569.00000</ele>
        <time>2010-01-01T00:49:16Z</time>
      </trkpt>
      <trkpt lat="41.19437847" lon="0.921816229">
        <ele>572.00000</ele>
        <time>2010-01-01T00:49:19Z</time>
      </trkpt>
      <trkpt lat="41.19432599" lon="0.921891331">
        <ele>574.00000</ele>
        <time>2010-01-01T00:49:22Z</time>
      </trkpt>
      <trkpt lat="41.19425333" lon="0.921955704">
        <ele>576.00000</ele>
        <time>2010-01-01T00:49:25Z</time>
      </trkpt>
      <trkpt lat="41.19418471" lon="0.922036170">
        <ele>577.00000</ele>
        <time>2010-01-01T00:49:29Z</time>
      </trkpt>
      <trkpt lat="41.19414435" lon="0.922143459">
        <ele>579.00000</ele>
        <time>2010-01-01T00:49:33Z</time>
      </trkpt>
      <trkpt lat="41.19414435" lon="0.922272205">
        <ele>580.00000</ele>
        <time>2010-01-01T00:49:36Z</time>
      </trkpt>
      <trkpt lat="41.19418471" lon="0.922352671">
        <ele>581.00000</ele>
        <time>2010-01-01T00:49:39Z</time>
      </trkpt>
      <trkpt lat="41.19424526" lon="0.922427773">
        <ele>582.00000</ele>
        <time>2010-01-01T00:49:43Z</time>
      </trkpt>
      <trkpt lat="41.19432196" lon="0.922465324">
        <ele>581.00000</ele>
        <time>2010-01-01T00:49:46Z</time>
      </trkpt>
      <trkpt lat="41.19439058" lon="0.922551155">
        <ele>582.00000</ele>
        <time>2010-01-01T00:49:50Z</time>
      </trkpt>
      <trkpt lat="41.19445517" lon="0.922610163">
        <ele>583.00000</ele>
        <time>2010-01-01T00:49:53Z</time>
      </trkpt>
      <trkpt lat="41.19453993" lon="0.922679901">
        <ele>583.00000</ele>
        <time>2010-01-01T00:49:57Z</time>
      </trkpt>
      <trkpt lat="41.19460856" lon="0.922738909">
        <ele>583.00000</ele>
        <time>2010-01-01T00:50:00Z</time>
      </trkpt>
      <trkpt lat="41.19464085" lon="0.922814011">
        <ele>584.00000</ele>
        <time>2010-01-01T00:50:03Z</time>
      </trkpt>
      <trkpt lat="41.19464892" lon="0.922937393">
        <ele>587.00000</ele>
        <time>2010-01-01T00:50:06Z</time>
      </trkpt>
      <trkpt lat="41.19465700" lon="0.923055410">
        <ele>589.00000</ele>
        <time>2010-01-01T00:50:10Z</time>
      </trkpt>
      <trkpt lat="41.19467718" lon="0.923157334">
        <ele>590.00000</ele>
        <time>2010-01-01T00:50:13Z</time>
      </trkpt>
      <trkpt lat="41.19470543" lon="0.923312902">
        <ele>591.00000</ele>
        <time>2010-01-01T00:50:18Z</time>
      </trkpt>
      <trkpt lat="41.19473369" lon="0.923441648">
        <ele>590.00000</ele>
        <time>2010-01-01T00:50:22Z</time>
      </trkpt>
      <trkpt lat="41.19473369" lon="0.923575758">
        <ele>591.00000</ele>
        <time>2010-01-01T00:50:26Z</time>
      </trkpt>
      <trkpt lat="41.19471351" lon="0.923709869">
        <ele>592.00000</ele>
        <time>2010-01-01T00:50:30Z</time>
      </trkpt>
      <trkpt lat="41.19468525" lon="0.923860073">
        <ele>595.00000</ele>
        <time>2010-01-01T00:50:35Z</time>
      </trkpt>
      <trkpt lat="41.19466911" lon="0.923951268">
        <ele>597.00000</ele>
        <time>2010-01-01T00:50:38Z</time>
      </trkpt>
      <trkpt lat="41.19464892" lon="0.924080014">
        <ele>600.00000</ele>
        <time>2010-01-01T00:50:42Z</time>
      </trkpt>
      <trkpt lat="41.19464085" lon="0.924192667">
        <ele>601.00000</ele>
        <time>2010-01-01T00:50:45Z</time>
      </trkpt>
      <trkpt lat="41.19464085" lon="0.924294590">
        <ele>602.00000</ele>
        <time>2010-01-01T00:50:48Z</time>
      </trkpt>
      <trkpt lat="41.19462470" lon="0.924439430">
        <ele>605.00000</ele>
        <time>2010-01-01T00:50:53Z</time>
      </trkpt>
      <trkpt lat="41.19463681" lon="0.924573540">
        <ele>606.00000</ele>
        <time>2010-01-01T00:50:57Z</time>
      </trkpt>
      <trkpt lat="41.19464892" lon="0.924691557">
        <ele>606.00000</ele>
        <time>2010-01-01T00:51:00Z</time>
      </trkpt>
      <trkpt lat="41.19466103" lon="0.924814939">
        <ele>607.00000</ele>
        <time>2010-01-01T00:51:04Z</time>
      </trkpt>
      <trkpt lat="41.19469333" lon="0.924906134">
        <ele>607.00000</ele>
        <time>2010-01-01T00:51:07Z</time>
      </trkpt>
      <trkpt lat="41.19477002" lon="0.924900770">
        <ele>606.00000</ele>
        <time>2010-01-01T00:51:10Z</time>
      </trkpt>
      <trkpt lat="41.19483864" lon="0.924804210">
        <ele>605.00000</ele>
        <time>2010-01-01T00:51:14Z</time>
      </trkpt>
      <trkpt lat="41.19490726" lon="0.924718379">
        <ele>603.00000</ele>
        <time>2010-01-01T00:51:18Z</time>
      </trkpt>
      <trkpt lat="41.19496781" lon="0.924654006">
        <ele>601.00000</ele>
        <time>2010-01-01T00:51:21Z</time>
      </trkpt>
      <trkpt lat="41.19500818" lon="0.924573540">
        <ele>599.00000</ele>
        <time>2010-01-01T00:51:24Z</time>
      </trkpt>
      <trkpt lat="41.19507680" lon="0.924498438">
        <ele>596.00000</ele>
        <time>2010-01-01T00:51:27Z</time>
      </trkpt>
      <trkpt lat="41.19514139" lon="0.924460887">
        <ele>595.00000</ele>
        <time>2010-01-01T00:51:30Z</time>
      </trkpt>
      <trkpt lat="41.19521001" lon="0.924423336">
        <ele>593.00000</ele>
        <time>2010-01-01T00:51:33Z</time>
      </trkpt>
      <trkpt lat="41.19527863" lon="0.924412608">
        <ele>592.00000</ele>
        <time>2010-01-01T00:51:36Z</time>
      </trkpt>
      <trkpt lat="41.19535936" lon="0.924439430">
        <ele>592.00000</ele>
        <time>2010-01-01T00:51:39Z</time>
      </trkpt>
      <trkpt lat="41.19544009" lon="0.924476981">
        <ele>593.00000</ele>
        <time>2010-01-01T00:51:43Z</time>
      </trkpt>
      <trkpt lat="41.19552890" lon="0.924509167">
        <ele>593.00000</ele>
        <time>2010-01-01T00:51:46Z</time>
      </trkpt>
      <trkpt lat="41.19559348" lon="0.924535989">
        <ele>593.00000</ele>
        <time>2010-01-01T00:51:49Z</time>
      </trkpt>
      <trkpt lat="41.19565403" lon="0.924568176">
        <ele>593.00000</ele>
        <time>2010-01-01T00:51:52Z</time>
      </trkpt>
      <trkpt lat="41.19571458" lon="0.924605727">
        <ele>592.00000</ele>
        <time>2010-01-01T00:51:54Z</time>
      </trkpt>
      <trkpt lat="41.19574687" lon="0.924664735">
        <ele>593.00000</ele>
        <time>2010-01-01T00:51:57Z</time>
      </trkpt>
      <trkpt lat="41.19578320" lon="0.924755930">
        <ele>594.00000</ele>
        <time>2010-01-01T00:52:00Z</time>
      </trkpt>
      <trkpt lat="41.19579531" lon="0.924836397">
        <ele>595.00000</ele>
        <time>2010-01-01T00:52:02Z</time>
      </trkpt>
      <trkpt lat="41.19579531" lon="0.924949049">
        <ele>598.00000</ele>
        <time>2010-01-01T00:52:06Z</time>
      </trkpt>
      <trkpt lat="41.19577512" lon="0.925034880">
        <ele>601.00000</ele>
        <time>2010-01-01T00:52:08Z</time>
      </trkpt>
      <trkpt lat="41.19576301" lon="0.925152897">
        <ele>604.00000</ele>
        <time>2010-01-01T00:52:12Z</time>
      </trkpt>
      <trkpt lat="41.19578320" lon="0.925254821">
        <ele>605.00000</ele>
        <time>2010-01-01T00:52:15Z</time>
      </trkpt>
      <trkpt lat="41.19580338" lon="0.925351381">
        <ele>606.00000</ele>
        <time>2010-01-01T00:52:18Z</time>
      </trkpt>
      <trkpt lat="41.19582760" lon="0.925480127">
        <ele>608.00000</ele>
        <time>2010-01-01T00:52:22Z</time>
      </trkpt>
      <trkpt lat="41.19588007" lon="0.925603508">
        <ele>609.00000</ele>
        <time>2010-01-01T00:52:26Z</time>
      </trkpt>
      <trkpt lat="41.19593658" lon="0.925710797">
        <ele>611.00000</ele>
        <time>2010-01-01T00:52:30Z</time>
      </trkpt>
      <trkpt lat="41.19600924" lon="0.925801992">
        <ele>612.00000</ele>
        <time>2010-01-01T00:52:34Z</time>
      </trkpt>
      <trkpt lat="41.19607786" lon="0.925775170">
        <ele>610.00000</ele>
        <time>2010-01-01T00:52:37Z</time>
      </trkpt>
      <trkpt lat="41.19612226" lon="0.925694704">
        <ele>609.00000</ele>
        <time>2010-01-01T00:52:40Z</time>
      </trkpt>
      <trkpt lat="41.19614245" lon="0.925592780">
        <ele>607.00000</ele>
        <time>2010-01-01T00:52:43Z</time>
      </trkpt>
      <trkpt lat="41.19615456" lon="0.925512313">
        <ele>606.00000</ele>
        <time>2010-01-01T00:52:46Z</time>
      </trkpt>
      <trkpt lat="41.19620299" lon="0.925415754">
        <ele>605.00000</ele>
        <time>2010-01-01T00:52:49Z</time>
      </trkpt>
      <trkpt lat="41.19625547" lon="0.925340652">
        <ele>605.00000</ele>
        <time>2010-01-01T00:52:52Z</time>
      </trkpt>
      <trkpt lat="41.19632005" lon="0.925313830">
        <ele>606.00000</ele>
        <time>2010-01-01T00:52:55Z</time>
      </trkpt>
      <trkpt lat="41.19640886" lon="0.925313830">
        <ele>608.00000</ele>
        <time>2010-01-01T00:52:59Z</time>
      </trkpt>
      <trkpt lat="41.19655821" lon="0.925394296">
        <ele>613.00000</ele>
        <time>2010-01-01T00:53:05Z</time>
      </trkpt>
      <trkpt lat="41.19661472" lon="0.925421118">
        <ele>615.00000</ele>
        <time>2010-01-01T00:53:07Z</time>
      </trkpt>
      <trkpt lat="41.19668737" lon="0.925437211">
        <ele>617.00000</ele>
        <time>2010-01-01T00:53:10Z</time>
      </trkpt>
      <trkpt lat="41.19676407" lon="0.925415754">
        <ele>620.00000</ele>
        <time>2010-01-01T00:53:14Z</time>
      </trkpt>
      <trkpt lat="41.19678021" lon="0.925517678">
        <ele>620.00000</ele>
        <time>2010-01-01T00:53:17Z</time>
      </trkpt>
      <trkpt lat="41.19672370" lon="0.925598144">
        <ele>619.00000</ele>
        <time>2010-01-01T00:53:20Z</time>
      </trkpt>
      <trkpt lat="41.19671563" lon="0.925737619">
        <ele>620.00000</ele>
        <time>2010-01-01T00:53:24Z</time>
      </trkpt>
      <trkpt lat="41.19674388" lon="0.925866365">
        <ele>622.00000</ele>
        <time>2010-01-01T00:53:28Z</time>
      </trkpt>
      <trkpt lat="41.19678828" lon="0.925925374">
        <ele>624.00000</ele>
        <time>2010-01-01T00:53:31Z</time>
      </trkpt>
      <trkpt lat="41.19683269" lon="0.926000475">
        <ele>625.00000</ele>
        <time>2010-01-01T00:53:34Z</time>
      </trkpt>
      <trkpt lat="41.19688920" lon="0.926091670">
        <ele>627.00000</ele>
        <time>2010-01-01T00:53:37Z</time>
      </trkpt>
      <trkpt lat="41.19696993" lon="0.926172137">
        <ele>631.00000</ele>
        <time>2010-01-01T00:53:41Z</time>
      </trkpt>
      <trkpt lat="41.19703451" lon="0.926231145">
        <ele>634.00000</ele>
        <time>2010-01-01T00:53:44Z</time>
      </trkpt>
      <trkpt lat="41.19707487" lon="0.926300883">
        <ele>637.00000</ele>
        <time>2010-01-01T00:53:47Z</time>
      </trkpt>
      <trkpt lat="41.19712331" lon="0.926386713">
        <ele>639.00000</ele>
        <time>2010-01-01T00:53:50Z</time>
      </trkpt>
      <trkpt lat="41.19717578" lon="0.926504731">
        <ele>642.00000</ele>
        <time>2010-01-01T00:53:54Z</time>
      </trkpt>
      <trkpt lat="41.19720808" lon="0.926612019">
        <ele>644.00000</ele>
        <time>2010-01-01T00:53:58Z</time>
      </trkpt>
      <trkpt lat="41.19723229" lon="0.926762223">
        <ele>646.00000</ele>
        <time>2010-01-01T00:54:03Z</time>
      </trkpt>
      <trkpt lat="41.19724037" lon="0.926880240">
        <ele>647.00000</ele>
        <time>2010-01-01T00:54:06Z</time>
      </trkpt>
      <trkpt lat="41.19723229" lon="0.926987528">
        <ele>647.00000</ele>
        <time>2010-01-01T00:54:09Z</time>
      </trkpt>
      <trkpt lat="41.19722019" lon="0.927094817">
        <ele>648.00000</ele>
        <time>2010-01-01T00:54:13Z</time>
      </trkpt>
      <trkpt lat="41.19719193" lon="0.927202105">
        <ele>648.00000</ele>
        <time>2010-01-01T00:54:16Z</time>
      </trkpt>
      <trkpt lat="41.19718789" lon="0.927320122">
        <ele>651.00000</ele>
        <time>2010-01-01T00:54:20Z</time>
      </trkpt>
      <trkpt lat="41.19723633" lon="0.927341580">
        <ele>652.00000</ele>
        <time>2010-01-01T00:54:22Z</time>
      </trkpt>
      <trkpt lat="41.19726459" lon="0.927277207">
        <ele>651.00000</ele>
        <time>2010-01-01T00:54:24Z</time>
      </trkpt>
      <trkpt lat="41.19728880" lon="0.927207469">
        <ele>651.00000</ele>
        <time>2010-01-01T00:54:26Z</time>
      </trkpt>
      <trkpt lat="41.19731706" lon="0.927127003">
        <ele>651.00000</ele>
        <time>2010-01-01T00:54:29Z</time>
      </trkpt>
      <trkpt lat="41.19734531" lon="0.927030444">
        <ele>652.00000</ele>
        <time>2010-01-01T00:54:32Z</time>
      </trkpt>
      <trkpt lat="41.19737357" lon="0.926944613">
        <ele>652.00000</ele>
        <time>2010-01-01T00:54:35Z</time>
      </trkpt>
      <trkpt lat="41.19739375" lon="0.926853418">
        <ele>652.00000</ele>
        <time>2010-01-01T00:54:38Z</time>
      </trkpt>
      <trkpt lat="41.19742604" lon="0.926772952">
        <ele>654.00000</ele>
        <time>2010-01-01T00:54:40Z</time>
      </trkpt>
      <trkpt lat="41.19747448" lon="0.926703214">
        <ele>655.00000</ele>
        <time>2010-01-01T00:54:43Z</time>
      </trkpt>
      <trkpt lat="41.19751888" lon="0.926628112">
        <ele>657.00000</ele>
        <time>2010-01-01T00:54:46Z</time>
      </trkpt>
      <trkpt lat="41.19755925" lon="0.926579833">
        <ele>659.00000</ele>
        <time>2010-01-01T00:54:48Z</time>
      </trkpt>
      <trkpt lat="41.19755117" lon="0.926510095">
        <ele>658.00000</ele>
        <time>2010-01-01T00:54:50Z</time>
      </trkpt>
      <trkpt lat="41.19753099" lon="0.926402807">
        <ele>656.00000</ele>
        <time>2010-01-01T00:54:54Z</time>
      </trkpt>
      <trkpt lat="41.19751888" lon="0.926300883">
        <ele>655.00000</ele>
        <time>2010-01-01T00:54:57Z</time>
      </trkpt>
      <trkpt lat="41.19749063" lon="0.926188230">
        <ele>654.00000</ele>
        <time>2010-01-01T00:55:00Z</time>
      </trkpt>
      <trkpt lat="41.19747044" lon="0.926091670">
        <ele>653.00000</ele>
        <time>2010-01-01T00:55:03Z</time>
      </trkpt>
      <trkpt lat="41.19745026" lon="0.925984382">
        <ele>652.00000</ele>
        <time>2010-01-01T00:55:07Z</time>
      </trkpt>
      <trkpt lat="41.19748255" lon="0.925930738">
        <ele>653.00000</ele>
        <time>2010-01-01T00:55:09Z</time>
      </trkpt>
      <trkpt lat="41.19753906" lon="0.925930738">
        <ele>656.00000</ele>
        <time>2010-01-01T00:55:11Z</time>
      </trkpt>
      <trkpt lat="41.19756732" lon="0.925989747">
        <ele>657.00000</ele>
        <time>2010-01-01T00:55:13Z</time>
      </trkpt>
      <trkpt lat="41.19759557" lon="0.926075577">
        <ele>659.00000</ele>
        <time>2010-01-01T00:55:16Z</time>
      </trkpt>
      <trkpt lat="41.19763997" lon="0.926166772">
        <ele>661.00000</ele>
        <time>2010-01-01T00:55:19Z</time>
      </trkpt>
      <trkpt lat="41.19767226" lon="0.926236510">
        <ele>663.00000</ele>
        <time>2010-01-01T00:55:22Z</time>
      </trkpt>
      <trkpt lat="41.19770859" lon="0.926300883">
        <ele>665.00000</ele>
        <time>2010-01-01T00:55:24Z</time>
      </trkpt>
      <trkpt lat="41.19773685" lon="0.926365256">
        <ele>666.00000</ele>
        <time>2010-01-01T00:55:26Z</time>
      </trkpt>
      <trkpt lat="41.19777317" lon="0.926440358">
        <ele>668.00000</ele>
        <time>2010-01-01T00:55:29Z</time>
      </trkpt>
      <trkpt lat="41.19781758" lon="0.926499366">
        <ele>670.00000</ele>
        <time>2010-01-01T00:55:32Z</time>
      </trkpt>
      <trkpt lat="41.19785390" lon="0.926595926">
        <ele>672.00000</ele>
        <time>2010-01-01T00:55:35Z</time>
      </trkpt>
      <trkpt lat="41.19787812" lon="0.926671028">
        <ele>673.00000</ele>
        <time>2010-01-01T00:55:37Z</time>
      </trkpt>
      <trkpt lat="41.19787409" lon="0.926783680">
        <ele>674.00000</ele>
        <time>2010-01-01T00:55:41Z</time>
      </trkpt>
      <trkpt lat="41.19784987" lon="0.926858782">
        <ele>673.00000</ele>
        <time>2010-01-01T00:55:43Z</time>
      </trkpt>
      <trkpt lat="41.19782565" lon="0.926944613">
        <ele>673.00000</ele>
        <time>2010-01-01T00:55:46Z</time>
      </trkpt>
      <trkpt lat="41.19779336" lon="0.927014350">
        <ele>671.00000</ele>
        <time>2010-01-01T00:55:48Z</time>
      </trkpt>
      <trkpt lat="41.19777317" lon="0.927100181">
        <ele>671.00000</ele>
        <time>2010-01-01T00:55:51Z</time>
      </trkpt>
      <trkpt lat="41.19779739" lon="0.927137732">
        <ele>672.00000</ele>
        <time>2010-01-01T00:55:53Z</time>
      </trkpt>
      <trkpt lat="41.19783372" lon="0.927105545">
        <ele>674.00000</ele>
        <time>2010-01-01T00:55:54Z</time>
      </trkpt>
      <trkpt lat="41.19787005" lon="0.927067995">
        <ele>675.00000</ele>
        <time>2010-01-01T00:55:56Z</time>
      </trkpt>
      <trkpt lat="41.19789830" lon="0.927025079">
        <ele>676.00000</ele>
        <time>2010-01-01T00:55:58Z</time>
      </trkpt>
      <trkpt lat="41.19794674" lon="0.926976799">
        <ele>678.00000</ele>
        <time>2010-01-01T00:56:00Z</time>
      </trkpt>
      <trkpt lat="41.19799114" lon="0.926917791">
        <ele>679.00000</ele>
        <time>2010-01-01T00:56:03Z</time>
      </trkpt>
      <trkpt lat="41.19803150" lon="0.926880240">
        <ele>681.00000</ele>
        <time>2010-01-01T00:56:05Z</time>
      </trkpt>
      <trkpt lat="41.19807187" lon="0.926805138">
        <ele>682.00000</ele>
        <time>2010-01-01T00:56:08Z</time>
      </trkpt>
      <trkpt lat="41.19812030" lon="0.926724672">
        <ele>683.00000</ele>
        <time>2010-01-01T00:56:11Z</time>
      </trkpt>
      <trkpt lat="41.19815663" lon="0.926660299">
        <ele>684.00000</ele>
        <time>2010-01-01T00:56:13Z</time>
      </trkpt>
      <trkpt lat="41.19820103" lon="0.926590561">
        <ele>685.00000</ele>
        <time>2010-01-01T00:56:16Z</time>
      </trkpt>
      <trkpt lat="41.19822929" lon="0.926499366">
        <ele>685.00000</ele>
        <time>2010-01-01T00:56:19Z</time>
      </trkpt>
      <trkpt lat="41.19824947" lon="0.926402807">
        <ele>685.00000</ele>
        <time>2010-01-01T00:56:22Z</time>
      </trkpt>
      <trkpt lat="41.19824140" lon="0.926333069">
        <ele>684.00000</ele>
        <time>2010-01-01T00:56:24Z</time>
      </trkpt>
      <trkpt lat="41.19822929" lon="0.926220417">
        <ele>683.00000</ele>
        <time>2010-01-01T00:56:27Z</time>
      </trkpt>
      <trkpt lat="41.19822525" lon="0.926107764">
        <ele>683.00000</ele>
        <time>2010-01-01T00:56:31Z</time>
      </trkpt>
      <trkpt lat="41.19824543" lon="0.925989747">
        <ele>681.00000</ele>
        <time>2010-01-01T00:56:35Z</time>
      </trkpt>
      <trkpt lat="41.19830194" lon="0.925936102">
        <ele>681.00000</ele>
        <time>2010-01-01T00:56:37Z</time>
      </trkpt>
      <trkpt lat="41.19836249" lon="0.925903916">
        <ele>680.00000</ele>
        <time>2010-01-01T00:56:40Z</time>
      </trkpt>
      <trkpt lat="41.19843111" lon="0.925877094">
        <ele>680.00000</ele>
        <time>2010-01-01T00:56:43Z</time>
      </trkpt>
      <trkpt lat="41.19850376" lon="0.925844907">
        <ele>680.00000</ele>
        <time>2010-01-01T00:56:46Z</time>
      </trkpt>
      <trkpt lat="41.19857238" lon="0.925818085">
        <ele>680.00000</ele>
        <time>2010-01-01T00:56:49Z</time>
      </trkpt>
      <trkpt lat="41.19864100" lon="0.925807356">
        <ele>679.00000</ele>
        <time>2010-01-01T00:56:51Z</time>
      </trkpt>
      <trkpt lat="41.19870961" lon="0.925823450">
        <ele>679.00000</ele>
        <time>2010-01-01T00:56:54Z</time>
      </trkpt>
      <trkpt lat="41.19874998" lon="0.925887823">
        <ele>680.00000</ele>
        <time>2010-01-01T00:56:57Z</time>
      </trkpt>
      <trkpt lat="41.19874191" lon="0.925973653">
        <ele>681.00000</ele>
        <time>2010-01-01T00:56:59Z</time>
      </trkpt>
      <trkpt lat="41.19872172" lon="0.926059484">
        <ele>682.00000</ele>
        <time>2010-01-01T00:57:02Z</time>
      </trkpt>
      <trkpt lat="41.19870961" lon="0.926182866">
        <ele>684.00000</ele>
        <time>2010-01-01T00:57:06Z</time>
      </trkpt>
      <trkpt lat="41.19870154" lon="0.926263332">
        <ele>685.00000</ele>
        <time>2010-01-01T00:57:08Z</time>
      </trkpt>
      <trkpt lat="41.19870154" lon="0.926343798">
        <ele>686.00000</ele>
        <time>2010-01-01T00:57:11Z</time>
      </trkpt>
      <trkpt lat="41.19874594" lon="0.926461815">
        <ele>689.00000</ele>
        <time>2010-01-01T00:57:15Z</time>
      </trkpt>
      <trkpt lat="41.19881052" lon="0.926510095">
        <ele>690.00000</ele>
        <time>2010-01-01T00:57:18Z</time>
      </trkpt>
      <trkpt lat="41.19887107" lon="0.926536917">
        <ele>690.00000</ele>
        <time>2010-01-01T00:57:20Z</time>
      </trkpt>
      <trkpt lat="41.19893161" lon="0.926574468">
        <ele>691.00000</ele>
        <time>2010-01-01T00:57:23Z</time>
      </trkpt>
      <trkpt lat="41.19900427" lon="0.926601290">
        <ele>691.00000</ele>
        <time>2010-01-01T00:57:26Z</time>
      </trkpt>
      <trkpt lat="41.19905270" lon="0.926622748">
        <ele>692.00000</ele>
        <time>2010-01-01T00:57:28Z</time>
      </trkpt>
      <trkpt lat="41.19911728" lon="0.926633477">
        <ele>691.00000</ele>
        <time>2010-01-01T00:57:31Z</time>
      </trkpt>
      <trkpt lat="41.19917379" lon="0.926644206">
        <ele>691.00000</ele>
        <time>2010-01-01T00:57:33Z</time>
      </trkpt>
      <trkpt lat="41.19923030" lon="0.926649570">
        <ele>690.00000</ele>
        <time>2010-01-01T00:57:35Z</time>
      </trkpt>
      <trkpt lat="41.19927874" lon="0.926665663">
        <ele>690.00000</ele>
        <time>2010-01-01T00:57:37Z</time>
      </trkpt>
      <trkpt lat="41.19932314" lon="0.926697850">
        <ele>691.00000</ele>
        <time>2010-01-01T00:57:39Z</time>
      </trkpt>
      <trkpt lat="41.19937157" lon="0.926740765">
        <ele>692.00000</ele>
        <time>2010-01-01T00:57:41Z</time>
      </trkpt>
      <trkpt lat="41.19940790" lon="0.926799774">
        <ele>693.00000</ele>
        <time>2010-01-01T00:57:44Z</time>
      </trkpt>
      <trkpt lat="41.19946441" lon="0.926864147">
        <ele>694.00000</ele>
        <time>2010-01-01T00:57:47Z</time>
      </trkpt>
      <trkpt lat="41.19950881" lon="0.926912426">
        <ele>695.00000</ele>
        <time>2010-01-01T00:57:49Z</time>
      </trkpt>
      <trkpt lat="41.19953706" lon="0.926960706">
        <ele>697.00000</ele>
        <time>2010-01-01T00:57:51Z</time>
      </trkpt>
      <trkpt lat="41.19955321" lon="0.927030444">
        <ele>699.00000</ele>
        <time>2010-01-01T00:57:53Z</time>
      </trkpt>
      <trkpt lat="41.19957742" lon="0.927089452">
        <ele>700.00000</ele>
        <time>2010-01-01T00:57:55Z</time>
      </trkpt>
      <trkpt lat="41.19960971" lon="0.927164554">
        <ele>702.00000</ele>
        <time>2010-01-01T00:57:58Z</time>
      </trkpt>
      <trkpt lat="41.19963797" lon="0.927239656">
        <ele>704.00000</ele>
        <time>2010-01-01T00:58:00Z</time>
      </trkpt>
      <trkpt lat="41.19968640" lon="0.927266478">
        <ele>704.00000</ele>
        <time>2010-01-01T00:58:02Z</time>
      </trkpt>
      <trkpt lat="41.19973080" lon="0.927287936">
        <ele>704.00000</ele>
        <time>2010-01-01T00:58:04Z</time>
      </trkpt>
      <trkpt lat="41.19980346" lon="0.927293300">
        <ele>703.00000</ele>
        <time>2010-01-01T00:58:07Z</time>
      </trkpt>
      <trkpt lat="41.19984785" lon="0.927298665">
        <ele>703.00000</ele>
        <time>2010-01-01T00:58:09Z</time>
      </trkpt>
      <trkpt lat="41.19991647" lon="0.927304029">
        <ele>703.00000</ele>
        <time>2010-01-01T00:58:12Z</time>
      </trkpt>
      <trkpt lat="41.19999316" lon="0.927309393">
        <ele>702.00000</ele>
        <time>2010-01-01T00:58:15Z</time>
      </trkpt>
      <trkpt lat="41.20004563" lon="0.927325487">
        <ele>702.00000</ele>
        <time>2010-01-01T00:58:17Z</time>
      </trkpt>
      <trkpt lat="41.20010214" lon="0.927352309">
        <ele>703.00000</ele>
        <time>2010-01-01T00:58:19Z</time>
      </trkpt>
      <trkpt lat="41.20015461" lon="0.927400588">
        <ele>704.00000</ele>
        <time>2010-01-01T00:58:22Z</time>
      </trkpt>
      <trkpt lat="41.20020305" lon="0.927443504">
        <ele>706.00000</ele>
        <time>2010-01-01T00:58:24Z</time>
      </trkpt>
      <trkpt lat="41.20025955" lon="0.927481055">
        <ele>707.00000</ele>
        <time>2010-01-01T00:58:27Z</time>
      </trkpt>
      <trkpt lat="41.20033624" lon="0.927502512">
        <ele>707.00000</ele>
        <time>2010-01-01T00:58:30Z</time>
      </trkpt>
      <trkpt lat="41.20037660" lon="0.927475690">
        <ele>705.00000</ele>
        <time>2010-01-01T00:58:32Z</time>
      </trkpt>
      <trkpt lat="41.20047347" lon="0.927491784">
        <ele>704.00000</ele>
        <time>2010-01-01T00:58:36Z</time>
      </trkpt>
      <trkpt lat="41.20057034" lon="0.927518606">
        <ele>703.00000</ele>
        <time>2010-01-01T00:58:40Z</time>
      </trkpt>
      <trkpt lat="41.20063089" lon="0.927561521">
        <ele>704.00000</ele>
        <time>2010-01-01T00:58:42Z</time>
      </trkpt>
      <trkpt lat="41.20069143" lon="0.927599072">
        <ele>705.00000</ele>
        <time>2010-01-01T00:58:45Z</time>
      </trkpt>
      <trkpt lat="41.20074794" lon="0.927620530">
        <ele>705.00000</ele>
        <time>2010-01-01T00:58:47Z</time>
      </trkpt>
      <trkpt lat="41.20080445" lon="0.927641987">
        <ele>705.00000</ele>
        <time>2010-01-01T00:58:50Z</time>
      </trkpt>
      <trkpt lat="41.20086902" lon="0.927652716">
        <ele>705.00000</ele>
        <time>2010-01-01T00:58:52Z</time>
      </trkpt>
      <trkpt lat="41.20093360" lon="0.927647352">
        <ele>705.00000</ele>
        <time>2010-01-01T00:58:55Z</time>
      </trkpt>
      <trkpt lat="41.20100222" lon="0.927625894">
        <ele>705.00000</ele>
        <time>2010-01-01T00:58:58Z</time>
      </trkpt>
      <trkpt lat="41.20105469" lon="0.927588343">
        <ele>704.00000</ele>
        <time>2010-01-01T00:59:00Z</time>
      </trkpt>
      <trkpt lat="41.20111523" lon="0.927556157">
        <ele>703.00000</ele>
        <time>2010-01-01T00:59:03Z</time>
      </trkpt>
      <trkpt lat="41.20117981" lon="0.927572250">
        <ele>704.00000</ele>
        <time>2010-01-01T00:59:05Z</time>
      </trkpt>
      <trkpt lat="41.20124439" lon="0.927582979">
        <ele>704.00000</ele>
        <time>2010-01-01T00:59:08Z</time>
      </trkpt>
      <trkpt lat="41.20131704" lon="0.927566885">
        <ele>704.00000</ele>
        <time>2010-01-01T00:59:11Z</time>
      </trkpt>
      <trkpt lat="41.20138566" lon="0.927523970">
        <ele>703.00000</ele>
        <time>2010-01-01T00:59:14Z</time>
      </trkpt>
      <trkpt lat="41.20143006" lon="0.927470326">
        <ele>702.00000</ele>
        <time>2010-01-01T00:59:16Z</time>
      </trkpt>
      <trkpt lat="41.20148253" lon="0.927443504">
        <ele>701.00000</ele>
        <time>2010-01-01T00:59:19Z</time>
      </trkpt>
      <trkpt lat="41.20153903" lon="0.927411317">
        <ele>700.00000</ele>
        <time>2010-01-01T00:59:21Z</time>
      </trkpt>
      <trkpt lat="41.20159958" lon="0.927368402">
        <ele>699.00000</ele>
        <time>2010-01-01T00:59:24Z</time>
      </trkpt>
      <trkpt lat="41.20166819" lon="0.927330851">
        <ele>698.00000</ele>
        <time>2010-01-01T00:59:27Z</time>
      </trkpt>
      <trkpt lat="41.20172470" lon="0.927304029">
        <ele>697.00000</ele>
        <time>2010-01-01T00:59:29Z</time>
      </trkpt>
      <trkpt lat="41.20178524" lon="0.927293300">
        <ele>696.00000</ele>
        <time>2010-01-01T00:59:32Z</time>
      </trkpt>
      <trkpt lat="41.20184982" lon="0.927287936">
        <ele>696.00000</ele>
        <time>2010-01-01T00:59:34Z</time>
      </trkpt>
      <trkpt lat="41.20191843" lon="0.927255749">
        <ele>695.00000</ele>
        <time>2010-01-01T00:59:37Z</time>
      </trkpt>
      <trkpt lat="41.20198301" lon="0.927271842">
        <ele>696.00000</ele>
        <time>2010-01-01T00:59:40Z</time>
      </trkpt>
      <trkpt lat="41.20204355" lon="0.927298665">
        <ele>697.00000</ele>
        <time>2010-01-01T00:59:42Z</time>
      </trkpt>
      <trkpt lat="41.20208391" lon="0.927314758">
        <ele>697.00000</ele>
        <time>2010-01-01T00:59:44Z</time>
      </trkpt>
      <trkpt lat="41.20213235" lon="0.927352309">
        <ele>698.00000</ele>
        <time>2010-01-01T00:59:46Z</time>
      </trkpt>
      <trkpt lat="41.20219693" lon="0.927400588">
        <ele>698.00000</ele>
        <time>2010-01-01T00:59:49Z</time>
      </trkpt>
      <trkpt lat="41.20224940" lon="0.927432775">
        <ele>698.00000</ele>
        <time>2010-01-01T00:59:51Z</time>
      </trkpt>
      <trkpt lat="41.20228572" lon="0.927470326">
        <ele>698.00000</ele>
        <time>2010-01-01T00:59:53Z</time>
      </trkpt>
      <trkpt lat="41.20228572" lon="0.927534699">
        <ele>698.00000</ele>
        <time>2010-01-01T00:00:00Z</time>
      </trkpt>
      <trkpt lat="41.20233600" lon="0.928063000">
        <ele>696.00000</ele>
        <time>2010-01-01T00:00:16Z</time>
      </trkpt>
      <trkpt lat="41.20228900" lon="0.928260000">
        <ele>695.00000</ele>
        <time>2010-01-01T00:00:22Z</time>
      </trkpt>
      <trkpt lat="41.20218100" lon="0.928438000">
        <ele>696.00000</ele>
        <time>2010-01-01T00:00:29Z</time>
      </trkpt>
      <trkpt lat="41.20208200" lon="0.928660000">
        <ele>696.00000</ele>
        <time>2010-01-01T00:00:36Z</time>
      </trkpt>
      <trkpt lat="41.20163900" lon="0.928969000">
        <ele>705.00000</ele>
        <time>2010-01-01T00:00:56Z</time>
      </trkpt>
      <trkpt lat="41.20146200" lon="0.928924000">
        <ele>709.00000</ele>
        <time>2010-01-01T00:01:04Z</time>
      </trkpt>
      <trkpt lat="41.20119000" lon="0.928937000">
        <ele>710.00000</ele>
        <time>2010-01-01T00:01:15Z</time>
      </trkpt>
      <trkpt lat="41.20068000" lon="0.928859000">
        <ele>716.00000</ele>
        <time>2010-01-01T00:01:35Z</time>
      </trkpt>
      <trkpt lat="41.20058500" lon="0.928853000">
        <ele>718.00000</ele>
        <time>2010-01-01T00:01:39Z</time>
      </trkpt>
      <trkpt lat="41.20021600" lon="0.929152000">
        <ele>717.00000</ele>
        <time>2010-01-01T00:01:56Z</time>
      </trkpt>
      <trkpt lat="41.19997300" lon="0.929694000">
        <ele>717.00000</ele>
        <time>2010-01-01T00:02:15Z</time>
      </trkpt>
      <trkpt lat="41.19995000" lon="0.929796000">
        <ele>717.00000</ele>
        <time>2010-01-01T00:02:18Z</time>
      </trkpt>
      <trkpt lat="41.19971100" lon="0.930581000">
        <ele>723.00000</ele>
        <time>2010-01-01T00:02:44Z</time>
      </trkpt>
      <trkpt lat="41.19962000" lon="0.930819000">
        <ele>728.00000</ele>
        <time>2010-01-01T00:02:52Z</time>
      </trkpt>
      <trkpt lat="41.19986500" lon="0.931043000">
        <ele>720.00000</ele>
        <time>2010-01-01T00:03:04Z</time>
      </trkpt>
      <trkpt lat="41.20003200" lon="0.931102000">
        <ele>716.00000</ele>
        <time>2010-01-01T00:03:11Z</time>
      </trkpt>
      <trkpt lat="41.20011700" lon="0.931207000">
        <ele>716.00000</ele>
        <time>2010-01-01T00:03:15Z</time>
      </trkpt>
      <trkpt lat="41.20015700" lon="0.931354000">
        <ele>718.00000</ele>
        <time>2010-01-01T00:03:20Z</time>
      </trkpt>
      <trkpt lat="41.20016900" lon="0.931423000">
        <ele>719.00000</ele>
        <time>2010-01-01T00:03:22Z</time>
      </trkpt>
      <trkpt lat="41.20019400" lon="0.931544000">
        <ele>720.00000</ele>
        <time>2010-01-01T00:03:26Z</time>
      </trkpt>
      <trkpt lat="41.20019900" lon="0.931808000">
        <ele>723.00000</ele>
        <time>2010-01-01T00:03:34Z</time>
      </trkpt>
      <trkpt lat="41.20016700" lon="0.931951000">
        <ele>725.00000</ele>
        <time>2010-01-01T00:03:39Z</time>
      </trkpt>
      <trkpt lat="41.20015900" lon="0.932350000">
        <ele>728.00000</ele>
        <time>2010-01-01T00:03:51Z</time>
      </trkpt>
      <trkpt lat="41.20020200" lon="0.932668000">
        <ele>727.00000</ele>
        <time>2010-01-01T00:04:00Z</time>
      </trkpt>
      <trkpt lat="41.20018200" lon="0.933037000">
        <ele>726.00000</ele>
        <time>2010-01-01T00:04:11Z</time>
      </trkpt>
      <trkpt lat="41.20007400" lon="0.933546000">
        <ele>726.00000</ele>
        <time>2010-01-01T00:04:27Z</time>
      </trkpt>
      <trkpt lat="41.19991600" lon="0.933884000">
        <ele>727.00000</ele>
        <time>2010-01-01T00:04:39Z</time>
      </trkpt>
      <trkpt lat="41.19942400" lon="0.934062000">
        <ele>726.00000</ele>
        <time>2010-01-01T00:05:00Z</time>
      </trkpt>
      <trkpt lat="41.19920000" lon="0.933837000">
        <ele>731.00000</ele>
        <time>2010-01-01T00:05:11Z</time>
      </trkpt>
      <trkpt lat="41.19893200" lon="0.933490000">
        <ele>734.00000</ele>
        <time>2010-01-01T00:05:26Z</time>
      </trkpt>
      <trkpt lat="41.19872300" lon="0.932898000">
        <ele>742.00000</ele>
        <time>2010-01-01T00:05:46Z</time>
      </trkpt>
      <trkpt lat="41.19852700" lon="0.932441000">
        <ele>750.00000</ele>
        <time>2010-01-01T00:06:01Z</time>
      </trkpt>
      <trkpt lat="41.19820000" lon="0.932583000">
        <ele>746.00000</ele>
        <time>2010-01-01T00:06:15Z</time>
      </trkpt>
      <trkpt lat="41.19811300" lon="0.932605000">
        <ele>746.00000</ele>
        <time>2010-01-01T00:06:19Z</time>
      </trkpt>
      <trkpt lat="41.19793400" lon="0.932631000">
        <ele>746.00000</ele>
        <time>2010-01-01T00:06:26Z</time>
      </trkpt>
      <trkpt lat="41.19774600" lon="0.932628000">
        <ele>747.00000</ele>
        <time>2010-01-01T00:06:34Z</time>
      </trkpt>
      <trkpt lat="41.19731600" lon="0.932446000">
        <ele>756.00000</ele>
        <time>2010-01-01T00:06:52Z</time>
      </trkpt>
      <trkpt lat="41.19693700" lon="0.932464000">
        <ele>756.00000</ele>
        <time>2010-01-01T00:07:07Z</time>
      </trkpt>
      <trkpt lat="41.19688200" lon="0.932539000">
        <ele>754.00000</ele>
        <time>2010-01-01T00:07:10Z</time>
      </trkpt>
      <trkpt lat="41.19677400" lon="0.932703000">
        <ele>752.00000</ele>
        <time>2010-01-01T00:07:16Z</time>
      </trkpt>
      <trkpt lat="41.19662000" lon="0.932735000">
        <ele>754.00000</ele>
        <time>2010-01-01T00:07:23Z</time>
      </trkpt>
      <trkpt lat="41.19624800" lon="0.932755000">
        <ele>758.00000</ele>
        <time>2010-01-01T00:07:38Z</time>
      </trkpt>
      <trkpt lat="41.19616100" lon="0.932738000">
        <ele>759.00000</ele>
        <time>2010-01-01T00:07:41Z</time>
      </trkpt>
      <trkpt lat="41.19563500" lon="0.932594000">
        <ele>759.00000</ele>
        <time>2010-01-01T00:08:03Z</time>
      </trkpt>
      <trkpt lat="41.19542100" lon="0.932276000">
        <ele>767.00000</ele>
        <time>2010-01-01T00:08:16Z</time>
      </trkpt>
      <trkpt lat="41.19529200" lon="0.932067000">
        <ele>776.00000</ele>
        <time>2010-01-01T00:08:24Z</time>
      </trkpt>
      <trkpt lat="41.19477900" lon="0.932139000">
        <ele>778.00000</ele>
        <time>2010-01-01T00:08:44Z</time>
      </trkpt>
      <trkpt lat="41.19457000" lon="0.932545000">
        <ele>776.00000</ele>
        <time>2010-01-01T00:08:59Z</time>
      </trkpt>
      <trkpt lat="41.19444500" lon="0.932637000">
        <ele>779.00000</ele>
        <time>2010-01-01T00:09:05Z</time>
      </trkpt>
      <trkpt lat="41.19428600" lon="0.932842000">
        <ele>780.00000</ele>
        <time>2010-01-01T00:09:14Z</time>
      </trkpt>
      <trkpt lat="41.19417200" lon="0.933075000">
        <ele>780.00000</ele>
        <time>2010-01-01T00:09:22Z</time>
      </trkpt>
      <trkpt lat="41.19412800" lon="0.933130000">
        <ele>781.00000</ele>
        <time>2010-01-01T00:09:24Z</time>
      </trkpt>
      <trkpt lat="41.19391400" lon="0.933337000">
        <ele>785.00000</ele>
        <time>2010-01-01T00:09:35Z</time>
      </trkpt>
      <trkpt lat="41.19377700" lon="0.933479000">
        <ele>788.00000</ele>
        <time>2010-01-01T00:09:42Z</time>
      </trkpt>
      <trkpt lat="41.19392700" lon="0.933726000">
        <ele>784.00000</ele>
        <time>2010-01-01T00:09:52Z</time>
      </trkpt>
      <trkpt lat="41.19429100" lon="0.933914000">
        <ele>775.00000</ele>
        <time>2010-01-01T00:10:07Z</time>
      </trkpt>
      <trkpt lat="41.19440800" lon="0.934071000">
        <ele>773.00000</ele>
        <time>2010-01-01T00:10:14Z</time>
      </trkpt>
      <trkpt lat="41.19443200" lon="0.934177000">
        <ele>774.00000</ele>
        <time>2010-01-01T00:10:17Z</time>
      </trkpt>
      <trkpt lat="41.19445000" lon="0.934350000">
        <ele>777.00000</ele>
        <time>2010-01-01T00:10:22Z</time>
      </trkpt>
      <trkpt lat="41.19443000" lon="0.934708000">
        <ele>783.00000</ele>
        <time>2010-01-01T00:10:33Z</time>
      </trkpt>
      <trkpt lat="41.19436500" lon="0.934938000">
        <ele>781.00000</ele>
        <time>2010-01-01T00:10:41Z</time>
      </trkpt>
      <trkpt lat="41.19412000" lon="0.935393000">
        <ele>778.00000</ele>
        <time>2010-01-01T00:10:58Z</time>
      </trkpt>
      <trkpt lat="41.19384800" lon="0.936061000">
        <ele>778.00000</ele>
        <time>2010-01-01T00:11:20Z</time>
      </trkpt>
      <trkpt lat="41.19377300" lon="0.936298000">
        <ele>778.00000</ele>
        <time>2010-01-01T00:11:28Z</time>
      </trkpt>
      <trkpt lat="41.19364800" lon="0.936557000">
        <ele>779.00000</ele>
        <time>2010-01-01T00:11:37Z</time>
      </trkpt>
      <trkpt lat="41.19362200" lon="0.936597000">
        <ele>780.00000</ele>
        <time>2010-01-01T00:11:39Z</time>
      </trkpt>
      <trkpt lat="41.19349200" lon="0.936823000">
        <ele>779.00000</ele>
        <time>2010-01-01T00:11:48Z</time>
      </trkpt>
      <trkpt lat="41.19326700" lon="0.937057000">
        <ele>779.00000</ele>
        <time>2010-01-01T00:11:59Z</time>
      </trkpt>
      <trkpt lat="41.19298200" lon="0.937056000">
        <ele>774.00000</ele>
        <time>2010-01-01T00:12:10Z</time>
      </trkpt>
      <trkpt lat="41.19288800" lon="0.937036000">
        <ele>772.00000</ele>
        <time>2010-01-01T00:12:14Z</time>
      </trkpt>
      <trkpt lat="41.19280800" lon="0.937003000">
        <ele>770.00000</ele>
        <time>2010-01-01T00:12:18Z</time>
      </trkpt>
      <trkpt lat="41.19297400" lon="0.936471000">
        <ele>778.00000</ele>
        <time>2010-01-01T00:12:35Z</time>
      </trkpt>
      <trkpt lat="41.19303600" lon="0.936300000">
        <ele>780.00000</ele>
        <time>2010-01-01T00:12:41Z</time>
      </trkpt>
      <trkpt lat="41.19305400" lon="0.936259000">
        <ele>780.00000</ele>
        <time>2010-01-01T00:12:42Z</time>
      </trkpt>
      <trkpt lat="41.19310000" lon="0.936255000">
        <ele>782.00000</ele>
        <time>2010-01-01T00:12:44Z</time>
      </trkpt>
      <trkpt lat="41.19310000" lon="0.936471000">
        <ele>782.00000</ele>
        <time>2010-01-01T00:12:50Z</time>
      </trkpt>
      <trkpt lat="41.19306300" lon="0.936763000">
        <ele>780.00000</ele>
        <time>2010-01-01T00:12:59Z</time>
      </trkpt>
      <trkpt lat="41.19307000" lon="0.936844000">
        <ele>779.00000</ele>
        <time>2010-01-01T00:13:02Z</time>
      </trkpt>
      <trkpt lat="41.19306500" lon="0.936895000">
        <ele>778.00000</ele>
        <time>2010-01-01T00:13:03Z</time>
      </trkpt>
      <trkpt lat="41.19306200" lon="0.936897000">
        <ele>778.00000</ele>
        <time>2010-01-01T00:13:04Z</time>
      </trkpt>
      <trkpt lat="41.19304900" lon="0.936883000">
        <ele>778.00000</ele>
        <time>2010-01-01T00:13:04Z</time>
      </trkpt>
      <trkpt lat="41.19305000" lon="0.936882000">
        <ele>778.00000</ele>
        <time>2010-01-01T00:13:04Z</time>
      </trkpt>
      <trkpt lat="41.19305200" lon="0.936878000">
        <ele>778.00000</ele>
        <time>2010-01-01T00:13:04Z</time>
      </trkpt>
      <trkpt lat="41.19305700" lon="0.936872000">
        <ele>778.00000</ele>
        <time>2010-01-01T00:13:05Z</time>
      </trkpt>
      <trkpt lat="41.19305400" lon="0.936879000">
        <ele>778.00000</ele>
        <time>2010-01-01T00:13:05Z</time>
      </trkpt>
      <trkpt lat="41.19306600" lon="0.936878000">
        <ele>778.00000</ele>
        <time>2010-01-01T00:13:05Z</time>
      </trkpt>
      <trkpt lat="41.19306600" lon="0.936880000">
        <ele>778.00000</ele>
        <time>2010-01-01T00:13:05Z</time>
      </trkpt>
      <trkpt lat="41.19306600" lon="0.936881000">
        <ele>778.00000</ele>
        <time>2010-01-01T00:13:05Z</time>
      </trkpt>
      <trkpt lat="41.19306100" lon="0.936862000">
        <ele>778.00000</ele>
        <time>2010-01-01T00:13:06Z</time>
      </trkpt>
      <trkpt lat="41.19314400" lon="0.936685000">
        <ele>782.00000</ele>
        <time>2010-01-01T00:13:12Z</time>
      </trkpt>
      <trkpt lat="41.19314000" lon="0.936662000">
        <ele>782.00000</ele>
        <time>2010-01-01T00:13:13Z</time>
      </trkpt>
      <trkpt lat="41.19313900" lon="0.936664000">
        <ele>782.00000</ele>
        <time>2010-01-01T00:13:13Z</time>
      </trkpt>
      <trkpt lat="41.19313800" lon="0.936664000">
        <ele>782.00000</ele>
        <time>2010-01-01T00:13:13Z</time>
      </trkpt>
      <trkpt lat="41.19311300" lon="0.936633000">
        <ele>781.00000</ele>
        <time>2010-01-01T00:13:15Z</time>
      </trkpt>
      <trkpt lat="41.19305200" lon="0.936282000">
        <ele>780.00000</ele>
        <time>2010-01-01T00:13:25Z</time>
      </trkpt>
      <trkpt lat="41.19305200" lon="0.936255000">
        <ele>780.00000</ele>
        <time>2010-01-01T00:13:26Z</time>
      </trkpt>
      <trkpt lat="41.19305600" lon="0.935946000">
        <ele>780.00000</ele>
        <time>2010-01-01T00:13:35Z</time>
      </trkpt>
      <trkpt lat="41.19312400" lon="0.935538000">
        <ele>781.00000</ele>
        <time>2010-01-01T00:13:48Z</time>
      </trkpt>
      <trkpt lat="41.19320400" lon="0.935055000">
        <ele>782.00000</ele>
        <time>2010-01-01T00:14:03Z</time>
      </trkpt>
      <trkpt lat="41.19313700" lon="0.934837000">
        <ele>783.00000</ele>
        <time>2010-01-01T00:14:10Z</time>
      </trkpt>
      <trkpt lat="41.19289000" lon="0.934881000">
        <ele>783.00000</ele>
        <time>2010-01-01T00:14:20Z</time>
      </trkpt>
      <trkpt lat="41.19282600" lon="0.934888000">
        <ele>784.00000</ele>
        <time>2010-01-01T00:14:23Z</time>
      </trkpt>
      <trkpt lat="41.19254200" lon="0.935062000">
        <ele>781.00000</ele>
        <time>2010-01-01T00:14:35Z</time>
      </trkpt>
      <trkpt lat="41.19224800" lon="0.935099000">
        <ele>782.00000</ele>
        <time>2010-01-01T00:14:47Z</time>
      </trkpt>
      <trkpt lat="41.19187800" lon="0.935101000">
        <ele>780.00000</ele>
        <time>2010-01-01T00:15:02Z</time>
      </trkpt>
      <trkpt lat="41.19174300" lon="0.935246000">
        <ele>777.00000</ele>
        <time>2010-01-01T00:15:09Z</time>
      </trkpt>
      <trkpt lat="41.19156700" lon="0.935264000">
        <ele>775.00000</ele>
        <time>2010-01-01T00:15:16Z</time>
      </trkpt>
      <trkpt lat="41.19153400" lon="0.935194000">
        <ele>776.00000</ele>
        <time>2010-01-01T00:15:18Z</time>
      </trkpt>
      <trkpt lat="41.19154470" lon="0.934578180">
        <ele>777.00000</ele>
        <time>2010-01-01T00:15:37Z</time>
      </trkpt>
      <trkpt lat="41.19159600" lon="0.934268000">
        <ele>777.00000</ele>
        <time>2010-01-01T00:15:46Z</time>
      </trkpt>
      <trkpt lat="41.19162900" lon="0.934081000">
        <ele>777.00000</ele>
        <time>2010-01-01T00:15:52Z</time>
      </trkpt>
      <trkpt lat="41.19167400" lon="0.933754000">
        <ele>774.00000</ele>
        <time>2010-01-01T00:16:02Z</time>
      </trkpt>
      <trkpt lat="41.19168900" lon="0.933514000">
        <ele>770.00000</ele>
        <time>2010-01-01T00:16:09Z</time>
      </trkpt>
      <trkpt lat="41.19192300" lon="0.932979000">
        <ele>769.00000</ele>
        <time>2010-01-01T00:16:28Z</time>
      </trkpt>
      <trkpt lat="41.19205100" lon="0.932901000">
        <ele>772.00000</ele>
        <time>2010-01-01T00:16:34Z</time>
      </trkpt>
      <trkpt lat="41.19208200" lon="0.932469000">
        <ele>766.00000</ele>
        <time>2010-01-01T00:16:47Z</time>
      </trkpt>
      <trkpt lat="41.19207000" lon="0.932031000">
        <ele>764.00000</ele>
        <time>2010-01-01T00:17:00Z</time>
      </trkpt>
      <trkpt lat="41.19193400" lon="0.931661000">
        <ele>757.00000</ele>
        <time>2010-01-01T00:17:12Z</time>
      </trkpt>
      <trkpt lat="41.19183900" lon="0.931273000">
        <ele>754.00000</ele>
        <time>2010-01-01T00:17:25Z</time>
      </trkpt>
      <trkpt lat="41.19174200" lon="0.930957000">
        <ele>748.00000</ele>
        <time>2010-01-01T00:17:35Z</time>
      </trkpt>
      <trkpt lat="41.19190400" lon="0.930465000">
        <ele>746.00000</ele>
        <time>2010-01-01T00:17:51Z</time>
      </trkpt>
      <trkpt lat="41.19233700" lon="0.930300000">
        <ele>751.00000</ele>
        <time>2010-01-01T00:18:09Z</time>
      </trkpt>
      <trkpt lat="41.19251300" lon="0.930160000">
        <ele>752.00000</ele>
        <time>2010-01-01T00:18:17Z</time>
      </trkpt>
      <trkpt lat="41.19267000" lon="0.929995000">
        <ele>754.00000</ele>
        <time>2010-01-01T00:18:25Z</time>
      </trkpt>
      <trkpt lat="41.19271500" lon="0.929730000">
        <ele>750.00000</ele>
        <time>2010-01-01T00:18:34Z</time>
      </trkpt>
      <trkpt lat="41.19268000" lon="0.929559000">
        <ele>745.00000</ele>
        <time>2010-01-01T00:18:39Z</time>
      </trkpt>
      <trkpt lat="41.19269000" lon="0.929360000">
        <ele>743.00000</ele>
        <time>2010-01-01T00:18:45Z</time>
      </trkpt>
      <trkpt lat="41.19273700" lon="0.929044000">
        <ele>743.00000</ele>
        <time>2010-01-01T00:18:55Z</time>
      </trkpt>
      <trkpt lat="41.19272400" lon="0.928616000">
        <ele>741.00000</ele>
        <time>2010-01-01T00:19:08Z</time>
      </trkpt>
      <trkpt lat="41.19270400" lon="0.928192000">
        <ele>740.00000</ele>
        <time>2010-01-01T00:19:20Z</time>
      </trkpt>
      <trkpt lat="41.19266900" lon="0.927960000">
        <ele>737.00000</ele>
        <time>2010-01-01T00:19:27Z</time>
      </trkpt>
      <trkpt lat="41.19245400" lon="0.927603000">
        <ele>731.00000</ele>
        <time>2010-01-01T00:19:41Z</time>
      </trkpt>
      <trkpt lat="41.19237000" lon="0.927576000">
        <ele>729.00000</ele>
        <time>2010-01-01T00:19:45Z</time>
      </trkpt>
      <trkpt lat="41.19195500" lon="0.927508000">
        <ele>723.00000</ele>
        <time>2010-01-01T00:20:01Z</time>
      </trkpt>
      <trkpt lat="41.19158700" lon="0.927226000">
        <ele>723.00000</ele>
        <time>2010-01-01T00:20:18Z</time>
      </trkpt>
      <trkpt lat="41.19140800" lon="0.926826000">
        <ele>722.00000</ele>
        <time>2010-01-01T00:20:32Z</time>
      </trkpt>
      <trkpt lat="41.19137200" lon="0.926367000">
        <ele>721.00000</ele>
        <time>2010-01-01T00:20:46Z</time>
      </trkpt>
      <trkpt lat="41.19131200" lon="0.926060000">
        <ele>714.00000</ele>
        <time>2010-01-01T00:20:56Z</time>
      </trkpt>
      <trkpt lat="41.19091800" lon="0.925820000">
        <ele>708.00000</ele>
        <time>2010-01-01T00:21:13Z</time>
      </trkpt>
      <trkpt lat="41.19088400" lon="0.925815000">
        <ele>708.00000</ele>
        <time>2010-01-01T00:21:15Z</time>
      </trkpt>
      <trkpt lat="41.19070300" lon="0.925666000">
        <ele>704.00000</ele>
        <time>2010-01-01T00:21:23Z</time>
      </trkpt>
      <trkpt lat="41.19048500" lon="0.925583000">
        <ele>699.00000</ele>
        <time>2010-01-01T00:21:32Z</time>
      </trkpt>
      <trkpt lat="41.19030900" lon="0.925484000">
        <ele>697.00000</ele>
        <time>2010-01-01T00:21:40Z</time>
      </trkpt>
      <trkpt lat="41.19012400" lon="0.925325000">
        <ele>695.00000</ele>
        <time>2010-01-01T00:21:49Z</time>
      </trkpt>
      <trkpt lat="41.18989500" lon="0.925266000">
        <ele>694.00000</ele>
        <time>2010-01-01T00:21:58Z</time>
      </trkpt>
      <trkpt lat="41.18982700" lon="0.925236000">
        <ele>694.00000</ele>
        <time>2010-01-01T00:22:01Z</time>
      </trkpt>
      <trkpt lat="41.18969500" lon="0.925160000">
        <ele>693.00000</ele>
        <time>2010-01-01T00:22:07Z</time>
      </trkpt>
      <trkpt lat="41.18927800" lon="0.924979000">
        <ele>692.00000</ele>
        <time>2010-01-01T00:22:24Z</time>
      </trkpt>
      <trkpt lat="41.18915300" lon="0.924838000">
        <ele>691.00000</ele>
        <time>2010-01-01T00:22:31Z</time>
      </trkpt>
      <trkpt lat="41.18889900" lon="0.924702000">
        <ele>694.00000</ele>
        <time>2010-01-01T00:22:42Z</time>
      </trkpt>
      <trkpt lat="41.18869600" lon="0.924561000">
        <ele>695.00000</ele>
        <time>2010-01-01T00:22:51Z</time>
      </trkpt>
      <trkpt lat="41.18852800" lon="0.924193000">
        <ele>700.00000</ele>
        <time>2010-01-01T00:23:04Z</time>
      </trkpt>
      <trkpt lat="41.18828300" lon="0.924210000">
        <ele>706.00000</ele>
        <time>2010-01-01T00:23:14Z</time>
      </trkpt>
      <trkpt lat="41.18798900" lon="0.924342000">
        <ele>704.00000</ele>
        <time>2010-01-01T00:23:26Z</time>
      </trkpt>
      <trkpt lat="41.18760800" lon="0.924421000">
        <ele>700.00000</ele>
        <time>2010-01-01T00:23:42Z</time>
      </trkpt>
      <trkpt lat="41.18738900" lon="0.924270000">
        <ele>702.00000</ele>
        <time>2010-01-01T00:23:51Z</time>
      </trkpt>
      <trkpt lat="41.18735400" lon="0.924243000">
        <ele>702.00000</ele>
        <time>2010-01-01T00:23:53Z</time>
      </trkpt>
      <trkpt lat="41.18734400" lon="0.924146000">
        <ele>705.00000</ele>
        <time>2010-01-01T00:23:56Z</time>
      </trkpt>
      <trkpt lat="41.18737200" lon="0.923910000">
        <ele>713.00000</ele>
        <time>2010-01-01T00:24:03Z</time>
      </trkpt>
      <trkpt lat="41.18736700" lon="0.923881000">
        <ele>713.00000</ele>
        <time>2010-01-01T00:24:04Z</time>
      </trkpt>
      <trkpt lat="41.18733100" lon="0.923626000">
        <ele>719.00000</ele>
        <time>2010-01-01T00:24:12Z</time>
      </trkpt>
      <trkpt lat="41.18732200" lon="0.923476000">
        <ele>722.00000</ele>
        <time>2010-01-01T00:24:16Z</time>
      </trkpt>
      <trkpt lat="41.18735300" lon="0.923401000">
        <ele>725.00000</ele>
        <time>2010-01-01T00:24:19Z</time>
      </trkpt>
      <trkpt lat="41.18738200" lon="0.923167000">
        <ele>731.00000</ele>
        <time>2010-01-01T00:24:26Z</time>
      </trkpt>
      <trkpt lat="41.18735300" lon="0.923084000">
        <ele>733.00000</ele>
        <time>2010-01-01T00:24:29Z</time>
      </trkpt>
      <trkpt lat="41.18729300" lon="0.923009000">
        <ele>735.00000</ele>
        <time>2010-01-01T00:24:32Z</time>
      </trkpt>
      <trkpt lat="41.18722800" lon="0.922952000">
        <ele>736.00000</ele>
        <time>2010-01-01T00:24:35Z</time>
      </trkpt>
      <trkpt lat="41.18715100" lon="0.922916000">
        <ele>736.00000</ele>
        <time>2010-01-01T00:24:39Z</time>
      </trkpt>
      <trkpt lat="41.18705300" lon="0.922848000">
        <ele>737.00000</ele>
        <time>2010-01-01T00:24:43Z</time>
      </trkpt>
      <trkpt lat="41.18702000" lon="0.922812000">
        <ele>738.00000</ele>
        <time>2010-01-01T00:24:45Z</time>
      </trkpt>
      <trkpt lat="41.18694600" lon="0.922776000">
        <ele>740.00000</ele>
        <time>2010-01-01T00:24:48Z</time>
      </trkpt>
      <trkpt lat="41.18665200" lon="0.922833000">
        <ele>737.00000</ele>
        <time>2010-01-01T00:25:00Z</time>
      </trkpt>
      <trkpt lat="41.18629200" lon="0.923021000">
        <ele>731.00000</ele>
        <time>2010-01-01T00:25:15Z</time>
      </trkpt>
      <trkpt lat="41.18625300" lon="0.923051000">
        <ele>729.00000</ele>
        <time>2010-01-01T00:25:17Z</time>
      </trkpt>
      <trkpt lat="41.18610700" lon="0.923127000">
        <ele>724.00000</ele>
        <time>2010-01-01T00:25:23Z</time>
      </trkpt>
      <trkpt lat="41.18594700" lon="0.923183000">
        <ele>723.00000</ele>
        <time>2010-01-01T00:25:30Z</time>
      </trkpt>
      <trkpt lat="41.18577300" lon="0.923172000">
        <ele>728.00000</ele>
        <time>2010-01-01T00:25:37Z</time>
      </trkpt>
      <trkpt lat="41.18556400" lon="0.923302000">
        <ele>724.00000</ele>
        <time>2010-01-01T00:25:46Z</time>
      </trkpt>
      <trkpt lat="41.18548500" lon="0.923399000">
        <ele>721.00000</ele>
        <time>2010-01-01T00:25:51Z</time>
      </trkpt>
      <trkpt lat="41.18530500" lon="0.923487000">
        <ele>721.00000</ele>
        <time>2010-01-01T00:25:58Z</time>
      </trkpt>
      <trkpt lat="41.18496400" lon="0.923483000">
        <ele>729.00000</ele>
        <time>2010-01-01T00:26:12Z</time>
      </trkpt>
      <trkpt lat="41.18492000" lon="0.923458000">
        <ele>730.00000</ele>
        <time>2010-01-01T00:26:14Z</time>
      </trkpt>
      <trkpt lat="41.18486000" lon="0.923465000">
        <ele>731.00000</ele>
        <time>2010-01-01T00:26:16Z</time>
      </trkpt>
      <trkpt lat="41.18454600" lon="0.923739000">
        <ele>727.00000</ele>
        <time>2010-01-01T00:26:31Z</time>
      </trkpt>
      <trkpt lat="41.18428700" lon="0.924059000">
        <ele>721.00000</ele>
        <time>2010-01-01T00:26:45Z</time>
      </trkpt>
      <trkpt lat="41.18394600" lon="0.924037000">
        <ele>723.00000</ele>
        <time>2010-01-01T00:26:59Z</time>
      </trkpt>
      <trkpt lat="41.18361800" lon="0.923981000">
        <ele>719.00000</ele>
        <time>2010-01-01T00:27:12Z</time>
      </trkpt>
      <trkpt lat="41.18343000" lon="0.924022000">
        <ele>713.00000</ele>
        <time>2010-01-01T00:27:20Z</time>
      </trkpt>
      <trkpt lat="41.18336400" lon="0.924083000">
        <ele>711.00000</ele>
        <time>2010-01-01T00:27:23Z</time>
      </trkpt>
      <trkpt lat="41.18331800" lon="0.924238000">
        <ele>708.00000</ele>
        <time>2010-01-01T00:27:28Z</time>
      </trkpt>
      <trkpt lat="41.18320800" lon="0.924397000">
        <ele>704.00000</ele>
        <time>2010-01-01T00:27:35Z</time>
      </trkpt>
      <trkpt lat="41.18316000" lon="0.924444000">
        <ele>702.00000</ele>
        <time>2010-01-01T00:27:37Z</time>
      </trkpt>
      <trkpt lat="41.18301300" lon="0.924594000">
        <ele>694.00000</ele>
        <time>2010-01-01T00:27:44Z</time>
      </trkpt>
      <trkpt lat="41.18283400" lon="0.924776000">
        <ele>686.00000</ele>
        <time>2010-01-01T00:27:53Z</time>
      </trkpt>
      <trkpt lat="41.18275700" lon="0.924852000">
        <ele>684.00000</ele>
        <time>2010-01-01T00:27:57Z</time>
      </trkpt>
      <trkpt lat="41.18264800" lon="0.924979000">
        <ele>684.00000</ele>
        <time>2010-01-01T00:28:03Z</time>
      </trkpt>
      <trkpt lat="41.18255600" lon="0.925057000">
        <ele>684.00000</ele>
        <time>2010-01-01T00:28:07Z</time>
      </trkpt>
      <trkpt lat="41.18240000" lon="0.925160000">
        <ele>682.00000</ele>
        <time>2010-01-01T00:28:14Z</time>
      </trkpt>
      <trkpt lat="41.18232800" lon="0.925210000">
        <ele>682.00000</ele>
        <time>2010-01-01T00:28:18Z</time>
      </trkpt>
      <trkpt lat="41.18225400" lon="0.925322000">
        <ele>682.00000</ele>
        <time>2010-01-01T00:28:22Z</time>
      </trkpt>
      <trkpt lat="41.18209700" lon="0.925481000">
        <ele>678.00000</ele>
        <time>2010-01-01T00:28:30Z</time>
      </trkpt>
      <trkpt lat="41.18205500" lon="0.925392000">
        <ele>677.00000</ele>
        <time>2010-01-01T00:28:33Z</time>
      </trkpt>
      <trkpt lat="41.18207100" lon="0.925331000">
        <ele>677.00000</ele>
        <time>2010-01-01T00:28:35Z</time>
      </trkpt>
      <trkpt lat="41.18207500" lon="0.925328000">
        <ele>677.00000</ele>
        <time>2010-01-01T00:28:35Z</time>
      </trkpt>
      <trkpt lat="41.18214600" lon="0.925206000">
        <ele>678.00000</ele>
        <time>2010-01-01T00:28:40Z</time>
      </trkpt>
      <trkpt lat="41.18228500" lon="0.924907000">
        <ele>675.00000</ele>
        <time>2010-01-01T00:28:51Z</time>
      </trkpt>
      <trkpt lat="41.18249100" lon="0.924587000">
        <ele>670.00000</ele>
        <time>2010-01-01T00:29:03Z</time>
      </trkpt>
      <trkpt lat="41.18263200" lon="0.924323000">
        <ele>671.00000</ele>
        <time>2010-01-01T00:29:13Z</time>
      </trkpt>
      <trkpt lat="41.18270200" lon="0.924014000">
        <ele>669.00000</ele>
        <time>2010-01-01T00:29:23Z</time>
      </trkpt>
      <trkpt lat="41.18272300" lon="0.923861000">
        <ele>667.00000</ele>
        <time>2010-01-01T00:29:27Z</time>
      </trkpt>
      <trkpt lat="41.18276900" lon="0.923570000">
        <ele>665.00000</ele>
        <time>2010-01-01T00:29:36Z</time>
      </trkpt>
      <trkpt lat="41.18280100" lon="0.923346000">
        <ele>663.00000</ele>
        <time>2010-01-01T00:29:43Z</time>
      </trkpt>
      <trkpt lat="41.18281600" lon="0.923222000">
        <ele>663.00000</ele>
        <time>2010-01-01T00:29:47Z</time>
      </trkpt>
      <trkpt lat="41.18288300" lon="0.923037000">
        <ele>667.00000</ele>
        <time>2010-01-01T00:29:53Z</time>
      </trkpt>
      <trkpt lat="41.18288300" lon="0.922770000">
        <ele>669.00000</ele>
        <time>2010-01-01T00:30:01Z</time>
      </trkpt>
      <trkpt lat="41.18284200" lon="0.922689000">
        <ele>668.00000</ele>
        <time>2010-01-01T00:30:04Z</time>
      </trkpt>
      <trkpt lat="41.18279200" lon="0.922612000">
        <ele>667.00000</ele>
        <time>2010-01-01T00:30:07Z</time>
      </trkpt>
      <trkpt lat="41.18256200" lon="0.922327000">
        <ele>663.00000</ele>
        <time>2010-01-01T00:30:20Z</time>
      </trkpt>
      <trkpt lat="41.18231800" lon="0.922100000">
        <ele>657.00000</ele>
        <time>2010-01-01T00:30:32Z</time>
      </trkpt>
      <trkpt lat="41.18207200" lon="0.921658000">
        <ele>655.00000</ele>
        <time>2010-01-01T00:30:48Z</time>
      </trkpt>
      <trkpt lat="41.18186400" lon="0.921176000">
        <ele>650.00000</ele>
        <time>2010-01-01T00:31:05Z</time>
      </trkpt>
      <trkpt lat="41.18173600" lon="0.920955000">
        <ele>648.00000</ele>
        <time>2010-01-01T00:31:14Z</time>
      </trkpt>
      <trkpt lat="41.18163000" lon="0.920792000">
        <ele>645.00000</ele>
        <time>2010-01-01T00:31:20Z</time>
      </trkpt>
      <trkpt lat="41.18146100" lon="0.920532000">
        <ele>641.00000</ele>
        <time>2010-01-01T00:31:30Z</time>
      </trkpt>
      <trkpt lat="41.18141600" lon="0.920463000">
        <ele>639.00000</ele>
        <time>2010-01-01T00:31:33Z</time>
      </trkpt>
      <trkpt lat="41.18124200" lon="0.919952000">
        <ele>639.00000</ele>
        <time>2010-01-01T00:31:50Z</time>
      </trkpt>
      <trkpt lat="41.18121100" lon="0.919803000">
        <ele>639.00000</ele>
        <time>2010-01-01T00:31:55Z</time>
      </trkpt>
      <trkpt lat="41.18104900" lon="0.919509000">
        <ele>635.00000</ele>
        <time>2010-01-01T00:32:06Z</time>
      </trkpt>
      <trkpt lat="41.18093900" lon="0.919388000">
        <ele>632.00000</ele>
        <time>2010-01-01T00:32:11Z</time>
      </trkpt>
      <trkpt lat="41.18094400" lon="0.919076000">
        <ele>628.00000</ele>
        <time>2010-01-01T00:32:21Z</time>
      </trkpt>
      <trkpt lat="41.18097900" lon="0.919022000">
        <ele>627.00000</ele>
        <time>2010-01-01T00:32:23Z</time>
      </trkpt>
      <trkpt lat="41.18099000" lon="0.919050000">
        <ele>628.00000</ele>
        <time>2010-01-01T00:32:24Z</time>
      </trkpt>
      <trkpt lat="41.18089200" lon="0.918996000">
        <ele>625.00000</ele>
        <time>2010-01-01T00:32:28Z</time>
      </trkpt>
      <trkpt lat="41.18062400" lon="0.918963000">
        <ele>621.00000</ele>
        <time>2010-01-01T00:32:39Z</time>
      </trkpt>
      <trkpt lat="41.18051600" lon="0.919014000">
        <ele>621.00000</ele>
        <time>2010-01-01T00:32:43Z</time>
      </trkpt>
      <trkpt lat="41.18021000" lon="0.919201000">
        <ele>619.00000</ele>
        <time>2010-01-01T00:32:57Z</time>
      </trkpt>
      <trkpt lat="41.17997500" lon="0.919303000">
        <ele>613.00000</ele>
        <time>2010-01-01T00:33:07Z</time>
      </trkpt>
      <trkpt lat="41.17990000" lon="0.919330000">
        <ele>612.00000</ele>
        <time>2010-01-01T00:33:10Z</time>
      </trkpt>
      <trkpt lat="41.17975600" lon="0.919348000">
        <ele>610.00000</ele>
        <time>2010-01-01T00:33:16Z</time>
      </trkpt>
      <trkpt lat="41.17965200" lon="0.919088000">
        <ele>606.00000</ele>
        <time>2010-01-01T00:33:25Z</time>
      </trkpt>
      <trkpt lat="41.17971200" lon="0.918973000">
        <ele>607.00000</ele>
        <time>2010-01-01T00:33:29Z</time>
      </trkpt>
      <trkpt lat="41.17985900" lon="0.918700000">
        <ele>602.00000</ele>
        <time>2010-01-01T00:33:39Z</time>
      </trkpt>
      <trkpt lat="41.18010700" lon="0.918439000">
        <ele>599.00000</ele>
        <time>2010-01-01T00:33:52Z</time>
      </trkpt>
      <trkpt lat="41.18017900" lon="0.918374000">
        <ele>598.00000</ele>
        <time>2010-01-01T00:33:55Z</time>
      </trkpt>
      <trkpt lat="41.18045200" lon="0.917984000">
        <ele>586.00000</ele>
        <time>2010-01-01T00:34:11Z</time>
      </trkpt>
      <trkpt lat="41.18070600" lon="0.917938000">
        <ele>587.00000</ele>
        <time>2010-01-01T00:34:21Z</time>
      </trkpt>
      <trkpt lat="41.18090100" lon="0.918000000">
        <ele>593.00000</ele>
        <time>2010-01-01T00:34:29Z</time>
      </trkpt>
      <trkpt lat="41.18095200" lon="0.917827000">
        <ele>590.00000</ele>
        <time>2010-01-01T00:34:35Z</time>
      </trkpt>
      <trkpt lat="41.18103600" lon="0.917420000">
        <ele>586.00000</ele>
        <time>2010-01-01T00:34:48Z</time>
      </trkpt>
      <trkpt lat="41.18095500" lon="0.916897000">
        <ele>581.00000</ele>
        <time>2010-01-01T00:35:04Z</time>
      </trkpt>
      <trkpt lat="41.18086800" lon="0.916693000">
        <ele>580.00000</ele>
        <time>2010-01-01T00:35:11Z</time>
      </trkpt>
      <trkpt lat="41.18082100" lon="0.916594000">
        <ele>578.00000</ele>
        <time>2010-01-01T00:35:14Z</time>
      </trkpt>
      <trkpt lat="41.18078900" lon="0.916028000">
        <ele>575.00000</ele>
        <time>2010-01-01T00:35:32Z</time>
      </trkpt>
      <trkpt lat="41.18085700" lon="0.915823000">
        <ele>577.00000</ele>
        <time>2010-01-01T00:35:38Z</time>
      </trkpt>
      <trkpt lat="41.18070800" lon="0.915364000">
        <ele>574.00000</ele>
        <time>2010-01-01T00:35:53Z</time>
      </trkpt>
      <trkpt lat="41.18063900" lon="0.915338000">
        <ele>573.00000</ele>
        <time>2010-01-01T00:35:56Z</time>
      </trkpt>
      <trkpt lat="41.18007300" lon="0.915133000">
        <ele>568.00000</ele>
        <time>2010-01-01T00:36:20Z</time>
      </trkpt>
      <trkpt lat="41.17980200" lon="0.915050000">
        <ele>566.00000</ele>
        <time>2010-01-01T00:36:31Z</time>
      </trkpt>
      <trkpt lat="41.17961700" lon="0.914933000">
        <ele>565.00000</ele>
        <time>2010-01-01T00:36:39Z</time>
      </trkpt>
      <trkpt lat="41.17950200" lon="0.914821000">
        <ele>565.00000</ele>
        <time>2010-01-01T00:36:45Z</time>
      </trkpt>
      <trkpt lat="41.17915800" lon="0.914646000">
        <ele>564.00000</ele>
        <time>2010-01-01T00:36:59Z</time>
      </trkpt>
      <trkpt lat="41.17887500" lon="0.914226000">
        <ele>565.00000</ele>
        <time>2010-01-01T00:37:16Z</time>
      </trkpt>
      <trkpt lat="41.17888200" lon="0.914125000">
        <ele>566.00000</ele>
        <time>2010-01-01T00:37:20Z</time>
      </trkpt>
      <trkpt lat="41.17888900" lon="0.913914000">
        <ele>567.00000</ele>
        <time>2010-01-01T00:37:26Z</time>
      </trkpt>
      <trkpt lat="41.17878600" lon="0.913545000">
        <ele>561.00000</ele>
        <time>2010-01-01T00:37:38Z</time>
      </trkpt>
      <trkpt lat="41.17869600" lon="0.913187000">
        <ele>562.00000</ele>
        <time>2010-01-01T00:37:49Z</time>
      </trkpt>
      <trkpt lat="41.17848800" lon="0.912827000">
        <ele>567.00000</ele>
        <time>2010-01-01T00:38:03Z</time>
      </trkpt>
      <trkpt lat="41.17843200" lon="0.912757000">
        <ele>568.00000</ele>
        <time>2010-01-01T00:38:06Z</time>
      </trkpt>
      <trkpt lat="41.17829700" lon="0.912629000">
        <ele>570.00000</ele>
        <time>2010-01-01T00:38:13Z</time>
      </trkpt>
      <trkpt lat="41.17815300" lon="0.912428000">
        <ele>573.00000</ele>
        <time>2010-01-01T00:38:21Z</time>
      </trkpt>
      <trkpt lat="41.17805800" lon="0.912096000">
        <ele>577.00000</ele>
        <time>2010-01-01T00:38:32Z</time>
      </trkpt>
      <trkpt lat="41.17800500" lon="0.911883000">
        <ele>577.00000</ele>
        <time>2010-01-01T00:38:38Z</time>
      </trkpt>
      <trkpt lat="41.17795600" lon="0.911641000">
        <ele>576.00000</ele>
        <time>2010-01-01T00:38:46Z</time>
      </trkpt>
      <trkpt lat="41.17793500" lon="0.911427000">
        <ele>576.00000</ele>
        <time>2010-01-01T00:38:52Z</time>
      </trkpt>
      <trkpt lat="41.17795200" lon="0.911359000">
        <ele>577.00000</ele>
        <time>2010-01-01T00:38:55Z</time>
      </trkpt>
      <trkpt lat="41.17806400" lon="0.911140000">
        <ele>581.00000</ele>
        <time>2010-01-01T00:39:03Z</time>
      </trkpt>
      <trkpt lat="41.17811300" lon="0.911052000">
        <ele>582.00000</ele>
        <time>2010-01-01T00:39:06Z</time>
      </trkpt>
      <trkpt lat="41.17814200" lon="0.911004000">
        <ele>582.00000</ele>
        <time>2010-01-01T00:39:08Z</time>
      </trkpt>
      <trkpt lat="41.17827900" lon="0.910776000">
        <ele>586.00000</ele>
        <time>2010-01-01T00:39:16Z</time>
      </trkpt>
      <trkpt lat="41.17833900" lon="0.910554000">
        <ele>590.00000</ele>
        <time>2010-01-01T00:39:24Z</time>
      </trkpt>
      <trkpt lat="41.17823000" lon="0.910192000">
        <ele>591.00000</ele>
        <time>2010-01-01T00:39:35Z</time>
      </trkpt>
      <trkpt lat="41.17819100" lon="0.910086000">
        <ele>591.00000</ele>
        <time>2010-01-01T00:39:39Z</time>
      </trkpt>
      <trkpt lat="41.17820500" lon="0.909616000">
        <ele>589.00000</ele>
        <time>2010-01-01T00:39:53Z</time>
      </trkpt>
      <trkpt lat="41.17847100" lon="0.909253000">
        <ele>587.00000</ele>
        <time>2010-01-01T00:40:08Z</time>
      </trkpt>
      <trkpt lat="41.17871600" lon="0.909124000">
        <ele>585.00000</ele>
        <time>2010-01-01T00:40:19Z</time>
      </trkpt>
      <trkpt lat="41.17895800" lon="0.909002000">
        <ele>583.00000</ele>
        <time>2010-01-01T00:40:29Z</time>
      </trkpt>
      <trkpt lat="41.17911500" lon="0.908782000">
        <ele>584.00000</ele>
        <time>2010-01-01T00:40:38Z</time>
      </trkpt>
      <trkpt lat="41.17918700" lon="0.908556000">
        <ele>587.00000</ele>
        <time>2010-01-01T00:40:46Z</time>
      </trkpt>
      <trkpt lat="41.17924500" lon="0.908228000">
        <ele>590.00000</ele>
        <time>2010-01-01T00:40:56Z</time>
      </trkpt>
      <trkpt lat="41.17928900" lon="0.907871000">
        <ele>593.00000</ele>
        <time>2010-01-01T00:41:07Z</time>
      </trkpt>
      <trkpt lat="41.17933500" lon="0.907463000">
        <ele>598.00000</ele>
        <time>2010-01-01T00:41:19Z</time>
      </trkpt>
      <trkpt lat="41.17931600" lon="0.907194000">
        <ele>604.00000</ele>
        <time>2010-01-01T00:41:27Z</time>
      </trkpt>
      <trkpt lat="41.17916500" lon="0.907019000">
        <ele>607.00000</ele>
        <time>2010-01-01T00:41:35Z</time>
      </trkpt>
      <trkpt lat="41.17914000" lon="0.906973000">
        <ele>607.00000</ele>
        <time>2010-01-01T00:41:37Z</time>
      </trkpt>
      <trkpt lat="41.17905200" lon="0.906896000">
        <ele>607.00000</ele>
        <time>2010-01-01T00:41:41Z</time>
      </trkpt>
      <trkpt lat="41.17902300" lon="0.906886000">
        <ele>607.00000</ele>
        <time>2010-01-01T00:41:43Z</time>
      </trkpt>
      <trkpt lat="41.17895700" lon="0.906815000">
        <ele>607.00000</ele>
        <time>2010-01-01T00:41:46Z</time>
      </trkpt>
      <trkpt lat="41.17890700" lon="0.906789000">
        <ele>607.00000</ele>
        <time>2010-01-01T00:41:48Z</time>
      </trkpt>
      <trkpt lat="41.17875900" lon="0.906690000">
        <ele>607.00000</ele>
        <time>2010-01-01T00:41:55Z</time>
      </trkpt>
      <trkpt lat="41.17874800" lon="0.906581000">
        <ele>608.00000</ele>
        <time>2010-01-01T00:41:58Z</time>
      </trkpt>
      <trkpt lat="41.17877000" lon="0.906455000">
        <ele>609.00000</ele>
        <time>2010-01-01T00:42:02Z</time>
      </trkpt>
      <trkpt lat="41.17876900" lon="0.906399000">
        <ele>609.00000</ele>
        <time>2010-01-01T00:42:04Z</time>
      </trkpt>
      <trkpt lat="41.17873000" lon="0.906260000">
        <ele>610.00000</ele>
        <time>2010-01-01T00:42:08Z</time>
      </trkpt>
      <trkpt lat="41.17872500" lon="0.906246000">
        <ele>610.00000</ele>
        <time>2010-01-01T00:42:09Z</time>
      </trkpt>
      <trkpt lat="41.17859500" lon="0.906040000">
        <ele>615.00000</ele>
        <time>2010-01-01T00:42:17Z</time>
      </trkpt>
      <trkpt lat="41.17857200" lon="0.905988000">
        <ele>615.00000</ele>
        <time>2010-01-01T00:42:18Z</time>
      </trkpt>
      <trkpt lat="41.17854600" lon="0.905962000">
        <ele>616.00000</ele>
        <time>2010-01-01T00:42:20Z</time>
      </trkpt>
      <trkpt lat="41.17848100" lon="0.905890000">
        <ele>617.00000</ele>
        <time>2010-01-01T00:42:23Z</time>
      </trkpt>
      <trkpt lat="41.17844500" lon="0.905819000">
        <ele>619.00000</ele>
        <time>2010-01-01T00:42:26Z</time>
      </trkpt>
      <trkpt lat="41.17835700" lon="0.905648000">
        <ele>620.00000</ele>
        <time>2010-01-01T00:42:32Z</time>
      </trkpt>
      <trkpt lat="41.17829900" lon="0.905617000">
        <ele>620.00000</ele>
        <time>2010-01-01T00:42:34Z</time>
      </trkpt>
      <trkpt lat="41.17829000" lon="0.905607000">
        <ele>620.00000</ele>
        <time>2010-01-01T00:42:35Z</time>
      </trkpt>
      <trkpt lat="41.17782900" lon="0.905508000">
        <ele>617.00000</ele>
        <time>2010-01-01T00:42:54Z</time>
      </trkpt>
      <trkpt lat="41.17756200" lon="0.905389000">
        <ele>620.00000</ele>
        <time>2010-01-01T00:43:05Z</time>
      </trkpt>
      <trkpt lat="41.17736700" lon="0.905347000">
        <ele>620.00000</ele>
        <time>2010-01-01T00:43:13Z</time>
      </trkpt>
      <trkpt lat="41.17716100" lon="0.905334000">
        <ele>616.00000</ele>
        <time>2010-01-01T00:43:21Z</time>
      </trkpt>
      <trkpt lat="41.17707400" lon="0.905326000">
        <ele>613.00000</ele>
        <time>2010-01-01T00:43:25Z</time>
      </trkpt>
      <trkpt lat="41.17656100" lon="0.904791000">
        <ele>611.00000</ele>
        <time>2010-01-01T00:43:51Z</time>
      </trkpt>
      <trkpt lat="41.17653000" lon="0.904684000">
        <ele>612.00000</ele>
        <time>2010-01-01T00:43:54Z</time>
      </trkpt>
      <trkpt lat="41.17647600" lon="0.904461000">
        <ele>612.00000</ele>
        <time>2010-01-01T00:44:01Z</time>
      </trkpt>
      <trkpt lat="41.17643600" lon="0.903887000">
        <ele>610.00000</ele>
        <time>2010-01-01T00:44:19Z</time>
      </trkpt>
      <trkpt lat="41.17629100" lon="0.903462000">
        <ele>607.00000</ele>
        <time>2010-01-01T00:44:33Z</time>
      </trkpt>
      <trkpt lat="41.17610100" lon="0.903195000">
        <ele>604.00000</ele>
        <time>2010-01-01T00:44:44Z</time>
      </trkpt>
      <trkpt lat="41.17570400" lon="0.903038000">
        <ele>602.00000</ele>
        <time>2010-01-01T00:45:00Z</time>
      </trkpt>
      <trkpt lat="41.17543200" lon="0.903024000">
        <ele>601.00000</ele>
        <time>2010-01-01T00:45:11Z</time>
      </trkpt>
      <trkpt lat="41.17536500" lon="0.902985000">
        <ele>600.00000</ele>
        <time>2010-01-01T00:45:14Z</time>
      </trkpt>
      <trkpt lat="41.17531400" lon="0.902940000">
        <ele>600.00000</ele>
        <time>2010-01-01T00:45:17Z</time>
      </trkpt>
      <trkpt lat="41.17517000" lon="0.902805000">
        <ele>600.00000</ele>
        <time>2010-01-01T00:45:24Z</time>
      </trkpt>
      <trkpt lat="41.17495800" lon="0.902609000">
        <ele>598.00000</ele>
        <time>2010-01-01T00:45:34Z</time>
      </trkpt>
      <trkpt lat="41.17479600" lon="0.902407000">
        <ele>595.00000</ele>
        <time>2010-01-01T00:45:43Z</time>
      </trkpt>
      <trkpt lat="41.17465400" lon="0.902082000">
        <ele>591.00000</ele>
        <time>2010-01-01T00:45:54Z</time>
      </trkpt>
      <trkpt lat="41.17462800" lon="0.901953000">
        <ele>589.00000</ele>
        <time>2010-01-01T00:45:58Z</time>
      </trkpt>
      <trkpt lat="41.17460400" lon="0.901699000">
        <ele>588.00000</ele>
        <time>2010-01-01T00:46:06Z</time>
      </trkpt>
      <trkpt lat="41.17461700" lon="0.901307000">
        <ele>587.00000</ele>
        <time>2010-01-01T00:46:18Z</time>
      </trkpt>
      <trkpt lat="41.17471500" lon="0.900782000">
        <ele>582.00000</ele>
        <time>2010-01-01T00:46:34Z</time>
      </trkpt>
      <trkpt lat="41.17491100" lon="0.900397000">
        <ele>578.00000</ele>
        <time>2010-01-01T00:46:48Z</time>
      </trkpt>
      <trkpt lat="41.17504900" lon="0.900228000">
        <ele>577.00000</ele>
        <time>2010-01-01T00:46:56Z</time>
      </trkpt>
      <trkpt lat="41.17519700" lon="0.900108000">
        <ele>576.00000</ele>
        <time>2010-01-01T00:47:02Z</time>
      </trkpt>
      <trkpt lat="41.17522500" lon="0.899883000">
        <ele>574.00000</ele>
        <time>2010-01-01T00:47:09Z</time>
      </trkpt>
      <trkpt lat="41.17481600" lon="0.899967000">
        <ele>568.00000</ele>
        <time>2010-01-01T00:47:26Z</time>
      </trkpt>
      <trkpt lat="41.17467500" lon="0.900034000">
        <ele>567.00000</ele>
        <time>2010-01-01T00:47:32Z</time>
      </trkpt>
      <trkpt lat="41.17461000" lon="0.900094000">
        <ele>567.00000</ele>
        <time>2010-01-01T00:47:35Z</time>
      </trkpt>
      <trkpt lat="41.17436800" lon="0.900379000">
        <ele>568.00000</ele>
        <time>2010-01-01T00:47:48Z</time>
      </trkpt>
      <trkpt lat="41.17416700" lon="0.900619000">
        <ele>567.00000</ele>
        <time>2010-01-01T00:47:59Z</time>
      </trkpt>
      <trkpt lat="41.17410300" lon="0.900706000">
        <ele>567.00000</ele>
        <time>2010-01-01T00:48:02Z</time>
      </trkpt>
      <trkpt lat="41.17394900" lon="0.901232000">
        <ele>572.00000</ele>
        <time>2010-01-01T00:48:19Z</time>
      </trkpt>
      <trkpt lat="41.17392300" lon="0.902302000">
        <ele>566.00000</ele>
        <time>2010-01-01T00:48:52Z</time>
      </trkpt>
      <trkpt lat="41.17384200" lon="0.902728000">
        <ele>562.00000</ele>
        <time>2010-01-01T00:49:05Z</time>
      </trkpt>
      <trkpt lat="41.17380600" lon="0.902974000">
        <ele>561.00000</ele>
        <time>2010-01-01T00:49:13Z</time>
      </trkpt>
      <trkpt lat="41.17378100" lon="0.903094000">
        <ele>560.00000</ele>
        <time>2010-01-01T00:49:16Z</time>
      </trkpt>
      <trkpt lat="41.17370800" lon="0.903358000">
        <ele>554.00000</ele>
        <time>2010-01-01T00:49:25Z</time>
      </trkpt>
      <trkpt lat="41.17368000" lon="0.903576000">
        <ele>549.00000</ele>
        <time>2010-01-01T00:49:31Z</time>
      </trkpt>
      <trkpt lat="41.17368000" lon="0.903621000">
        <ele>549.00000</ele>
        <time>2010-01-01T00:49:33Z</time>
      </trkpt>
      <trkpt lat="41.17367100" lon="0.903839000">
        <ele>546.00000</ele>
        <time>2010-01-01T00:49:39Z</time>
      </trkpt>
      <trkpt lat="41.17365300" lon="0.903865000">
        <ele>545.00000</ele>
        <time>2010-01-01T00:49:40Z</time>
      </trkpt>
      <trkpt lat="41.17357100" lon="0.903649000">
        <ele>543.00000</ele>
        <time>2010-01-01T00:49:48Z</time>
      </trkpt>
      <trkpt lat="41.17347300" lon="0.902863000">
        <ele>542.00000</ele>
        <time>2010-01-01T00:50:12Z</time>
      </trkpt>
      <trkpt lat="41.17348200" lon="0.902293000">
        <ele>549.00000</ele>
        <time>2010-01-01T00:50:29Z</time>
      </trkpt>
      <trkpt lat="41.17349300" lon="0.901988000">
        <ele>552.00000</ele>
        <time>2010-01-01T00:50:38Z</time>
      </trkpt>
      <trkpt lat="41.17326100" lon="0.901584000">
        <ele>553.00000</ele>
        <time>2010-01-01T00:50:53Z</time>
      </trkpt>
      <trkpt lat="41.17315500" lon="0.901730000">
        <ele>551.00000</ele>
        <time>2010-01-01T00:51:00Z</time>
      </trkpt>
      <trkpt lat="41.17312200" lon="0.901774000">
        <ele>550.00000</ele>
        <time>2010-01-01T00:51:01Z</time>
      </trkpt>
      <trkpt lat="41.17288300" lon="0.902128000">
        <ele>545.00000</ele>
        <time>2010-01-01T00:51:16Z</time>
      </trkpt>
      <trkpt lat="41.17271300" lon="0.902368000">
        <ele>541.00000</ele>
        <time>2010-01-01T00:51:26Z</time>
      </trkpt>
      <trkpt lat="41.17256300" lon="0.902688000">
        <ele>538.00000</ele>
        <time>2010-01-01T00:51:37Z</time>
      </trkpt>
      <trkpt lat="41.17244200" lon="0.902950000">
        <ele>536.00000</ele>
        <time>2010-01-01T00:51:46Z</time>
      </trkpt>
      <trkpt lat="41.17228300" lon="0.903307000">
        <ele>534.00000</ele>
        <time>2010-01-01T00:51:59Z</time>
      </trkpt>
      <trkpt lat="41.17215700" lon="0.903574000">
        <ele>532.00000</ele>
        <time>2010-01-01T00:52:08Z</time>
      </trkpt>
      <trkpt lat="41.17206700" lon="0.903726000">
        <ele>531.00000</ele>
        <time>2010-01-01T00:52:14Z</time>
      </trkpt>
      <trkpt lat="41.17175500" lon="0.904208000">
        <ele>530.00000</ele>
        <time>2010-01-01T00:52:33Z</time>
      </trkpt>
      <trkpt lat="41.17172100" lon="0.904612000">
        <ele>528.00000</ele>
        <time>2010-01-01T00:52:45Z</time>
      </trkpt>
      <trkpt lat="41.17147400" lon="0.905369000">
        <ele>531.00000</ele>
        <time>2010-01-01T00:53:10Z</time>
      </trkpt>
      <trkpt lat="41.17122700" lon="0.905725000">
        <ele>536.00000</ele>
        <time>2010-01-01T00:53:25Z</time>
      </trkpt>
      <trkpt lat="41.17093500" lon="0.905965000">
        <ele>540.00000</ele>
        <time>2010-01-01T00:53:39Z</time>
      </trkpt>
      <trkpt lat="41.17071200" lon="0.906019000">
        <ele>544.00000</ele>
        <time>2010-01-01T00:53:48Z</time>
      </trkpt>
      <trkpt lat="41.17054200" lon="0.906170000">
        <ele>545.00000</ele>
        <time>2010-01-01T00:53:56Z</time>
      </trkpt>
      <trkpt lat="41.17042500" lon="0.906226000">
        <ele>548.00000</ele>
        <time>2010-01-01T00:54:01Z</time>
      </trkpt>
      <trkpt lat="41.17034100" lon="0.906235000">
        <ele>551.00000</ele>
        <time>2010-01-01T00:54:04Z</time>
      </trkpt>
      <trkpt lat="41.17023300" lon="0.906300000">
        <ele>553.00000</ele>
        <time>2010-01-01T00:54:09Z</time>
      </trkpt>
      <trkpt lat="41.17016400" lon="0.906368000">
        <ele>554.00000</ele>
        <time>2010-01-01T00:54:12Z</time>
      </trkpt>
      <trkpt lat="41.17015900" lon="0.906475000">
        <ele>553.00000</ele>
        <time>2010-01-01T00:54:16Z</time>
      </trkpt>
      <trkpt lat="41.17017400" lon="0.906739000">
        <ele>552.00000</ele>
        <time>2010-01-01T00:54:24Z</time>
      </trkpt>
      <trkpt lat="41.17017300" lon="0.906760000">
        <ele>552.00000</ele>
        <time>2010-01-01T00:54:24Z</time>
      </trkpt>
      <trkpt lat="41.17021600" lon="0.907020000">
        <ele>552.00000</ele>
        <time>2010-01-01T00:54:32Z</time>
      </trkpt>
      <trkpt lat="41.17022700" lon="0.907046000">
        <ele>551.00000</ele>
        <time>2010-01-01T00:54:33Z</time>
      </trkpt>
      <trkpt lat="41.17024100" lon="0.907400000">
        <ele>549.00000</ele>
        <time>2010-01-01T00:54:44Z</time>
      </trkpt>
      <trkpt lat="41.17013800" lon="0.907441000">
        <ele>551.00000</ele>
        <time>2010-01-01T00:54:48Z</time>
      </trkpt>
      <trkpt lat="41.17007200" lon="0.907332000">
        <ele>553.00000</ele>
        <time>2010-01-01T00:54:52Z</time>
      </trkpt>
      <trkpt lat="41.17000200" lon="0.907283000">
        <ele>555.00000</ele>
        <time>2010-01-01T00:54:56Z</time>
      </trkpt>
      <trkpt lat="41.16996900" lon="0.907274000">
        <ele>555.00000</ele>
        <time>2010-01-01T00:54:57Z</time>
      </trkpt>
      <trkpt lat="41.16994100" lon="0.907274000">
        <ele>555.00000</ele>
        <time>2010-01-01T00:54:58Z</time>
      </trkpt>
      <trkpt lat="41.16985700" lon="0.907241000">
        <ele>557.00000</ele>
        <time>2010-01-01T00:55:02Z</time>
      </trkpt>
      <trkpt lat="41.16977500" lon="0.907149000">
        <ele>558.00000</ele>
        <time>2010-01-01T00:55:06Z</time>
      </trkpt>
      <trkpt lat="41.16958400" lon="0.906988000">
        <ele>560.00000</ele>
        <time>2010-01-01T00:55:15Z</time>
      </trkpt>
      <trkpt lat="41.16930900" lon="0.907131000">
        <ele>562.00000</ele>
        <time>2010-01-01T00:55:27Z</time>
      </trkpt>
      <trkpt lat="41.16906700" lon="0.907285000">
        <ele>568.00000</ele>
        <time>2010-01-01T00:55:38Z</time>
      </trkpt>
      <trkpt lat="41.16884300" lon="0.907579000">
        <ele>572.00000</ele>
        <time>2010-01-01T00:55:50Z</time>
      </trkpt>
      <trkpt lat="41.16883500" lon="0.907608000">
        <ele>572.00000</ele>
        <time>2010-01-01T00:55:51Z</time>
      </trkpt>
      <trkpt lat="41.16874500" lon="0.907928000">
        <ele>570.00000</ele>
        <time>2010-01-01T00:56:01Z</time>
      </trkpt>
      <trkpt lat="41.16871800" lon="0.907984000">
        <ele>570.00000</ele>
        <time>2010-01-01T00:56:03Z</time>
      </trkpt>
      <trkpt lat="41.16855700" lon="0.907973000">
        <ele>574.00000</ele>
        <time>2010-01-01T00:56:10Z</time>
      </trkpt>
      <trkpt lat="41.16839100" lon="0.907969000">
        <ele>577.00000</ele>
        <time>2010-01-01T00:56:16Z</time>
      </trkpt>
      <trkpt lat="41.16835800" lon="0.907986000">
        <ele>577.00000</ele>
        <time>2010-01-01T00:56:18Z</time>
      </trkpt>
      <trkpt lat="41.16824300" lon="0.908021000">
        <ele>578.00000</ele>
        <time>2010-01-01T00:56:23Z</time>
      </trkpt>
      <trkpt lat="41.16812900" lon="0.908069000">
        <ele>580.00000</ele>
        <time>2010-01-01T00:56:27Z</time>
      </trkpt>
      <trkpt lat="41.16806100" lon="0.908122000">
        <ele>581.00000</ele>
        <time>2010-01-01T00:56:31Z</time>
      </trkpt>
      <trkpt lat="41.16783200" lon="0.908344000">
        <ele>584.00000</ele>
        <time>2010-01-01T00:56:42Z</time>
      </trkpt>
      <trkpt lat="41.16769500" lon="0.908573000">
        <ele>583.00000</ele>
        <time>2010-01-01T00:56:51Z</time>
      </trkpt>
      <trkpt lat="41.16755000" lon="0.908701000">
        <ele>582.00000</ele>
        <time>2010-01-01T00:56:58Z</time>
      </trkpt>
      <trkpt lat="41.16733700" lon="0.908710000">
        <ele>582.00000</ele>
        <time>2010-01-01T00:57:06Z</time>
      </trkpt>
      <trkpt lat="41.16710900" lon="0.908587000">
        <ele>587.00000</ele>
        <time>2010-01-01T00:57:16Z</time>
      </trkpt>
      <trkpt lat="41.16681100" lon="0.908633000">
        <ele>592.00000</ele>
        <time>2010-01-01T00:57:28Z</time>
      </trkpt>
      <trkpt lat="41.16656400" lon="0.908621000">
        <ele>596.00000</ele>
        <time>2010-01-01T00:57:38Z</time>
      </trkpt>
      <trkpt lat="41.16632400" lon="0.908620000">
        <ele>597.00000</ele>
        <time>2010-01-01T00:57:48Z</time>
      </trkpt>
      <trkpt lat="41.16626100" lon="0.908643000">
        <ele>598.00000</ele>
        <time>2010-01-01T00:57:50Z</time>
      </trkpt>
      <trkpt lat="41.16619100" lon="0.908692000">
        <ele>598.00000</ele>
        <time>2010-01-01T00:57:53Z</time>
      </trkpt>
      <trkpt lat="41.16603200" lon="0.908908000">
        <ele>599.00000</ele>
        <time>2010-01-01T00:58:02Z</time>
      </trkpt>
      <trkpt lat="41.16591600" lon="0.909100000">
        <ele>599.00000</ele>
        <time>2010-01-01T00:58:10Z</time>
      </trkpt>
      <trkpt lat="41.16589800" lon="0.909122000">
        <ele>599.00000</ele>
        <time>2010-01-01T00:58:11Z</time>
      </trkpt>
      <trkpt lat="41.16574400" lon="0.909243000">
        <ele>601.00000</ele>
        <time>2010-01-01T00:58:18Z</time>
      </trkpt>
      <trkpt lat="41.16555900" lon="0.909297000">
        <ele>604.00000</ele>
        <time>2010-01-01T00:58:26Z</time>
      </trkpt>
      <trkpt lat="41.16535700" lon="0.909346000">
        <ele>605.00000</ele>
        <time>2010-01-01T00:58:34Z</time>
      </trkpt>
      <trkpt lat="41.16525500" lon="0.909364000">
        <ele>606.00000</ele>
        <time>2010-01-01T00:58:38Z</time>
      </trkpt>
      <trkpt lat="41.16513700" lon="0.909377000">
        <ele>606.00000</ele>
        <time>2010-01-01T00:58:43Z</time>
      </trkpt>
      <trkpt lat="41.16504400" lon="0.909370000">
        <ele>607.00000</ele>
        <time>2010-01-01T00:58:46Z</time>
      </trkpt>
      <trkpt lat="41.16489900" lon="0.909404000">
        <ele>607.00000</ele>
        <time>2010-01-01T00:58:52Z</time>
      </trkpt>
      <trkpt lat="41.16483800" lon="0.909422000">
        <ele>607.00000</ele>
        <time>2010-01-01T00:58:55Z</time>
      </trkpt>
      <trkpt lat="41.16483300" lon="0.909421000">
        <ele>607.00000</ele>
        <time>2010-01-01T00:58:55Z</time>
      </trkpt>
      <trkpt lat="41.16477500" lon="0.909423000">
        <ele>608.00000</ele>
        <time>2010-01-01T00:58:57Z</time>
      </trkpt>
      <trkpt lat="41.16474800" lon="0.909426000">
        <ele>608.00000</ele>
        <time>2010-01-01T00:58:58Z</time>
      </trkpt>
      <trkpt lat="41.16450400" lon="0.909437000">
        <ele>607.00000</ele>
        <time>2010-01-01T00:59:08Z</time>
      </trkpt>
      <trkpt lat="41.16416300" lon="0.909303000">
        <ele>604.00000</ele>
        <time>2010-01-01T00:59:22Z</time>
      </trkpt>
      <trkpt lat="41.16405400" lon="0.909135000">
        <ele>604.00000</ele>
        <time>2010-01-01T00:59:29Z</time>
      </trkpt>
      <trkpt lat="41.16393000" lon="0.908895000">
        <ele>602.00000</ele>
        <time>2010-01-01T00:59:38Z</time>
      </trkpt>
      <trkpt lat="41.16389300" lon="0.908856000">
        <ele>602.00000</ele>
        <time>2010-01-01T00:59:40Z</time>
      </trkpt>
      <trkpt lat="41.16379100" lon="0.908538000">
        <ele>602.00000</ele>
        <time>2010-01-01T00:59:50Z</time>
      </trkpt>
      <trkpt lat="41.16366700" lon="0.908173000">
        <ele>602.00000</ele>
        <time>2010-01-01T01:00:02Z</time>
      </trkpt>
      <trkpt lat="41.16349200" lon="0.907907000">
        <ele>602.00000</ele>
        <time>2010-01-01T01:00:13Z</time>
      </trkpt>
      <trkpt lat="41.16342100" lon="0.907815000">
        <ele>604.00000</ele>
        <time>2010-01-01T01:00:17Z</time>
      </trkpt>
      <trkpt lat="41.16317900" lon="0.907621000">
        <ele>604.00000</ele>
        <time>2010-01-01T01:00:28Z</time>
      </trkpt>
      <trkpt lat="41.16283800" lon="0.907294000">
        <ele>604.00000</ele>
        <time>2010-01-01T01:00:45Z</time>
      </trkpt>
      <trkpt lat="41.16280500" lon="0.907266000">
        <ele>603.00000</ele>
        <time>2010-01-01T01:00:47Z</time>
      </trkpt>
      <trkpt lat="41.16269700" lon="0.907097000">
        <ele>604.00000</ele>
        <time>2010-01-01T01:00:53Z</time>
      </trkpt>
      <trkpt lat="41.16263500" lon="0.906980000">
        <ele>604.00000</ele>
        <time>2010-01-01T01:00:58Z</time>
      </trkpt>
      <trkpt lat="41.16245600" lon="0.906825000">
        <ele>603.00000</ele>
        <time>2010-01-01T01:01:06Z</time>
      </trkpt>
      <trkpt lat="41.16227800" lon="0.906690000">
        <ele>598.00000</ele>
        <time>2010-01-01T01:01:14Z</time>
      </trkpt>
      <trkpt lat="41.16217700" lon="0.906638000">
        <ele>596.00000</ele>
        <time>2010-01-01T01:01:19Z</time>
      </trkpt>
      <trkpt lat="41.16201900" lon="0.906544000">
        <ele>595.00000</ele>
        <time>2010-01-01T01:01:26Z</time>
      </trkpt>
      <trkpt lat="41.16188200" lon="0.906419000">
        <ele>597.00000</ele>
        <time>2010-01-01T01:01:32Z</time>
      </trkpt>
      <trkpt lat="41.16174200" lon="0.906330000">
        <ele>599.00000</ele>
        <time>2010-01-01T01:01:38Z</time>
      </trkpt>
      <trkpt lat="41.16164000" lon="0.906300000">
        <ele>598.00000</ele>
        <time>2010-01-01T01:01:43Z</time>
      </trkpt>
      <trkpt lat="41.16139200" lon="0.906617000">
        <ele>588.00000</ele>
        <time>2010-01-01T01:01:56Z</time>
      </trkpt>
      <trkpt lat="41.16119100" lon="0.906553000">
        <ele>586.00000</ele>
        <time>2010-01-01T01:02:05Z</time>
      </trkpt>
      <trkpt lat="41.16112900" lon="0.906428000">
        <ele>587.00000</ele>
        <time>2010-01-01T01:02:09Z</time>
      </trkpt>
      <trkpt lat="41.16103800" lon="0.906197000">
        <ele>591.00000</ele>
        <time>2010-01-01T01:02:17Z</time>
      </trkpt>
      <trkpt lat="41.16085000" lon="0.905992000">
        <ele>593.00000</ele>
        <time>2010-01-01T01:02:27Z</time>
      </trkpt>
      <trkpt lat="41.16066300" lon="0.905944000">
        <ele>593.00000</ele>
        <time>2010-01-01T01:02:34Z</time>
      </trkpt>
      <trkpt lat="41.16032600" lon="0.906117000">
        <ele>587.00000</ele>
        <time>2010-01-01T01:02:49Z</time>
      </trkpt>
      <trkpt lat="41.16009800" lon="0.906164000">
        <ele>584.00000</ele>
        <time>2010-01-01T01:02:58Z</time>
      </trkpt>
      <trkpt lat="41.15989600" lon="0.906214000">
        <ele>578.00000</ele>
        <time>2010-01-01T01:03:06Z</time>
      </trkpt>
      <trkpt lat="41.15966800" lon="0.906494000">
        <ele>570.00000</ele>
        <time>2010-01-01T01:03:19Z</time>
      </trkpt>
      <trkpt lat="41.15972600" lon="0.906287000">
        <ele>572.00000</ele>
        <time>2010-01-01T01:03:25Z</time>
      </trkpt>
      <trkpt lat="41.15990300" lon="0.906006000">
        <ele>581.00000</ele>
        <time>2010-01-01T01:03:36Z</time>
      </trkpt>
      <trkpt lat="41.15979700" lon="0.905548000">
        <ele>586.00000</ele>
        <time>2010-01-01T01:03:51Z</time>
      </trkpt>
      <trkpt lat="41.15941800" lon="0.905522000">
        <ele>578.00000</ele>
        <time>2010-01-01T01:04:06Z</time>
      </trkpt>
      <trkpt lat="41.15925600" lon="0.905524000">
        <ele>574.00000</ele>
        <time>2010-01-01T01:04:13Z</time>
      </trkpt>
      <trkpt lat="41.15910800" lon="0.905318000">
        <ele>575.00000</ele>
        <time>2010-01-01T01:04:21Z</time>
      </trkpt>
      <trkpt lat="41.15906400" lon="0.904705000">
        <ele>586.00000</ele>
        <time>2010-01-01T01:04:40Z</time>
      </trkpt>
      <trkpt lat="41.15884600" lon="0.904417000">
        <ele>585.00000</ele>
        <time>2010-01-01T01:04:52Z</time>
      </trkpt>
      <trkpt lat="41.15865700" lon="0.904465000">
        <ele>580.00000</ele>
        <time>2010-01-01T01:05:00Z</time>
      </trkpt>
      <trkpt lat="41.15860400" lon="0.904480000">
        <ele>578.00000</ele>
        <time>2010-01-01T01:05:02Z</time>
      </trkpt>
      <trkpt lat="41.15843100" lon="0.904521000">
        <ele>577.00000</ele>
        <time>2010-01-01T01:05:09Z</time>
      </trkpt>
      <trkpt lat="41.15815800" lon="0.904510000">
        <ele>579.00000</ele>
        <time>2010-01-01T01:05:20Z</time>
      </trkpt>
      <trkpt lat="41.15801300" lon="0.904664000">
        <ele>579.00000</ele>
        <time>2010-01-01T01:05:27Z</time>
      </trkpt>
      <trkpt lat="41.15791200" lon="0.904805000">
        <ele>579.00000</ele>
        <time>2010-01-01T01:05:33Z</time>
      </trkpt>
      <trkpt lat="41.15760100" lon="0.904843000">
        <ele>580.00000</ele>
        <time>2010-01-01T01:05:46Z</time>
      </trkpt>
      <trkpt lat="41.15744900" lon="0.904700000">
        <ele>581.00000</ele>
        <time>2010-01-01T01:05:53Z</time>
      </trkpt>
      <trkpt lat="41.15725300" lon="0.904493000">
        <ele>581.00000</ele>
        <time>2010-01-01T01:06:03Z</time>
      </trkpt>
      <trkpt lat="41.15696900" lon="0.904343000">
        <ele>574.00000</ele>
        <time>2010-01-01T01:06:15Z</time>
      </trkpt>
      <trkpt lat="41.15689100" lon="0.904265000">
        <ele>572.00000</ele>
        <time>2010-01-01T01:06:19Z</time>
      </trkpt>
      <trkpt lat="41.15677800" lon="0.904132000">
        <ele>572.00000</ele>
        <time>2010-01-01T01:06:25Z</time>
      </trkpt>
      <trkpt lat="41.15670400" lon="0.904046000">
        <ele>572.00000</ele>
        <time>2010-01-01T01:06:29Z</time>
      </trkpt>
      <trkpt lat="41.15656300" lon="0.903950000">
        <ele>572.00000</ele>
        <time>2010-01-01T01:06:36Z</time>
      </trkpt>
      <trkpt lat="41.15635000" lon="0.903845000">
        <ele>570.00000</ele>
        <time>2010-01-01T01:06:45Z</time>
      </trkpt>
      <trkpt lat="41.15616800" lon="0.903631000">
        <ele>572.00000</ele>
        <time>2010-01-01T01:06:54Z</time>
      </trkpt>
      <trkpt lat="41.15593900" lon="0.903537000">
        <ele>568.00000</ele>
        <time>2010-01-01T01:07:04Z</time>
      </trkpt>
      <trkpt lat="41.15567400" lon="0.903258000">
        <ele>571.00000</ele>
        <time>2010-01-01T01:07:18Z</time>
      </trkpt>
      <trkpt lat="41.15556900" lon="0.903228000">
        <ele>570.00000</ele>
        <time>2010-01-01T01:07:22Z</time>
      </trkpt>
      <trkpt lat="41.15539300" lon="0.903219000">
        <ele>566.00000</ele>
        <time>2010-01-01T01:07:29Z</time>
      </trkpt>
      <trkpt lat="41.15494000" lon="0.903155000">
        <ele>563.00000</ele>
        <time>2010-01-01T01:07:47Z</time>
      </trkpt>
      <trkpt lat="41.15479100" lon="0.903086000">
        <ele>565.00000</ele>
        <time>2010-01-01T01:07:53Z</time>
      </trkpt>
      <trkpt lat="41.15452600" lon="0.902900000">
        <ele>572.00000</ele>
        <time>2010-01-01T01:08:05Z</time>
      </trkpt>
      <trkpt lat="41.15448600" lon="0.902899000">
        <ele>572.00000</ele>
        <time>2010-01-01T01:08:07Z</time>
      </trkpt>
      <trkpt lat="41.15435200" lon="0.902960000">
        <ele>571.00000</ele>
        <time>2010-01-01T01:08:13Z</time>
      </trkpt>
      <trkpt lat="41.15420700" lon="0.903152000">
        <ele>569.00000</ele>
        <time>2010-01-01T01:08:21Z</time>
      </trkpt>
      <trkpt lat="41.15396600" lon="0.903162000">
        <ele>570.00000</ele>
        <time>2010-01-01T01:08:31Z</time>
      </trkpt>
      <trkpt lat="41.15376200" lon="0.902966000">
        <ele>572.00000</ele>
        <time>2010-01-01T01:08:41Z</time>
      </trkpt>
      <trkpt lat="41.15362100" lon="0.902768000">
        <ele>574.00000</ele>
        <time>2010-01-01T01:08:49Z</time>
      </trkpt>
      <trkpt lat="41.15332400" lon="0.902378000">
        <ele>569.00000</ele>
        <time>2010-01-01T01:09:06Z</time>
      </trkpt>
      <trkpt lat="41.15331900" lon="0.902338000">
        <ele>569.00000</ele>
        <time>2010-01-01T01:09:07Z</time>
      </trkpt>
      <trkpt lat="41.15332900" lon="0.902323000">
        <ele>569.00000</ele>
        <time>2010-01-01T01:09:07Z</time>
      </trkpt>
      <trkpt lat="41.15332800" lon="0.902319000">
        <ele>569.00000</ele>
        <time>2010-01-01T01:09:08Z</time>
      </trkpt>
      <trkpt lat="41.15326800" lon="0.902174000">
        <ele>569.00000</ele>
        <time>2010-01-01T01:09:13Z</time>
      </trkpt>
      <trkpt lat="41.15304500" lon="0.901970000">
        <ele>566.00000</ele>
        <time>2010-01-01T01:09:23Z</time>
      </trkpt>
      <trkpt lat="41.15298800" lon="0.901924000">
        <ele>565.00000</ele>
        <time>2010-01-01T01:09:26Z</time>
      </trkpt>
      <trkpt lat="41.15272600" lon="0.901414000">
        <ele>569.00000</ele>
        <time>2010-01-01T01:09:45Z</time>
      </trkpt>
      <trkpt lat="41.15269000" lon="0.901254000">
        <ele>571.00000</ele>
        <time>2010-01-01T01:09:50Z</time>
      </trkpt>
      <trkpt lat="41.15253800" lon="0.901021000">
        <ele>566.00000</ele>
        <time>2010-01-01T01:09:59Z</time>
      </trkpt>
      <trkpt lat="41.15230600" lon="0.900498000">
        <ele>561.00000</ele>
        <time>2010-01-01T01:10:17Z</time>
      </trkpt>
      <trkpt lat="41.15214800" lon="0.899985000">
        <ele>567.00000</ele>
        <time>2010-01-01T01:10:34Z</time>
      </trkpt>
      <trkpt lat="41.15194300" lon="0.899839000">
        <ele>562.00000</ele>
        <time>2010-01-01T01:10:43Z</time>
      </trkpt>
      <trkpt lat="41.15182400" lon="0.899828000">
        <ele>559.00000</ele>
        <time>2010-01-01T01:10:48Z</time>
      </trkpt>
      <trkpt lat="41.15152300" lon="0.899858000">
        <ele>549.00000</ele>
        <time>2010-01-01T01:11:00Z</time>
      </trkpt>
      <trkpt lat="41.15131100" lon="0.899664000">
        <ele>551.00000</ele>
        <time>2010-01-01T01:11:10Z</time>
      </trkpt>
      <trkpt lat="41.15091400" lon="0.899441000">
        <ele>554.00000</ele>
        <time>2010-01-01T01:11:28Z</time>
      </trkpt>
      <trkpt lat="41.15052900" lon="0.899590000">
        <ele>544.00000</ele>
        <time>2010-01-01T01:11:44Z</time>
      </trkpt>
      <trkpt lat="41.15037200" lon="0.899615000">
        <ele>543.00000</ele>
        <time>2010-01-01T01:11:50Z</time>
      </trkpt>
      <trkpt lat="41.15016900" lon="0.899552000">
        <ele>542.00000</ele>
        <time>2010-01-01T01:11:58Z</time>
      </trkpt>
      <trkpt lat="41.14992100" lon="0.899404000">
        <ele>540.00000</ele>
        <time>2010-01-01T01:12:09Z</time>
      </trkpt>
      <trkpt lat="41.14974200" lon="0.899086000">
        <ele>541.00000</ele>
        <time>2010-01-01T01:12:21Z</time>
      </trkpt>
      <trkpt lat="41.14970000" lon="0.899003000">
        <ele>542.00000</ele>
        <time>2010-01-01T01:12:24Z</time>
      </trkpt>
      <trkpt lat="41.14940100" lon="0.898873000">
        <ele>541.00000</ele>
        <time>2010-01-01T01:12:37Z</time>
      </trkpt>
      <trkpt lat="41.14910900" lon="0.898928000">
        <ele>538.00000</ele>
        <time>2010-01-01T01:12:49Z</time>
      </trkpt>
      <trkpt lat="41.14886400" lon="0.899045000">
        <ele>537.00000</ele>
        <time>2010-01-01T01:12:59Z</time>
      </trkpt>
      <trkpt lat="41.14873900" lon="0.899189000">
        <ele>534.00000</ele>
        <time>2010-01-01T01:13:06Z</time>
      </trkpt>
      <trkpt lat="41.14850700" lon="0.899358000">
        <ele>531.00000</ele>
        <time>2010-01-01T01:13:16Z</time>
      </trkpt>
      <trkpt lat="41.14838700" lon="0.899484000">
        <ele>526.00000</ele>
        <time>2010-01-01T01:13:22Z</time>
      </trkpt>
      <trkpt lat="41.14800000" lon="0.899409000">
        <ele>521.00000</ele>
        <time>2010-01-01T01:13:38Z</time>
      </trkpt>
      <trkpt lat="41.14793100" lon="0.899172000">
        <ele>528.00000</ele>
        <time>2010-01-01T01:13:46Z</time>
      </trkpt>
      <trkpt lat="41.14789800" lon="0.898909000">
        <ele>538.00000</ele>
        <time>2010-01-01T01:13:54Z</time>
      </trkpt>
      <trkpt lat="41.14765800" lon="0.898739000">
        <ele>540.00000</ele>
        <time>2010-01-01T01:14:05Z</time>
      </trkpt>
      <trkpt lat="41.14758200" lon="0.898765000">
        <ele>536.00000</ele>
        <time>2010-01-01T01:14:08Z</time>
      </trkpt>
      <trkpt lat="41.14727600" lon="0.899066000">
        <ele>523.00000</ele>
        <time>2010-01-01T01:14:23Z</time>
      </trkpt>
      <trkpt lat="41.14710900" lon="0.899362000">
        <ele>518.00000</ele>
        <time>2010-01-01T01:14:34Z</time>
      </trkpt>
      <trkpt lat="41.14680900" lon="0.899773000">
        <ele>518.00000</ele>
        <time>2010-01-01T01:14:51Z</time>
      </trkpt>
      <trkpt lat="41.14656400" lon="0.900068000">
        <ele>516.00000</ele>
        <time>2010-01-01T01:15:05Z</time>
      </trkpt>
      <trkpt lat="41.14650100" lon="0.900136000">
        <ele>516.00000</ele>
        <time>2010-01-01T01:15:08Z</time>
      </trkpt>
      <trkpt lat="41.14646300" lon="0.900342000">
        <ele>510.00000</ele>
        <time>2010-01-01T01:15:14Z</time>
      </trkpt>
      <trkpt lat="41.14635400" lon="0.900584000">
        <ele>506.00000</ele>
        <time>2010-01-01T01:15:23Z</time>
      </trkpt>
      <trkpt lat="41.14618700" lon="0.900948000">
        <ele>506.00000</ele>
        <time>2010-01-01T01:15:36Z</time>
      </trkpt>
      <trkpt lat="41.14615100" lon="0.901370000">
        <ele>496.00000</ele>
        <time>2010-01-01T01:15:49Z</time>
      </trkpt>
      <trkpt lat="41.14613000" lon="0.901534000">
        <ele>492.00000</ele>
        <time>2010-01-01T01:15:54Z</time>
      </trkpt>
      <trkpt lat="41.14599600" lon="0.901805000">
        <ele>487.00000</ele>
        <time>2010-01-01T01:16:03Z</time>
      </trkpt>
      <trkpt lat="41.14585500" lon="0.901975000">
        <ele>485.00000</ele>
        <time>2010-01-01T01:16:11Z</time>
      </trkpt>
      <trkpt lat="41.14579000" lon="0.902075000">
        <ele>482.00000</ele>
        <time>2010-01-01T01:16:15Z</time>
      </trkpt>
      <trkpt lat="41.14568200" lon="0.902297000">
        <ele>478.00000</ele>
        <time>2010-01-01T01:16:23Z</time>
      </trkpt>
      <trkpt lat="41.14558300" lon="0.902482000">
        <ele>476.00000</ele>
        <time>2010-01-01T01:16:30Z</time>
      </trkpt>
      <trkpt lat="41.14534300" lon="0.902812000">
        <ele>474.00000</ele>
        <time>2010-01-01T01:16:44Z</time>
      </trkpt>
      <trkpt lat="41.14528300" lon="0.902883000">
        <ele>473.00000</ele>
        <time>2010-01-01T01:16:47Z</time>
      </trkpt>
      <trkpt lat="41.14522600" lon="0.902945000">
        <ele>472.00000</ele>
        <time>2010-01-01T01:16:50Z</time>
      </trkpt>
      <trkpt lat="41.14506000" lon="0.902904000">
        <ele>470.00000</ele>
        <time>2010-01-01T01:16:56Z</time>
      </trkpt>
      <trkpt lat="41.14503900" lon="0.902707000">
        <ele>469.00000</ele>
        <time>2010-01-01T01:17:02Z</time>
      </trkpt>
      <trkpt lat="41.14502700" lon="0.902555000">
        <ele>469.00000</ele>
        <time>2010-01-01T01:17:07Z</time>
      </trkpt>
      <trkpt lat="41.14525300" lon="0.902276000">
        <ele>474.00000</ele>
        <time>2010-01-01T01:17:19Z</time>
      </trkpt>
      <trkpt lat="41.14521600" lon="0.901879000">
        <ele>475.00000</ele>
        <time>2010-01-01T01:17:32Z</time>
      </trkpt>
      <trkpt lat="41.14486800" lon="0.901494000">
        <ele>471.00000</ele>
        <time>2010-01-01T01:17:50Z</time>
      </trkpt>
      <trkpt lat="41.14472200" lon="0.901485000">
        <ele>467.00000</ele>
        <time>2010-01-01T01:17:55Z</time>
      </trkpt>
      <trkpt lat="41.14462900" lon="0.901162000">
        <ele>468.00000</ele>
        <time>2010-01-01T01:18:06Z</time>
      </trkpt>
      <trkpt lat="41.14449900" lon="0.901299000">
        <ele>462.00000</ele>
        <time>2010-01-01T01:18:13Z</time>
      </trkpt>
      <trkpt lat="41.14450100" lon="0.901377000">
        <ele>461.00000</ele>
        <time>2010-01-01T01:18:15Z</time>
      </trkpt>
      <trkpt lat="41.14449500" lon="0.901665000">
        <ele>460.00000</ele>
        <time>2010-01-01T01:18:24Z</time>
      </trkpt>
      <trkpt lat="41.14462600" lon="0.901884000">
        <ele>461.00000</ele>
        <time>2010-01-01T01:18:32Z</time>
      </trkpt>
      <trkpt lat="41.14476000" lon="0.902124000">
        <ele>463.00000</ele>
        <time>2010-01-01T01:18:41Z</time>
      </trkpt>
      <trkpt lat="41.14457000" lon="0.902479000">
        <ele>457.00000</ele>
        <time>2010-01-01T01:18:54Z</time>
      </trkpt>
      <trkpt lat="41.14428700" lon="0.902905000">
        <ele>453.00000</ele>
        <time>2010-01-01T01:19:11Z</time>
      </trkpt>
      <trkpt lat="41.14406900" lon="0.903002000">
        <ele>449.00000</ele>
        <time>2010-01-01T01:19:20Z</time>
      </trkpt>
      <trkpt lat="41.14386100" lon="0.903119000">
        <ele>446.00000</ele>
        <time>2010-01-01T01:19:30Z</time>
      </trkpt>
      <trkpt lat="41.14361200" lon="0.903389000">
        <ele>446.00000</ele>
        <time>2010-01-01T01:19:42Z</time>
      </trkpt>
      <trkpt lat="41.14331300" lon="0.903639000">
        <ele>437.00000</ele>
        <time>2010-01-01T01:19:57Z</time>
      </trkpt>
      <trkpt lat="41.14302100" lon="0.904097000">
        <ele>433.00000</ele>
        <time>2010-01-01T01:20:15Z</time>
      </trkpt>
      <trkpt lat="41.14279200" lon="0.904180000">
        <ele>428.00000</ele>
        <time>2010-01-01T01:20:24Z</time>
      </trkpt>
      <trkpt lat="41.14254700" lon="0.904306000">
        <ele>425.00000</ele>
        <time>2010-01-01T01:20:35Z</time>
      </trkpt>
      <trkpt lat="41.14232900" lon="0.904682000">
        <ele>424.00000</ele>
        <time>2010-01-01T01:20:49Z</time>
      </trkpt>
      <trkpt lat="41.14214800" lon="0.904889000">
        <ele>420.00000</ele>
        <time>2010-01-01T01:20:59Z</time>
      </trkpt>
      <trkpt lat="41.14200000" lon="0.904960000">
        <ele>415.00000</ele>
        <time>2010-01-01T01:21:05Z</time>
      </trkpt>
      <trkpt lat="41.14177000" lon="0.905058000">
        <ele>408.00000</ele>
        <time>2010-01-01T01:21:14Z</time>
      </trkpt>
      <trkpt lat="41.14156600" lon="0.905169000">
        <ele>404.00000</ele>
        <time>2010-01-01T01:21:23Z</time>
      </trkpt>
      <trkpt lat="41.14143800" lon="0.905254000">
        <ele>402.00000</ele>
        <time>2010-01-01T01:21:29Z</time>
      </trkpt>
      <trkpt lat="41.14140200" lon="0.905446000">
        <ele>403.00000</ele>
        <time>2010-01-01T01:21:35Z</time>
      </trkpt>
      <trkpt lat="41.14142000" lon="0.905807000">
        <ele>406.00000</ele>
        <time>2010-01-01T01:21:46Z</time>
      </trkpt>
      <trkpt lat="41.14136200" lon="0.905807000">
        <ele>405.00000</ele>
        <time>2010-01-01T01:21:48Z</time>
      </trkpt>
      <trkpt lat="41.14122900" lon="0.905803000">
        <ele>401.00000</ele>
        <time>2010-01-01T01:21:54Z</time>
      </trkpt>
      <trkpt lat="41.14097900" lon="0.905953000">
        <ele>394.00000</ele>
        <time>2010-01-01T01:22:05Z</time>
      </trkpt>
      <trkpt lat="41.14096100" lon="0.906330000">
        <ele>391.00000</ele>
        <time>2010-01-01T01:22:16Z</time>
      </trkpt>
      <trkpt lat="41.14081900" lon="0.906407000">
        <ele>385.00000</ele>
        <time>2010-01-01T01:22:22Z</time>
      </trkpt>
      <trkpt lat="41.14074500" lon="0.906264000">
        <ele>385.00000</ele>
        <time>2010-01-01T01:22:27Z</time>
      </trkpt>
      <trkpt lat="41.14063700" lon="0.906014000">
        <ele>384.00000</ele>
        <time>2010-01-01T01:22:36Z</time>
      </trkpt>
      <trkpt lat="41.14047000" lon="0.906132000">
        <ele>381.00000</ele>
        <time>2010-01-01T01:22:44Z</time>
      </trkpt>
      <trkpt lat="41.14048100" lon="0.906285000">
        <ele>380.00000</ele>
        <time>2010-01-01T01:22:48Z</time>
      </trkpt>
      <trkpt lat="41.14054200" lon="0.906472000">
        <ele>378.00000</ele>
        <time>2010-01-01T01:22:54Z</time>
      </trkpt>
      <trkpt lat="41.14069500" lon="0.906774000">
        <ele>377.00000</ele>
        <time>2010-01-01T01:23:05Z</time>
      </trkpt>
      <trkpt lat="41.14072600" lon="0.906848000">
        <ele>377.00000</ele>
        <time>2010-01-01T01:23:08Z</time>
      </trkpt>
      <trkpt lat="41.14075900" lon="0.907108000">
        <ele>373.00000</ele>
        <time>2010-01-01T01:23:16Z</time>
      </trkpt>
      <trkpt lat="41.14074600" lon="0.907201000">
        <ele>372.00000</ele>
        <time>2010-01-01T01:23:19Z</time>
      </trkpt>
      <trkpt lat="41.14066800" lon="0.907572000">
        <ele>370.00000</ele>
        <time>2010-01-01T01:23:30Z</time>
      </trkpt>
      <trkpt lat="41.14064100" lon="0.907853000">
        <ele>366.00000</ele>
        <time>2010-01-01T01:23:39Z</time>
      </trkpt>
      <trkpt lat="41.14038600" lon="0.908069000">
        <ele>359.00000</ele>
        <time>2010-01-01T01:23:51Z</time>
      </trkpt>
      <trkpt lat="41.14031800" lon="0.908043000">
        <ele>359.00000</ele>
        <time>2010-01-01T01:23:54Z</time>
      </trkpt>
      <trkpt lat="41.13997400" lon="0.907970000">
        <ele>363.00000</ele>
        <time>2010-01-01T01:24:08Z</time>
      </trkpt>
      <trkpt lat="41.13978300" lon="0.907960000">
        <ele>363.00000</ele>
        <time>2010-01-01T01:24:15Z</time>
      </trkpt>
      <trkpt lat="41.13940000" lon="0.908034000">
        <ele>358.00000</ele>
        <time>2010-01-01T01:24:31Z</time>
      </trkpt>
      <trkpt lat="41.13919800" lon="0.908230000">
        <ele>352.00000</ele>
        <time>2010-01-01T01:24:41Z</time>
      </trkpt>
      <trkpt lat="41.13901400" lon="0.908528000">
        <ele>348.00000</ele>
        <time>2010-01-01T01:24:52Z</time>
      </trkpt>
      <trkpt lat="41.13871900" lon="0.908709000">
        <ele>348.00000</ele>
        <time>2010-01-01T01:25:05Z</time>
      </trkpt>
      <trkpt lat="41.13864300" lon="0.908729000">
        <ele>348.00000</ele>
        <time>2010-01-01T01:25:09Z</time>
      </trkpt>
      <trkpt lat="41.13841100" lon="0.908760000">
        <ele>347.00000</ele>
        <time>2010-01-01T01:25:18Z</time>
      </trkpt>
      <trkpt lat="41.13839500" lon="0.908777000">
        <ele>347.00000</ele>
        <time>2010-01-01T01:25:19Z</time>
      </trkpt>
      <trkpt lat="41.13839300" lon="0.908780000">
        <ele>347.00000</ele>
        <time>2010-01-01T01:25:19Z</time>
      </trkpt>
      <trkpt lat="41.13832000" lon="0.908831000">
        <ele>346.00000</ele>
        <time>2010-01-01T01:25:22Z</time>
      </trkpt>
      <trkpt lat="41.13820700" lon="0.908896000">
        <ele>346.00000</ele>
        <time>2010-01-01T01:25:27Z</time>
      </trkpt>
      <trkpt lat="41.13794400" lon="0.909159000">
        <ele>346.00000</ele>
        <time>2010-01-01T01:25:40Z</time>
      </trkpt>
      <trkpt lat="41.13787600" lon="0.909208000">
        <ele>346.00000</ele>
        <time>2010-01-01T01:25:43Z</time>
      </trkpt>
      <trkpt lat="41.13767600" lon="0.909501000">
        <ele>345.00000</ele>
        <time>2010-01-01T01:25:55Z</time>
      </trkpt>
      <trkpt lat="41.13749300" lon="0.909788000">
        <ele>346.00000</ele>
        <time>2010-01-01T01:26:07Z</time>
      </trkpt>
      <trkpt lat="41.13737000" lon="0.909872000">
        <ele>345.00000</ele>
        <time>2010-01-01T01:26:12Z</time>
      </trkpt>
      <trkpt lat="41.13726500" lon="0.909865000">
        <ele>346.00000</ele>
        <time>2010-01-01T01:26:16Z</time>
      </trkpt>
      <trkpt lat="41.13718900" lon="0.909676000">
        <ele>344.00000</ele>
        <time>2010-01-01T01:26:23Z</time>
      </trkpt>
      <trkpt lat="41.13724900" lon="0.909274000">
        <ele>345.00000</ele>
        <time>2010-01-01T01:26:35Z</time>
      </trkpt>
      <trkpt lat="41.13720300" lon="0.909285000">
        <ele>344.00000</ele>
        <time>2010-01-01T01:26:37Z</time>
      </trkpt>
      <trkpt lat="41.13720500" lon="0.909290000">
        <ele>344.00000</ele>
        <time>2010-01-01T01:26:37Z</time>
      </trkpt>
      <trkpt lat="41.13703500" lon="0.909593000">
        <ele>340.00000</ele>
        <time>2010-01-01T01:26:49Z</time>
      </trkpt>
      <trkpt lat="41.13702000" lon="0.909611000">
        <ele>340.00000</ele>
        <time>2010-01-01T01:26:49Z</time>
      </trkpt>
      <trkpt lat="41.13697800" lon="0.909645000">
        <ele>339.00000</ele>
        <time>2010-01-01T01:26:51Z</time>
      </trkpt>
      <trkpt lat="41.13692600" lon="0.909778000">
        <ele>338.00000</ele>
        <time>2010-01-01T01:26:56Z</time>
      </trkpt>
      <trkpt lat="41.13685800" lon="0.910156000">
        <ele>337.00000</ele>
        <time>2010-01-01T01:27:08Z</time>
      </trkpt>
      <trkpt lat="41.13680000" lon="0.910581000">
        <ele>332.00000</ele>
        <time>2010-01-01T01:27:21Z</time>
      </trkpt>
      <trkpt lat="41.13681300" lon="0.910948000">
        <ele>329.00000</ele>
        <time>2010-01-01T01:27:32Z</time>
      </trkpt>
      <trkpt lat="41.13681500" lon="0.911072000">
        <ele>327.00000</ele>
        <time>2010-01-01T01:27:35Z</time>
      </trkpt>
      <trkpt lat="41.13695200" lon="0.911512000">
        <ele>323.00000</ele>
        <time>2010-01-01T01:27:50Z</time>
      </trkpt>
      <trkpt lat="41.13700900" lon="0.911607000">
        <ele>321.00000</ele>
        <time>2010-01-01T01:27:53Z</time>
      </trkpt>
      <trkpt lat="41.13706900" lon="0.911796000">
        <ele>317.00000</ele>
        <time>2010-01-01T01:28:00Z</time>
      </trkpt>
      <trkpt lat="41.13694500" lon="0.911817000">
        <ele>316.00000</ele>
        <time>2010-01-01T01:28:05Z</time>
      </trkpt>
      <trkpt lat="41.13695000" lon="0.911877000">
        <ele>314.00000</ele>
        <time>2010-01-01T01:28:06Z</time>
      </trkpt>
      <trkpt lat="41.13713800" lon="0.912053000">
        <ele>312.00000</ele>
        <time>2010-01-01T01:28:16Z</time>
      </trkpt>
      <trkpt lat="41.13717400" lon="0.912104000">
        <ele>311.00000</ele>
        <time>2010-01-01T01:28:18Z</time>
      </trkpt>
      <trkpt lat="41.13729300" lon="0.912388000">
        <ele>308.00000</ele>
        <time>2010-01-01T01:28:28Z</time>
      </trkpt>
      <trkpt lat="41.13734700" lon="0.912444000">
        <ele>308.00000</ele>
        <time>2010-01-01T01:28:30Z</time>
      </trkpt>
      <trkpt lat="41.13761300" lon="0.912748000">
        <ele>304.00000</ele>
        <time>2010-01-01T01:28:44Z</time>
      </trkpt>
      <trkpt lat="41.13795400" lon="0.913019000">
        <ele>302.00000</ele>
        <time>2010-01-01T01:29:00Z</time>
      </trkpt>
      <trkpt lat="41.13814700" lon="0.913141000">
        <ele>302.00000</ele>
        <time>2010-01-01T01:29:09Z</time>
      </trkpt>
      <trkpt lat="41.13857000" lon="0.913325000">
        <ele>300.00000</ele>
        <time>2010-01-01T01:29:27Z</time>
      </trkpt>
      <trkpt lat="41.13889600" lon="0.913611000">
        <ele>298.00000</ele>
        <time>2010-01-01T01:29:42Z</time>
      </trkpt>
      <trkpt lat="41.13902900" lon="0.913805000">
        <ele>300.00000</ele>
        <time>2010-01-01T01:29:50Z</time>
      </trkpt>
      <trkpt lat="41.13932000" lon="0.914433000">
        <ele>296.00000</ele>
        <time>2010-01-01T01:30:12Z</time>
      </trkpt>
      <trkpt lat="41.13959200" lon="0.915042000">
        <ele>288.00000</ele>
        <time>2010-01-01T01:30:34Z</time>
      </trkpt>
      <trkpt lat="41.13973200" lon="0.915353000">
        <ele>284.00000</ele>
        <time>2010-01-01T01:30:45Z</time>
      </trkpt>
      <trkpt lat="41.13982300" lon="0.915856000">
        <ele>288.00000</ele>
        <time>2010-01-01T01:31:00Z</time>
      </trkpt>
      <trkpt lat="41.13980100" lon="0.916263000">
        <ele>293.00000</ele>
        <time>2010-01-01T01:31:13Z</time>
      </trkpt>
      <trkpt lat="41.13978800" lon="0.916486000">
        <ele>295.00000</ele>
        <time>2010-01-01T01:31:19Z</time>
      </trkpt>
      <trkpt lat="41.13982300" lon="0.916714000">
        <ele>295.00000</ele>
        <time>2010-01-01T01:31:26Z</time>
      </trkpt>
      <trkpt lat="41.13989700" lon="0.916969000">
        <ele>296.00000</ele>
        <time>2010-01-01T01:31:35Z</time>
      </trkpt>
      <trkpt lat="41.13995700" lon="0.917201000">
        <ele>295.00000</ele>
        <time>2010-01-01T01:31:42Z</time>
      </trkpt>
      <trkpt lat="41.13999100" lon="0.917342000">
        <ele>295.00000</ele>
        <time>2010-01-01T01:31:46Z</time>
      </trkpt>
      <trkpt lat="41.14003900" lon="0.917507000">
        <ele>295.00000</ele>
        <time>2010-01-01T01:31:52Z</time>
      </trkpt>
      <trkpt lat="41.14013300" lon="0.917793000">
        <ele>293.00000</ele>
        <time>2010-01-01T01:32:01Z</time>
      </trkpt>
      <trkpt lat="41.14017300" lon="0.917893000">
        <ele>292.00000</ele>
        <time>2010-01-01T01:32:05Z</time>
      </trkpt>
      <trkpt lat="41.14027100" lon="0.918183000">
        <ele>290.00000</ele>
        <time>2010-01-01T01:32:14Z</time>
      </trkpt>
      <trkpt lat="41.14041900" lon="0.918564000">
        <ele>287.00000</ele>
        <time>2010-01-01T01:32:27Z</time>
      </trkpt>
      <trkpt lat="41.14052500" lon="0.918918000">
        <ele>286.00000</ele>
        <time>2010-01-01T01:32:39Z</time>
      </trkpt>
      <trkpt lat="41.14055400" lon="0.918938000">
        <ele>286.00000</ele>
        <time>2010-01-01T01:32:40Z</time>
      </trkpt>
      <trkpt lat="41.14062000" lon="0.919013000">
        <ele>285.00000</ele>
        <time>2010-01-01T01:32:43Z</time>
      </trkpt>
      <trkpt lat="41.14068400" lon="0.919093000">
        <ele>285.00000</ele>
        <time>2010-01-01T01:32:47Z</time>
      </trkpt>
      <trkpt lat="41.14086100" lon="0.919334000">
        <ele>286.00000</ele>
        <time>2010-01-01T01:32:57Z</time>
      </trkpt>
      <trkpt lat="41.14103900" lon="0.919476000">
        <ele>286.00000</ele>
        <time>2010-01-01T01:33:05Z</time>
      </trkpt>
      <trkpt lat="41.14127600" lon="0.919487000">
        <ele>282.00000</ele>
        <time>2010-01-01T01:33:15Z</time>
      </trkpt>
      <trkpt lat="41.14153300" lon="0.919609000">
        <ele>280.00000</ele>
        <time>2010-01-01T01:33:26Z</time>
      </trkpt>
      <trkpt lat="41.14166100" lon="0.919729000">
        <ele>280.00000</ele>
        <time>2010-01-01T01:33:32Z</time>
      </trkpt>
      <trkpt lat="41.14196100" lon="0.920033000">
        <ele>279.00000</ele>
        <time>2010-01-01T01:33:47Z</time>
      </trkpt>
      <trkpt lat="41.14218200" lon="0.920429000">
        <ele>282.00000</ele>
        <time>2010-01-01T01:34:02Z</time>
      </trkpt>
      <trkpt lat="41.14224800" lon="0.920561000">
        <ele>284.00000</ele>
        <time>2010-01-01T01:34:07Z</time>
      </trkpt>
      <trkpt lat="41.14228100" lon="0.920628000">
        <ele>284.00000</ele>
        <time>2010-01-01T01:34:09Z</time>
      </trkpt>
      <trkpt lat="41.14243400" lon="0.920872000">
        <ele>281.00000</ele>
        <time>2010-01-01T01:34:19Z</time>
      </trkpt>
      <trkpt lat="41.14251100" lon="0.920987000">
        <ele>279.00000</ele>
        <time>2010-01-01T01:34:23Z</time>
      </trkpt>
      <trkpt lat="41.14256600" lon="0.921224000">
        <ele>278.00000</ele>
        <time>2010-01-01T01:34:31Z</time>
      </trkpt>
      <trkpt lat="41.14260700" lon="0.921431000">
        <ele>277.00000</ele>
        <time>2010-01-01T01:34:37Z</time>
      </trkpt>
      <trkpt lat="41.14262900" lon="0.921539000">
        <ele>276.00000</ele>
        <time>2010-01-01T01:34:41Z</time>
      </trkpt>
      <trkpt lat="41.14260800" lon="0.921773000">
        <ele>274.00000</ele>
        <time>2010-01-01T01:34:48Z</time>
      </trkpt>
      <trkpt lat="41.14254500" lon="0.921983000">
        <ele>274.00000</ele>
        <time>2010-01-01T01:34:55Z</time>
      </trkpt>
      <trkpt lat="41.14254700" lon="0.922277000">
        <ele>271.00000</ele>
        <time>2010-01-01T01:35:04Z</time>
      </trkpt>
      <trkpt lat="41.14256400" lon="0.922606000">
        <ele>271.00000</ele>
        <time>2010-01-01T01:35:13Z</time>
      </trkpt>
      <trkpt lat="41.14259900" lon="0.922869000">
        <ele>271.00000</ele>
        <time>2010-01-01T01:35:22Z</time>
      </trkpt>
      <trkpt lat="41.14276000" lon="0.923303000">
        <ele>269.00000</ele>
        <time>2010-01-01T01:35:36Z</time>
      </trkpt>
      <trkpt lat="41.14271700" lon="0.923637000">
        <ele>270.00000</ele>
        <time>2010-01-01T01:35:46Z</time>
      </trkpt>
      <trkpt lat="41.14267300" lon="0.923777000">
        <ele>271.00000</ele>
        <time>2010-01-01T01:35:51Z</time>
      </trkpt>
      <trkpt lat="41.14253100" lon="0.924270000">
        <ele>272.00000</ele>
        <time>2010-01-01T01:36:07Z</time>
      </trkpt>
      <trkpt lat="41.14256500" lon="0.924511000">
        <ele>267.00000</ele>
        <time>2010-01-01T01:36:14Z</time>
      </trkpt>
      <trkpt lat="41.14268000" lon="0.924810000">
        <ele>261.00000</ele>
        <time>2010-01-01T01:36:24Z</time>
      </trkpt>
      <trkpt lat="41.14269500" lon="0.924896000">
        <ele>260.00000</ele>
        <time>2010-01-01T01:36:27Z</time>
      </trkpt>
      <trkpt lat="41.14275600" lon="0.925104000">
        <ele>259.00000</ele>
        <time>2010-01-01T01:36:34Z</time>
      </trkpt>
      <trkpt lat="41.14283100" lon="0.925549000">
        <ele>258.00000</ele>
        <time>2010-01-01T01:36:47Z</time>
      </trkpt>
      <trkpt lat="41.14291500" lon="0.926630000">
        <ele>257.00000</ele>
        <time>2010-01-01T01:37:20Z</time>
      </trkpt>
      <trkpt lat="41.14301700" lon="0.926936000">
        <ele>255.00000</ele>
        <time>2010-01-01T01:37:30Z</time>
      </trkpt>
      <trkpt lat="41.14331200" lon="0.927353000">
        <ele>252.00000</ele>
        <time>2010-01-01T01:37:48Z</time>
      </trkpt>
      <trkpt lat="41.14337700" lon="0.927375000">
        <ele>252.00000</ele>
        <time>2010-01-01T01:37:50Z</time>
      </trkpt>
      <trkpt lat="41.14363300" lon="0.927655000">
        <ele>253.00000</ele>
        <time>2010-01-01T01:38:04Z</time>
      </trkpt>
      <trkpt lat="41.14385100" lon="0.928073000">
        <ele>249.00000</ele>
        <time>2010-01-01T01:38:19Z</time>
      </trkpt>
      <trkpt lat="41.14412600" lon="0.928184000">
        <ele>248.00000</ele>
        <time>2010-01-01T01:38:30Z</time>
      </trkpt>
      <trkpt lat="41.14417200" lon="0.928182000">
        <ele>248.00000</ele>
        <time>2010-01-01T01:38:32Z</time>
      </trkpt>
      <trkpt lat="41.14445400" lon="0.928354000">
        <ele>251.00000</ele>
        <time>2010-01-01T01:38:45Z</time>
      </trkpt>
      <trkpt lat="41.14461200" lon="0.928598000">
        <ele>254.00000</ele>
        <time>2010-01-01T01:38:54Z</time>
      </trkpt>
      <trkpt lat="41.14469800" lon="0.928815000">
        <ele>257.00000</ele>
        <time>2010-01-01T01:39:02Z</time>
      </trkpt>
      <trkpt lat="41.14470200" lon="0.928928000">
        <ele>257.00000</ele>
        <time>2010-01-01T01:39:05Z</time>
      </trkpt>
      <trkpt lat="41.14476200" lon="0.929473000">
        <ele>257.00000</ele>
        <time>2010-01-01T01:39:22Z</time>
      </trkpt>
      <trkpt lat="41.14487800" lon="0.930154000">
        <ele>259.00000</ele>
        <time>2010-01-01T01:39:43Z</time>
      </trkpt>
      <trkpt lat="41.14482300" lon="0.931312000">
        <ele>256.00000</ele>
        <time>2010-01-01T01:40:18Z</time>
      </trkpt>
      <trkpt lat="41.14471400" lon="0.931845000">
        <ele>252.00000</ele>
        <time>2010-01-01T01:40:34Z</time>
      </trkpt>
      <trkpt lat="41.14471500" lon="0.932138000">
        <ele>254.00000</ele>
        <time>2010-01-01T01:40:43Z</time>
      </trkpt>
      <trkpt lat="41.14478700" lon="0.932437000">
        <ele>254.00000</ele>
        <time>2010-01-01T01:40:53Z</time>
      </trkpt>
      <trkpt lat="41.14489200" lon="0.932830000">
        <ele>250.00000</ele>
        <time>2010-01-01T01:41:05Z</time>
      </trkpt>
      <trkpt lat="41.14478100" lon="0.932868000">
        <ele>247.00000</ele>
        <time>2010-01-01T01:41:10Z</time>
      </trkpt>
      <trkpt lat="41.14448400" lon="0.932862000">
        <ele>244.00000</ele>
        <time>2010-01-01T01:41:22Z</time>
      </trkpt>
      <trkpt lat="41.14429300" lon="0.932985000">
        <ele>241.00000</ele>
        <time>2010-01-01T01:41:30Z</time>
      </trkpt>
      <trkpt lat="41.14425400" lon="0.933068000">
        <ele>240.00000</ele>
        <time>2010-01-01T01:41:33Z</time>
      </trkpt>
      <trkpt lat="41.14399300" lon="0.933496000">
        <ele>242.00000</ele>
        <time>2010-01-01T01:41:50Z</time>
      </trkpt>
      <trkpt lat="41.14389600" lon="0.933671000">
        <ele>243.00000</ele>
        <time>2010-01-01T01:41:56Z</time>
      </trkpt>
      <trkpt lat="41.14382500" lon="0.933762000">
        <ele>245.00000</ele>
        <time>2010-01-01T01:42:00Z</time>
      </trkpt>
      <trkpt lat="41.14364300" lon="0.934018000">
        <ele>248.00000</ele>
        <time>2010-01-01T01:42:11Z</time>
      </trkpt>
      <trkpt lat="41.14339700" lon="0.934238000">
        <ele>251.00000</ele>
        <time>2010-01-01T01:42:23Z</time>
      </trkpt>
      <trkpt lat="41.14320300" lon="0.934480000">
        <ele>249.00000</ele>
        <time>2010-01-01T01:42:33Z</time>
      </trkpt>
      <trkpt lat="41.14304500" lon="0.934649000">
        <ele>249.00000</ele>
        <time>2010-01-01T01:42:42Z</time>
      </trkpt>
      <trkpt lat="41.14287100" lon="0.934676000">
        <ele>251.00000</ele>
        <time>2010-01-01T01:42:49Z</time>
      </trkpt>
      <trkpt lat="41.14264500" lon="0.934680000">
        <ele>254.00000</ele>
        <time>2010-01-01T01:42:58Z</time>
      </trkpt>
      <trkpt lat="41.14244000" lon="0.934639000">
        <ele>256.00000</ele>
        <time>2010-01-01T01:43:06Z</time>
      </trkpt>
      <trkpt lat="41.14234600" lon="0.934588000">
        <ele>257.00000</ele>
        <time>2010-01-01T01:43:10Z</time>
      </trkpt>
      <trkpt lat="41.14226900" lon="0.934602000">
        <ele>257.00000</ele>
        <time>2010-01-01T01:43:13Z</time>
      </trkpt>
      <trkpt lat="41.14216800" lon="0.934649000">
        <ele>257.00000</ele>
        <time>2010-01-01T01:43:17Z</time>
      </trkpt>
      <trkpt lat="41.14198100" lon="0.934635000">
        <ele>259.00000</ele>
        <time>2010-01-01T01:43:25Z</time>
      </trkpt>
      <trkpt lat="41.14180300" lon="0.934824000">
        <ele>264.00000</ele>
        <time>2010-01-01T01:43:34Z</time>
      </trkpt>
      <trkpt lat="41.14185500" lon="0.934916000">
        <ele>263.00000</ele>
        <time>2010-01-01T01:43:37Z</time>
      </trkpt>
      <trkpt lat="41.14207700" lon="0.935363000">
        <ele>259.00000</ele>
        <time>2010-01-01T01:43:54Z</time>
      </trkpt>
      <trkpt lat="41.14209900" lon="0.935855000">
        <ele>263.00000</ele>
        <time>2010-01-01T01:44:08Z</time>
      </trkpt>
      <trkpt lat="41.14216500" lon="0.936176000">
        <ele>259.00000</ele>
        <time>2010-01-01T01:44:18Z</time>
      </trkpt>
      <trkpt lat="41.14216500" lon="0.936418000">
        <ele>254.00000</ele>
        <time>2010-01-01T01:44:26Z</time>
      </trkpt>
      <trkpt lat="41.14207800" lon="0.936642000">
        <ele>253.00000</ele>
        <time>2010-01-01T01:44:33Z</time>
      </trkpt>
      <trkpt lat="41.14197900" lon="0.936787000">
        <ele>255.00000</ele>
        <time>2010-01-01T01:44:39Z</time>
      </trkpt>
      <trkpt lat="41.14185800" lon="0.936926000">
        <ele>257.00000</ele>
        <time>2010-01-01T01:44:46Z</time>
      </trkpt>
      <trkpt lat="41.14161400" lon="0.937011000">
        <ele>264.00000</ele>
        <time>2010-01-01T01:44:56Z</time>
      </trkpt>
      <trkpt lat="41.14156900" lon="0.937111000">
        <ele>261.00000</ele>
        <time>2010-01-01T01:44:59Z</time>
      </trkpt>
      <trkpt lat="41.14131000" lon="0.937237000">
        <ele>260.00000</ele>
        <time>2010-01-01T01:45:10Z</time>
      </trkpt>
      <trkpt lat="41.14108900" lon="0.937390000">
        <ele>260.00000</ele>
        <time>2010-01-01T01:45:20Z</time>
      </trkpt>
      <trkpt lat="41.14108600" lon="0.937418000">
        <ele>259.00000</ele>
        <time>2010-01-01T01:45:21Z</time>
      </trkpt>
      <trkpt lat="41.14101000" lon="0.937667000">
        <ele>258.00000</ele>
        <time>2010-01-01T01:45:29Z</time>
      </trkpt>
      <trkpt lat="41.14090700" lon="0.937778000">
        <ele>261.00000</ele>
        <time>2010-01-01T01:45:35Z</time>
      </trkpt>
      <trkpt lat="41.14081900" lon="0.938034000">
        <ele>261.00000</ele>
        <time>2010-01-01T01:45:43Z</time>
      </trkpt>
      <trkpt lat="41.14077800" lon="0.938287000">
        <ele>261.00000</ele>
        <time>2010-01-01T01:45:51Z</time>
      </trkpt>
      <trkpt lat="41.14076400" lon="0.938400000">
        <ele>261.00000</ele>
        <time>2010-01-01T01:45:54Z</time>
      </trkpt>
      <trkpt lat="41.14075000" lon="0.938798000">
        <ele>259.00000</ele>
        <time>2010-01-01T01:46:06Z</time>
      </trkpt>
      <trkpt lat="41.14077800" lon="0.938843000">
        <ele>258.00000</ele>
        <time>2010-01-01T01:46:08Z</time>
      </trkpt>
      <trkpt lat="41.14083500" lon="0.938931000">
        <ele>257.00000</ele>
        <time>2010-01-01T01:46:12Z</time>
      </trkpt>
      <trkpt lat="41.14087200" lon="0.939292000">
        <ele>250.00000</ele>
        <time>2010-01-01T01:46:23Z</time>
      </trkpt>
      <trkpt lat="41.14066900" lon="0.939551000">
        <ele>253.00000</ele>
        <time>2010-01-01T01:46:34Z</time>
      </trkpt>
      <trkpt lat="41.14067100" lon="0.939605000">
        <ele>253.00000</ele>
        <time>2010-01-01T01:46:35Z</time>
      </trkpt>
      <trkpt lat="41.14071100" lon="0.939860000">
        <ele>253.00000</ele>
        <time>2010-01-01T01:46:43Z</time>
      </trkpt>
      <trkpt lat="41.14082500" lon="0.940163000">
        <ele>251.00000</ele>
        <time>2010-01-01T01:46:54Z</time>
      </trkpt>
      <trkpt lat="41.14083800" lon="0.940207000">
        <ele>250.00000</ele>
        <time>2010-01-01T01:46:55Z</time>
      </trkpt>
      <trkpt lat="41.14088500" lon="0.940574000">
        <ele>246.00000</ele>
        <time>2010-01-01T01:47:06Z</time>
      </trkpt>
      <trkpt lat="41.14088600" lon="0.940725000">
        <ele>245.00000</ele>
        <time>2010-01-01T01:47:11Z</time>
      </trkpt>
      <trkpt lat="41.14090900" lon="0.940842000">
        <ele>243.00000</ele>
        <time>2010-01-01T01:47:14Z</time>
      </trkpt>
      <trkpt lat="41.14091000" lon="0.940907000">
        <ele>243.00000</ele>
        <time>2010-01-01T01:47:16Z</time>
      </trkpt>
      <trkpt lat="41.14090500" lon="0.941168000">
        <ele>243.00000</ele>
        <time>2010-01-01T01:47:24Z</time>
      </trkpt>
      <trkpt lat="41.14087500" lon="0.941410000">
        <ele>244.00000</ele>
        <time>2010-01-01T01:47:32Z</time>
      </trkpt>
      <trkpt lat="41.14086100" lon="0.941549000">
        <ele>241.00000</ele>
        <time>2010-01-01T01:47:36Z</time>
      </trkpt>
      <trkpt lat="41.14081000" lon="0.941700000">
        <ele>239.00000</ele>
        <time>2010-01-01T01:47:41Z</time>
      </trkpt>
      <trkpt lat="41.14069900" lon="0.941901000">
        <ele>236.00000</ele>
        <time>2010-01-01T01:47:48Z</time>
      </trkpt>
      <trkpt lat="41.14053600" lon="0.942322000">
        <ele>231.00000</ele>
        <time>2010-01-01T01:48:03Z</time>
      </trkpt>
      <trkpt lat="41.14055300" lon="0.942477000">
        <ele>231.00000</ele>
        <time>2010-01-01T01:48:07Z</time>
      </trkpt>
      <trkpt lat="41.14054300" lon="0.942792000">
        <ele>230.00000</ele>
        <time>2010-01-01T01:48:17Z</time>
      </trkpt>
      <trkpt lat="41.14050600" lon="0.942958000">
        <ele>228.00000</ele>
        <time>2010-01-01T01:48:22Z</time>
      </trkpt>
      <trkpt lat="41.14044300" lon="0.943039000">
        <ele>229.00000</ele>
        <time>2010-01-01T01:48:26Z</time>
      </trkpt>
      <trkpt lat="41.14027400" lon="0.943295000">
        <ele>228.00000</ele>
        <time>2010-01-01T01:48:36Z</time>
      </trkpt>
      <trkpt lat="41.14022800" lon="0.943500000">
        <ele>227.00000</ele>
        <time>2010-01-01T01:48:42Z</time>
      </trkpt>
      <trkpt lat="41.14015400" lon="0.943641000">
        <ele>228.00000</ele>
        <time>2010-01-01T01:48:47Z</time>
      </trkpt>
      <trkpt lat="41.14000900" lon="0.943987000">
        <ele>225.00000</ele>
        <time>2010-01-01T01:48:59Z</time>
      </trkpt>
      <trkpt lat="41.13997600" lon="0.944213000">
        <ele>222.00000</ele>
        <time>2010-01-01T01:49:06Z</time>
      </trkpt>
      <trkpt lat="41.13995100" lon="0.944391000">
        <ele>220.00000</ele>
        <time>2010-01-01T01:49:12Z</time>
      </trkpt>
      <trkpt lat="41.13988700" lon="0.944638000">
        <ele>218.00000</ele>
        <time>2010-01-01T01:49:20Z</time>
      </trkpt>
      <trkpt lat="41.13979300" lon="0.944927000">
        <ele>216.00000</ele>
        <time>2010-01-01T01:49:29Z</time>
      </trkpt>
      <trkpt lat="41.13968400" lon="0.945145000">
        <ele>215.00000</ele>
        <time>2010-01-01T01:49:37Z</time>
      </trkpt>
      <trkpt lat="41.13939500" lon="0.945379000">
        <ele>219.00000</ele>
        <time>2010-01-01T01:49:51Z</time>
      </trkpt>
      <trkpt lat="41.13928300" lon="0.945425000">
        <ele>222.00000</ele>
        <time>2010-01-01T01:49:55Z</time>
      </trkpt>
      <trkpt lat="41.13884500" lon="0.945870000">
        <ele>223.00000</ele>
        <time>2010-01-01T01:50:17Z</time>
      </trkpt>
      <trkpt lat="41.13867300" lon="0.946070000">
        <ele>223.00000</ele>
        <time>2010-01-01T01:50:26Z</time>
      </trkpt>
      <trkpt lat="41.13856600" lon="0.946175000">
        <ele>222.00000</ele>
        <time>2010-01-01T01:50:32Z</time>
      </trkpt>
      <trkpt lat="41.13848300" lon="0.946218000">
        <ele>222.00000</ele>
        <time>2010-01-01T01:50:35Z</time>
      </trkpt>
      <trkpt lat="41.13789500" lon="0.946629000">
        <ele>218.00000</ele>
        <time>2010-01-01T01:51:02Z</time>
      </trkpt>
      <trkpt lat="41.13751800" lon="0.946577000">
        <ele>218.00000</ele>
        <time>2010-01-01T01:51:17Z</time>
      </trkpt>
      <trkpt lat="41.13744700" lon="0.946621000">
        <ele>219.00000</ele>
        <time>2010-01-01T01:51:20Z</time>
      </trkpt>
      <trkpt lat="41.13726400" lon="0.947023000">
        <ele>219.00000</ele>
        <time>2010-01-01T01:51:34Z</time>
      </trkpt>
      <trkpt lat="41.13727000" lon="0.947058000">
        <ele>219.00000</ele>
        <time>2010-01-01T01:51:36Z</time>
      </trkpt>
      <trkpt lat="41.13718200" lon="0.947429000">
        <ele>219.00000</ele>
        <time>2010-01-01T01:51:47Z</time>
      </trkpt>
      <trkpt lat="41.13685200" lon="0.947481000">
        <ele>221.00000</ele>
        <time>2010-01-01T01:52:01Z</time>
      </trkpt>
      <trkpt lat="41.13667000" lon="0.947395000">
        <ele>223.00000</ele>
        <time>2010-01-01T01:52:08Z</time>
      </trkpt>
      <trkpt lat="41.13633700" lon="0.947501000">
        <ele>224.00000</ele>
        <time>2010-01-01T01:52:22Z</time>
      </trkpt>
      <trkpt lat="41.13616200" lon="0.947707000">
        <ele>225.00000</ele>
        <time>2010-01-01T01:52:31Z</time>
      </trkpt>
      <trkpt lat="41.13603600" lon="0.947884000">
        <ele>224.00000</ele>
        <time>2010-01-01T01:52:39Z</time>
      </trkpt>
      <trkpt lat="41.13577100" lon="0.948343000">
        <ele>226.00000</ele>
        <time>2010-01-01T01:52:56Z</time>
      </trkpt>
      <trkpt lat="41.13552800" lon="0.949007000">
        <ele>220.00000</ele>
        <time>2010-01-01T01:53:18Z</time>
      </trkpt>
      <trkpt lat="41.13538800" lon="0.949418000">
        <ele>217.00000</ele>
        <time>2010-01-01T01:53:32Z</time>
      </trkpt>
      <trkpt lat="41.13511000" lon="0.949744000">
        <ele>217.00000</ele>
        <time>2010-01-01T01:53:47Z</time>
      </trkpt>
      <trkpt lat="41.13497800" lon="0.949961000">
        <ele>218.00000</ele>
        <time>2010-01-01T01:53:55Z</time>
      </trkpt>
      <trkpt lat="41.13496900" lon="0.950289000">
        <ele>221.00000</ele>
        <time>2010-01-01T01:54:05Z</time>
      </trkpt>
      <trkpt lat="41.13512200" lon="0.950762000">
        <ele>218.00000</ele>
        <time>2010-01-01T01:54:21Z</time>
      </trkpt>
      <trkpt lat="41.13485600" lon="0.951085000">
        <ele>223.00000</ele>
        <time>2010-01-01T01:54:35Z</time>
      </trkpt>
      <trkpt lat="41.13463500" lon="0.951459000">
        <ele>223.00000</ele>
        <time>2010-01-01T01:54:49Z</time>
      </trkpt>
      <trkpt lat="41.13452000" lon="0.951760000">
        <ele>221.00000</ele>
        <time>2010-01-01T01:55:00Z</time>
      </trkpt>
      <trkpt lat="41.13421600" lon="0.952226000">
        <ele>217.00000</ele>
        <time>2010-01-01T01:55:18Z</time>
      </trkpt>
      <trkpt lat="41.13385700" lon="0.952352000">
        <ele>222.00000</ele>
        <time>2010-01-01T01:55:33Z</time>
      </trkpt>
      <trkpt lat="41.13375500" lon="0.952404000">
        <ele>222.00000</ele>
        <time>2010-01-01T01:55:37Z</time>
      </trkpt>
      <trkpt lat="41.13349300" lon="0.952607000">
        <ele>222.00000</ele>
        <time>2010-01-01T01:55:50Z</time>
      </trkpt>
      <trkpt lat="41.13321100" lon="0.953278000">
        <ele>219.00000</ele>
        <time>2010-01-01T01:56:13Z</time>
      </trkpt>
      <trkpt lat="41.13306900" lon="0.953620000">
        <ele>222.00000</ele>
        <time>2010-01-01T01:56:25Z</time>
      </trkpt>
      <trkpt lat="41.13292200" lon="0.953895000">
        <ele>221.00000</ele>
        <time>2010-01-01T01:56:35Z</time>
      </trkpt>
      <trkpt lat="41.13255000" lon="0.954596000">
        <ele>222.00000</ele>
        <time>2010-01-01T01:57:01Z</time>
      </trkpt>
      <trkpt lat="41.13258100" lon="0.954997000">
        <ele>221.00000</ele>
        <time>2010-01-01T01:57:13Z</time>
      </trkpt>
      <trkpt lat="41.13283000" lon="0.955542000">
        <ele>216.00000</ele>
        <time>2010-01-01T01:57:32Z</time>
      </trkpt>
      <trkpt lat="41.13291900" lon="0.956158000">
        <ele>216.00000</ele>
        <time>2010-01-01T01:57:51Z</time>
      </trkpt>
      <trkpt lat="41.13301500" lon="0.956588000">
        <ele>215.00000</ele>
        <time>2010-01-01T01:58:04Z</time>
      </trkpt>
      <trkpt lat="41.13304800" lon="0.956947000">
        <ele>217.00000</ele>
        <time>2010-01-01T01:58:15Z</time>
      </trkpt>
      <trkpt lat="41.13302800" lon="0.957187000">
        <ele>219.00000</ele>
        <time>2010-01-01T01:58:23Z</time>
      </trkpt>
      <trkpt lat="41.13294300" lon="0.957522000">
        <ele>218.00000</ele>
        <time>2010-01-01T01:58:33Z</time>
      </trkpt>
      <trkpt lat="41.13290000" lon="0.957668000">
        <ele>217.00000</ele>
        <time>2010-01-01T01:58:38Z</time>
      </trkpt>
      <trkpt lat="41.13284600" lon="0.957807000">
        <ele>216.00000</ele>
        <time>2010-01-01T01:58:43Z</time>
      </trkpt>
      <trkpt lat="41.13261100" lon="0.958288000">
        <ele>215.00000</ele>
        <time>2010-01-01T01:59:00Z</time>
      </trkpt>
      <trkpt lat="41.13246300" lon="0.958481000">
        <ele>216.00000</ele>
        <time>2010-01-01T01:59:08Z</time>
      </trkpt>
      <trkpt lat="41.13233500" lon="0.958663000">
        <ele>215.00000</ele>
        <time>2010-01-01T01:59:16Z</time>
      </trkpt>
      <trkpt lat="41.13218200" lon="0.958910000">
        <ele>213.00000</ele>
        <time>2010-01-01T01:59:25Z</time>
      </trkpt>
      <trkpt lat="41.13209500" lon="0.959007000">
        <ele>211.00000</ele>
        <time>2010-01-01T01:59:30Z</time>
      </trkpt>
      <trkpt lat="41.13196800" lon="0.959065000">
        <ele>212.00000</ele>
        <time>2010-01-01T01:59:35Z</time>
      </trkpt>
      <trkpt lat="41.13187300" lon="0.959095000">
        <ele>211.00000</ele>
        <time>2010-01-01T01:59:39Z</time>
      </trkpt>
      <trkpt lat="41.13161100" lon="0.959115000">
        <ele>208.00000</ele>
        <time>2010-01-01T01:59:50Z</time>
      </trkpt>
      <trkpt lat="41.13133600" lon="0.959070000">
        <ele>204.00000</ele>
        <time>2010-01-01T02:00:01Z</time>
      </trkpt>
      <trkpt lat="41.13116500" lon="0.959048000">
        <ele>201.00000</ele>
        <time>2010-01-01T02:00:08Z</time>
      </trkpt>
      <trkpt lat="41.13086200" lon="0.959172000">
        <ele>197.00000</ele>
        <time>2010-01-01T02:00:20Z</time>
      </trkpt>
      <trkpt lat="41.13050500" lon="0.959567000">
        <ele>195.00000</ele>
        <time>2010-01-01T02:00:39Z</time>
      </trkpt>
      <trkpt lat="41.13038400" lon="0.959711000">
        <ele>196.00000</ele>
        <time>2010-01-01T02:00:45Z</time>
      </trkpt>
      <trkpt lat="41.13022200" lon="0.960020000">
        <ele>197.00000</ele>
        <time>2010-01-01T02:00:57Z</time>
      </trkpt>
      <trkpt lat="41.13021300" lon="0.960227000">
        <ele>198.00000</ele>
        <time>2010-01-01T02:01:03Z</time>
      </trkpt>
      <trkpt lat="41.13020800" lon="0.960336000">
        <ele>199.00000</ele>
        <time>2010-01-01T02:01:06Z</time>
      </trkpt>
      <trkpt lat="41.13017100" lon="0.960788000">
        <ele>200.00000</ele>
        <time>2010-01-01T02:01:20Z</time>
      </trkpt>
      <trkpt lat="41.12996600" lon="0.961255000">
        <ele>200.00000</ele>
        <time>2010-01-01T02:01:36Z</time>
      </trkpt>
      <trkpt lat="41.12983700" lon="0.961506000">
        <ele>201.00000</ele>
        <time>2010-01-01T02:01:46Z</time>
      </trkpt>
      <trkpt lat="41.13000900" lon="0.961747000">
        <ele>199.00000</ele>
        <time>2010-01-01T02:01:56Z</time>
      </trkpt>
      <trkpt lat="41.13002900" lon="0.961798000">
        <ele>199.00000</ele>
        <time>2010-01-01T02:01:57Z</time>
      </trkpt>
      <trkpt lat="41.13005400" lon="0.961835000">
        <ele>199.00000</ele>
        <time>2010-01-01T02:01:59Z</time>
      </trkpt>
      <trkpt lat="41.13035800" lon="0.962267000">
        <ele>195.00000</ele>
        <time>2010-01-01T02:02:17Z</time>
      </trkpt>
      <trkpt lat="41.13044600" lon="0.962380000">
        <ele>193.00000</ele>
        <time>2010-01-01T02:02:22Z</time>
      </trkpt>
      <trkpt lat="41.13047400" lon="0.962671000">
        <ele>191.00000</ele>
        <time>2010-01-01T02:02:30Z</time>
      </trkpt>
      <trkpt lat="41.13040600" lon="0.962818000">
        <ele>189.00000</ele>
        <time>2010-01-01T02:02:36Z</time>
      </trkpt>
      <trkpt lat="41.12990700" lon="0.963113000">
        <ele>190.00000</ele>
        <time>2010-01-01T02:02:57Z</time>
      </trkpt>
      <trkpt lat="41.12986400" lon="0.963129000">
        <ele>190.00000</ele>
        <time>2010-01-01T02:02:59Z</time>
      </trkpt>
      <trkpt lat="41.12970600" lon="0.963221000">
        <ele>190.00000</ele>
        <time>2010-01-01T02:03:06Z</time>
      </trkpt>
      <trkpt lat="41.12936600" lon="0.963396000">
        <ele>190.00000</ele>
        <time>2010-01-01T02:03:21Z</time>
      </trkpt>
      <trkpt lat="41.12859400" lon="0.963794000">
        <ele>185.00000</ele>
        <time>2010-01-01T02:03:54Z</time>
      </trkpt>
      <trkpt lat="41.12836600" lon="0.963925000">
        <ele>183.00000</ele>
        <time>2010-01-01T02:04:04Z</time>
      </trkpt>
      <trkpt lat="41.12817700" lon="0.964023000">
        <ele>183.00000</ele>
        <time>2010-01-01T02:04:12Z</time>
      </trkpt>
      <trkpt lat="41.12802800" lon="0.964121000">
        <ele>183.00000</ele>
        <time>2010-01-01T02:04:19Z</time>
      </trkpt>
      <trkpt lat="41.12770200" lon="0.964344000">
        <ele>184.00000</ele>
        <time>2010-01-01T02:04:33Z</time>
      </trkpt>
      <trkpt lat="41.12779000" lon="0.964396000">
        <ele>183.00000</ele>
        <time>2010-01-01T02:04:37Z</time>
      </trkpt>
      <trkpt lat="41.12783800" lon="0.964472000">
        <ele>183.00000</ele>
        <time>2010-01-01T02:04:40Z</time>
      </trkpt>
      <trkpt lat="41.12781700" lon="0.964616000">
        <ele>182.00000</ele>
        <time>2010-01-01T02:04:45Z</time>
      </trkpt>
      <trkpt lat="41.12768800" lon="0.964957000">
        <ele>178.00000</ele>
        <time>2010-01-01T02:04:56Z</time>
      </trkpt>
      <trkpt lat="41.12745200" lon="0.965405000">
        <ele>174.00000</ele>
        <time>2010-01-01T02:05:13Z</time>
      </trkpt>
      <trkpt lat="41.12744700" lon="0.965437000">
        <ele>174.00000</ele>
        <time>2010-01-01T02:05:14Z</time>
      </trkpt>
      <trkpt lat="41.12734100" lon="0.965506000">
        <ele>173.00000</ele>
        <time>2010-01-01T02:05:18Z</time>
      </trkpt>
      <trkpt lat="41.12726600" lon="0.965581000">
        <ele>173.00000</ele>
        <time>2010-01-01T02:05:22Z</time>
      </trkpt>
      <trkpt lat="41.12719300" lon="0.965686000">
        <ele>172.00000</ele>
        <time>2010-01-01T02:05:26Z</time>
      </trkpt>
      <trkpt lat="41.12691300" lon="0.965961000">
        <ele>173.00000</ele>
        <time>2010-01-01T02:05:40Z</time>
      </trkpt>
      <trkpt lat="41.12674400" lon="0.966037000">
        <ele>173.00000</ele>
        <time>2010-01-01T02:05:47Z</time>
      </trkpt>
      <trkpt lat="41.12630700" lon="0.966315000">
        <ele>172.00000</ele>
        <time>2010-01-01T02:06:07Z</time>
      </trkpt>
      <trkpt lat="41.12614900" lon="0.966511000">
        <ele>172.00000</ele>
        <time>2010-01-01T02:06:15Z</time>
      </trkpt>
      <trkpt lat="41.12611500" lon="0.966578000">
        <ele>171.00000</ele>
        <time>2010-01-01T02:06:18Z</time>
      </trkpt>
      <trkpt lat="41.12605800" lon="0.966724000">
        <ele>170.00000</ele>
        <time>2010-01-01T02:06:23Z</time>
      </trkpt>
      <trkpt lat="41.12594000" lon="0.967019000">
        <ele>171.00000</ele>
        <time>2010-01-01T02:06:33Z</time>
      </trkpt>
      <trkpt lat="41.12582000" lon="0.967462000">
        <ele>169.00000</ele>
        <time>2010-01-01T02:06:47Z</time>
      </trkpt>
      <trkpt lat="41.12562200" lon="0.967859000">
        <ele>172.00000</ele>
        <time>2010-01-01T02:07:01Z</time>
      </trkpt>
      <trkpt lat="41.12560000" lon="0.967908000">
        <ele>172.00000</ele>
        <time>2010-01-01T02:07:03Z</time>
      </trkpt>
      <trkpt lat="41.12547700" lon="0.968267000">
        <ele>166.00000</ele>
        <time>2010-01-01T02:07:15Z</time>
      </trkpt>
      <trkpt lat="41.12539300" lon="0.968515000">
        <ele>164.00000</ele>
        <time>2010-01-01T02:07:23Z</time>
      </trkpt>
      <trkpt lat="41.12535200" lon="0.968800000">
        <ele>161.00000</ele>
        <time>2010-01-01T02:07:32Z</time>
      </trkpt>
      <trkpt lat="41.12529900" lon="0.969099000">
        <ele>160.00000</ele>
        <time>2010-01-01T02:07:41Z</time>
      </trkpt>
      <trkpt lat="41.12489300" lon="0.969902000">
        <ele>159.00000</ele>
        <time>2010-01-01T02:08:10Z</time>
      </trkpt>
      <trkpt lat="41.12481700" lon="0.970090000">
        <ele>159.00000</ele>
        <time>2010-01-01T02:08:17Z</time>
      </trkpt>
      <trkpt lat="41.12472700" lon="0.970282000">
        <ele>158.00000</ele>
        <time>2010-01-01T02:08:24Z</time>
      </trkpt>
      <trkpt lat="41.12443000" lon="0.970737000">
        <ele>159.00000</ele>
        <time>2010-01-01T02:08:42Z</time>
      </trkpt>
      <trkpt lat="41.12429600" lon="0.970898000">
        <ele>159.00000</ele>
        <time>2010-01-01T02:08:49Z</time>
      </trkpt>
      <trkpt lat="41.12399600" lon="0.971293000">
        <ele>159.00000</ele>
        <time>2010-01-01T02:09:06Z</time>
      </trkpt>
      <trkpt lat="41.12383400" lon="0.971553000">
        <ele>160.00000</ele>
        <time>2010-01-01T02:09:16Z</time>
      </trkpt>
      <trkpt lat="41.12374700" lon="0.971805000">
        <ele>161.00000</ele>
        <time>2010-01-01T02:09:25Z</time>
      </trkpt>
      <trkpt lat="41.12372100" lon="0.972038000">
        <ele>160.00000</ele>
        <time>2010-01-01T02:09:32Z</time>
      </trkpt>
      <trkpt lat="41.12363400" lon="0.972327000">
        <ele>159.00000</ele>
        <time>2010-01-01T02:09:41Z</time>
      </trkpt>
      <trkpt lat="41.12341500" lon="0.972514000">
        <ele>160.00000</ele>
        <time>2010-01-01T02:09:51Z</time>
      </trkpt>
      <trkpt lat="41.12320400" lon="0.972815000">
        <ele>157.00000</ele>
        <time>2010-01-01T02:10:04Z</time>
      </trkpt>
      <trkpt lat="41.12309400" lon="0.972899000">
        <ele>157.00000</ele>
        <time>2010-01-01T02:10:09Z</time>
      </trkpt>
      <trkpt lat="41.12283100" lon="0.973060000">
        <ele>156.00000</ele>
        <time>2010-01-01T02:10:21Z</time>
      </trkpt>
      <trkpt lat="41.12258400" lon="0.973220000">
        <ele>154.00000</ele>
        <time>2010-01-01T02:10:32Z</time>
      </trkpt>
      <trkpt lat="41.12234000" lon="0.973292000">
        <ele>153.00000</ele>
        <time>2010-01-01T02:10:42Z</time>
      </trkpt>
      <trkpt lat="41.12208500" lon="0.973477000">
        <ele>149.00000</ele>
        <time>2010-01-01T02:10:53Z</time>
      </trkpt>
      <trkpt lat="41.12201300" lon="0.973575000">
        <ele>147.00000</ele>
        <time>2010-01-01T02:10:57Z</time>
      </trkpt>
      <trkpt lat="41.12206600" lon="0.973643000">
        <ele>146.00000</ele>
        <time>2010-01-01T02:11:00Z</time>
      </trkpt>
      <trkpt lat="41.12213500" lon="0.973676000">
        <ele>146.00000</ele>
        <time>2010-01-01T02:11:03Z</time>
      </trkpt>
      <trkpt lat="41.12225200" lon="0.974045000">
        <ele>142.00000</ele>
        <time>2010-01-01T02:11:15Z</time>
      </trkpt>
      <trkpt lat="41.12224300" lon="0.974109000">
        <ele>142.00000</ele>
        <time>2010-01-01T02:11:17Z</time>
      </trkpt>
      <trkpt lat="41.12223700" lon="0.974246000">
        <ele>142.00000</ele>
        <time>2010-01-01T02:11:21Z</time>
      </trkpt>
      <trkpt lat="41.12224400" lon="0.974353000">
        <ele>142.00000</ele>
        <time>2010-01-01T02:11:25Z</time>
      </trkpt>
      <trkpt lat="41.12223900" lon="0.974462000">
        <ele>143.00000</ele>
        <time>2010-01-01T02:11:28Z</time>
      </trkpt>
      <trkpt lat="41.12222300" lon="0.974465000">
        <ele>143.00000</ele>
        <time>2010-01-01T02:11:29Z</time>
      </trkpt>
      <trkpt lat="41.12215200" lon="0.974485000">
        <ele>142.00000</ele>
        <time>2010-01-01T02:11:31Z</time>
      </trkpt>
      <trkpt lat="41.12199000" lon="0.974563000">
        <ele>142.00000</ele>
        <time>2010-01-01T02:11:38Z</time>
      </trkpt>
      <trkpt lat="41.12171000" lon="0.974807000">
        <ele>142.00000</ele>
        <time>2010-01-01T02:11:52Z</time>
      </trkpt>
      <trkpt lat="41.12175700" lon="0.974953000">
        <ele>143.00000</ele>
        <time>2010-01-01T02:11:57Z</time>
      </trkpt>
      <trkpt lat="41.12198000" lon="0.975392000">
        <ele>145.00000</ele>
        <time>2010-01-01T02:12:13Z</time>
      </trkpt>
      <trkpt lat="41.12210000" lon="0.975857000">
        <ele>146.00000</ele>
        <time>2010-01-01T02:12:27Z</time>
      </trkpt>
      <trkpt lat="41.12181900" lon="0.976591000">
        <ele>148.00000</ele>
        <time>2010-01-01T02:12:52Z</time>
      </trkpt>
      <trkpt lat="41.12186200" lon="0.977065000">
        <ele>149.00000</ele>
        <time>2010-01-01T02:13:07Z</time>
      </trkpt>
      <trkpt lat="41.12206500" lon="0.977413000">
        <ele>150.00000</ele>
        <time>2010-01-01T02:13:20Z</time>
      </trkpt>
      <trkpt lat="41.12242200" lon="0.977580000">
        <ele>150.00000</ele>
        <time>2010-01-01T02:13:35Z</time>
      </trkpt>
      <trkpt lat="41.12283500" lon="0.977503000">
        <ele>151.00000</ele>
        <time>2010-01-01T02:13:52Z</time>
      </trkpt>
      <trkpt lat="41.12326700" lon="0.977283000">
        <ele>153.00000</ele>
        <time>2010-01-01T02:14:10Z</time>
      </trkpt>
      <trkpt lat="41.12377200" lon="0.977079000">
        <ele>153.00000</ele>
        <time>2010-01-01T02:14:31Z</time>
      </trkpt>
      <trkpt lat="41.12420800" lon="0.976978000">
        <ele>155.00000</ele>
        <time>2010-01-01T02:14:49Z</time>
      </trkpt>
      <trkpt lat="41.12470700" lon="0.977083000">
        <ele>156.00000</ele>
        <time>2010-01-01T02:15:09Z</time>
      </trkpt>
      <trkpt lat="41.12509100" lon="0.977149000">
        <ele>157.00000</ele>
        <time>2010-01-01T02:15:25Z</time>
      </trkpt>
      <trkpt lat="41.12535300" lon="0.977474000">
        <ele>159.00000</ele>
        <time>2010-01-01T02:15:39Z</time>
      </trkpt>
      <trkpt lat="41.12555900" lon="0.977545000">
        <ele>160.00000</ele>
        <time>2010-01-01T02:15:48Z</time>
      </trkpt>
      <trkpt lat="41.12577800" lon="0.977289000">
        <ele>160.00000</ele>
        <time>2010-01-01T02:15:59Z</time>
      </trkpt>
      <trkpt lat="41.12580700" lon="0.976910000">
        <ele>159.00000</ele>
        <time>2010-01-01T02:16:11Z</time>
      </trkpt>
      <trkpt lat="41.12578300" lon="0.976498000">
        <ele>159.00000</ele>
        <time>2010-01-01T02:16:23Z</time>
      </trkpt>
      <trkpt lat="41.12617500" lon="0.976230000">
        <ele>161.00000</ele>
        <time>2010-01-01T02:16:41Z</time>
      </trkpt>
      <trkpt lat="41.12671100" lon="0.975939000">
        <ele>163.00000</ele>
        <time>2010-01-01T02:17:04Z</time>
      </trkpt>
      <trkpt lat="41.12711000" lon="0.975639000">
        <ele>165.00000</ele>
        <time>2010-01-01T02:17:22Z</time>
      </trkpt>
      <trkpt lat="41.12736800" lon="0.975531000">
        <ele>167.00000</ele>
        <time>2010-01-01T02:17:33Z</time>
      </trkpt>
      <trkpt lat="41.12739500" lon="0.975491000">
        <ele>167.00000</ele>
        <time>2010-01-01T02:17:35Z</time>
      </trkpt>
      <trkpt lat="41.12749400" lon="0.975346000">
        <ele>167.00000</ele>
        <time>2010-01-01T02:17:41Z</time>
      </trkpt>
      <trkpt lat="41.12772000" lon="0.975020000">
        <ele>167.00000</ele>
        <time>2010-01-01T02:17:54Z</time>
      </trkpt>
      <trkpt lat="41.12775300" lon="0.974985000">
        <ele>167.00000</ele>
        <time>2010-01-01T02:17:56Z</time>
      </trkpt>
      <trkpt lat="41.12799100" lon="0.974995000">
        <ele>167.00000</ele>
        <time>2010-01-01T02:18:05Z</time>
      </trkpt>
      <trkpt lat="41.12799000" lon="0.975026000">
        <ele>167.00000</ele>
        <time>2010-01-01T02:18:06Z</time>
      </trkpt>
      <trkpt lat="41.12799400" lon="0.975103000">
        <ele>167.00000</ele>
        <time>2010-01-01T02:18:09Z</time>
      </trkpt>
      <trkpt lat="41.12795100" lon="0.975383000">
        <ele>168.00000</ele>
        <time>2010-01-01T02:18:17Z</time>
      </trkpt>
      <trkpt lat="41.12786500" lon="0.975554000">
        <ele>169.00000</ele>
        <time>2010-01-01T02:18:23Z</time>
      </trkpt>
      <trkpt lat="41.12781400" lon="0.975878000">
        <ele>171.00000</ele>
        <time>2010-01-01T02:18:33Z</time>
      </trkpt>
      <trkpt lat="41.12772400" lon="0.976257000">
        <ele>172.00000</ele>
        <time>2010-01-01T02:18:45Z</time>
      </trkpt>
      <trkpt lat="41.12771700" lon="0.976288000">
        <ele>172.00000</ele>
        <time>2010-01-01T02:18:46Z</time>
      </trkpt>
      <trkpt lat="41.12753600" lon="0.976552000">
        <ele>171.00000</ele>
        <time>2010-01-01T02:18:57Z</time>
      </trkpt>
      <trkpt lat="41.12747200" lon="0.977049000">
        <ele>170.00000</ele>
        <time>2010-01-01T02:19:12Z</time>
      </trkpt>
      <trkpt lat="41.12732200" lon="0.978060000">
        <ele>170.00000</ele>
        <time>2010-01-01T02:19:43Z</time>
      </trkpt>
      <trkpt lat="41.12707600" lon="0.979301000">
        <ele>171.00000</ele>
        <time>2010-01-01T02:20:22Z</time>
      </trkpt>
      <trkpt lat="41.12684100" lon="0.980413000">
        <ele>171.00000</ele>
        <time>2010-01-01T02:20:57Z</time>
      </trkpt>
      <trkpt lat="41.12680600" lon="0.980663000">
        <ele>171.00000</ele>
        <time>2010-01-01T02:21:05Z</time>
      </trkpt>
      <trkpt lat="41.12695200" lon="0.980772000">
        <ele>172.00000</ele>
        <time>2010-01-01T02:21:11Z</time>
      </trkpt>
      <trkpt lat="41.12715900" lon="0.980886000">
        <ele>172.00000</ele>
        <time>2010-01-01T02:21:20Z</time>
      </trkpt>
      <trkpt lat="41.12744800" lon="0.981196000">
        <ele>174.00000</ele>
        <time>2010-01-01T02:21:35Z</time>
      </trkpt>
      <trkpt lat="41.12779500" lon="0.981493000">
        <ele>175.00000</ele>
        <time>2010-01-01T02:21:52Z</time>
      </trkpt>
      <trkpt lat="41.12805100" lon="0.981836000">
        <ele>175.00000</ele>
        <time>2010-01-01T02:22:06Z</time>
      </trkpt>
      <trkpt lat="41.12828600" lon="0.982200000">
        <ele>176.00000</ele>
        <time>2010-01-01T02:22:21Z</time>
      </trkpt>
      <trkpt lat="41.12848000" lon="0.982610000">
        <ele>177.00000</ele>
        <time>2010-01-01T02:22:35Z</time>
      </trkpt>
      <trkpt lat="41.12868100" lon="0.982948000">
        <ele>177.00000</ele>
        <time>2010-01-01T02:22:48Z</time>
      </trkpt>
      <trkpt lat="41.12897900" lon="0.983148000">
        <ele>177.00000</ele>
        <time>2010-01-01T02:23:02Z</time>
      </trkpt>
      <trkpt lat="41.12921800" lon="0.983220000">
        <ele>178.00000</ele>
        <time>2010-01-01T02:23:11Z</time>
      </trkpt>
      <trkpt lat="41.12926200" lon="0.983442000">
        <ele>177.00000</ele>
        <time>2010-01-01T02:23:18Z</time>
      </trkpt>
      <trkpt lat="41.12926900" lon="0.983516000">
        <ele>177.00000</ele>
        <time>2010-01-01T02:23:21Z</time>
      </trkpt>
      <trkpt lat="41.12931600" lon="0.983682000">
        <ele>178.00000</ele>
        <time>2010-01-01T02:23:26Z</time>
      </trkpt>
      <trkpt lat="41.12935100" lon="0.983752000">
        <ele>178.00000</ele>
        <time>2010-01-01T02:23:29Z</time>
      </trkpt>
      <trkpt lat="41.12935900" lon="0.983801000">
        <ele>178.00000</ele>
        <time>2010-01-01T02:23:30Z</time>
      </trkpt>
      <trkpt lat="41.12939600" lon="0.983884000">
        <ele>178.00000</ele>
        <time>2010-01-01T02:23:33Z</time>
      </trkpt>
      <trkpt lat="41.12945800" lon="0.983985000">
        <ele>178.00000</ele>
        <time>2010-01-01T02:23:37Z</time>
      </trkpt>
      <trkpt lat="41.12956600" lon="0.984212000">
        <ele>178.00000</ele>
        <time>2010-01-01T02:23:45Z</time>
      </trkpt>
      <trkpt lat="41.12976200" lon="0.984673000">
        <ele>179.00000</ele>
        <time>2010-01-01T02:24:01Z</time>
      </trkpt>
      <trkpt lat="41.12996000" lon="0.985070000">
        <ele>179.00000</ele>
        <time>2010-01-01T02:24:15Z</time>
      </trkpt>
      <trkpt lat="41.12993900" lon="0.985582000">
        <ele>178.00000</ele>
        <time>2010-01-01T02:24:31Z</time>
      </trkpt>
      <trkpt lat="41.12991700" lon="0.985726000">
        <ele>177.00000</ele>
        <time>2010-01-01T02:24:35Z</time>
      </trkpt>
      <trkpt lat="41.12994600" lon="0.985998000">
        <ele>176.00000</ele>
        <time>2010-01-01T02:24:43Z</time>
      </trkpt>
      <trkpt lat="41.13005400" lon="0.986276000">
        <ele>176.00000</ele>
        <time>2010-01-01T02:24:53Z</time>
      </trkpt>
      <trkpt lat="41.13031100" lon="0.986848000">
        <ele>176.00000</ele>
        <time>2010-01-01T02:25:13Z</time>
      </trkpt>
      <trkpt lat="41.13076700" lon="0.987614000">
        <ele>176.00000</ele>
        <time>2010-01-01T02:25:42Z</time>
      </trkpt>
      <trkpt lat="41.13094600" lon="0.987911000">
        <ele>175.00000</ele>
        <time>2010-01-01T02:25:54Z</time>
      </trkpt>
      <trkpt lat="41.13120200" lon="0.988272000">
        <ele>175.00000</ele>
        <time>2010-01-01T02:26:09Z</time>
      </trkpt>
      <trkpt lat="41.13162400" lon="0.989073000">
        <ele>173.00000</ele>
        <time>2010-01-01T02:26:38Z</time>
      </trkpt>
      <trkpt lat="41.13165100" lon="0.989128000">
        <ele>173.00000</ele>
        <time>2010-01-01T02:26:40Z</time>
      </trkpt>
      <trkpt lat="41.13174200" lon="0.989346000">
        <ele>172.00000</ele>
        <time>2010-01-01T02:26:48Z</time>
      </trkpt>
      <trkpt lat="41.13180700" lon="0.989464000">
        <ele>171.00000</ele>
        <time>2010-01-01T02:26:52Z</time>
      </trkpt>
      <trkpt lat="41.13190000" lon="0.989625000">
        <ele>171.00000</ele>
        <time>2010-01-01T02:26:58Z</time>
      </trkpt>
      <trkpt lat="41.13190800" lon="0.989642000">
        <ele>171.00000</ele>
        <time>2010-01-01T02:26:59Z</time>
      </trkpt>
      <trkpt lat="41.13195000" lon="0.989696000">
        <ele>171.00000</ele>
        <time>2010-01-01T02:27:01Z</time>
      </trkpt>
      <trkpt lat="41.13197500" lon="0.989721000">
        <ele>171.00000</ele>
        <time>2010-01-01T02:27:03Z</time>
      </trkpt>
      <trkpt lat="41.13201200" lon="0.989734000">
        <ele>171.00000</ele>
        <time>2010-01-01T02:27:04Z</time>
      </trkpt>
      <trkpt lat="41.13207500" lon="0.989708000">
        <ele>171.00000</ele>
        <time>2010-01-01T02:27:07Z</time>
      </trkpt>
      <trkpt lat="41.13210600" lon="0.989690000">
        <ele>172.00000</ele>
        <time>2010-01-01T02:27:08Z</time>
      </trkpt>
      <trkpt lat="41.13217300" lon="0.989669000">
        <ele>172.00000</ele>
        <time>2010-01-01T02:27:11Z</time>
      </trkpt>
      <trkpt lat="41.13231300" lon="0.990057000">
        <ele>175.00000</ele>
        <time>2010-01-01T02:27:24Z</time>
      </trkpt>
      <trkpt lat="41.13234800" lon="0.990068000">
        <ele>175.00000</ele>
        <time>2010-01-01T02:27:25Z</time>
      </trkpt>
      <trkpt lat="41.13242100" lon="0.990008000">
        <ele>176.00000</ele>
        <time>2010-01-01T02:27:29Z</time>
      </trkpt>
      <trkpt lat="41.13251100" lon="0.989931000">
        <ele>178.00000</ele>
        <time>2010-01-01T02:27:33Z</time>
      </trkpt>
      <trkpt lat="41.13255900" lon="0.990169000">
        <ele>177.00000</ele>
        <time>2010-01-01T02:27:40Z</time>
      </trkpt>
      <trkpt lat="41.13261800" lon="0.990367000">
        <ele>177.00000</ele>
        <time>2010-01-01T02:27:47Z</time>
      </trkpt>
      <trkpt lat="41.13271000" lon="0.990666000">
        <ele>177.00000</ele>
        <time>2010-01-01T02:27:57Z</time>
      </trkpt>
      <trkpt lat="41.13279200" lon="0.991025000">
        <ele>176.00000</ele>
        <time>2010-01-01T02:28:08Z</time>
      </trkpt>
      <trkpt lat="41.13284500" lon="0.991317000">
        <ele>175.00000</ele>
        <time>2010-01-01T02:28:17Z</time>
      </trkpt>
      <trkpt lat="41.13284600" lon="0.991338000">
        <ele>175.00000</ele>
        <time>2010-01-01T02:28:18Z</time>
      </trkpt>
      <trkpt lat="41.13291300" lon="0.991457000">
        <ele>175.00000</ele>
        <time>2010-01-01T02:28:22Z</time>
      </trkpt>
      <trkpt lat="41.13305000" lon="0.991866000">
        <ele>175.00000</ele>
        <time>2010-01-01T02:28:36Z</time>
      </trkpt>
      <trkpt lat="41.13319300" lon="0.992392000">
        <ele>175.00000</ele>
        <time>2010-01-01T02:28:52Z</time>
      </trkpt>
      <trkpt lat="41.13332000" lon="0.992712000">
        <ele>175.00000</ele>
        <time>2010-01-01T02:29:03Z</time>
      </trkpt>
      <trkpt lat="41.13341000" lon="0.992681000">
        <ele>175.00000</ele>
        <time>2010-01-01T02:29:07Z</time>
      </trkpt>
      <trkpt lat="41.13375100" lon="0.992359000">
        <ele>177.00000</ele>
        <time>2010-01-01T02:29:24Z</time>
      </trkpt>
      <trkpt lat="41.13411500" lon="0.991964000">
        <ele>178.00000</ele>
        <time>2010-01-01T02:29:43Z</time>
      </trkpt>
      <trkpt lat="41.13446900" lon="0.991528000">
        <ele>178.00000</ele>
        <time>2010-01-01T02:30:02Z</time>
      </trkpt>
      <trkpt lat="41.13480300" lon="0.991142000">
        <ele>183.00000</ele>
        <time>2010-01-01T02:30:20Z</time>
      </trkpt>
      <trkpt lat="41.13508200" lon="0.990765000">
        <ele>186.00000</ele>
        <time>2010-01-01T02:30:36Z</time>
      </trkpt>
      <trkpt lat="41.13537400" lon="0.990404000">
        <ele>188.00000</ele>
        <time>2010-01-01T02:30:52Z</time>
      </trkpt>
      <trkpt lat="41.13566400" lon="0.990146000">
        <ele>191.00000</ele>
        <time>2010-01-01T02:31:05Z</time>
      </trkpt>
      <trkpt lat="41.13571700" lon="0.990103000">
        <ele>192.00000</ele>
        <time>2010-01-01T02:31:08Z</time>
      </trkpt>
      <trkpt lat="41.13595900" lon="0.990275000">
        <ele>193.00000</ele>
        <time>2010-01-01T02:31:19Z</time>
      </trkpt>
    </trkseg>
  </trk>
</gpx>
